Illinois River (Illinois), Valley City (05586100)

StateIllinoisLatestUnknown (50700 cfs)
RiverIllinois RiverRatingObservedEstimated
Updated2026-05-05 14:00 (21 minutes ago)Flood - The river is flooding. Obstacles can be treacherous or deadly. The river should be avoided at this stage for casual trips and definitely for the inexperienced. Trips should be attempted only with protective gear and equipment.Flood(none)(none)
Discharge50700 cfs (median: 34500 cfs)High - The river is high and potentially dangerous, especially for the young and / or inexperienced. Normal stream obstacles are sometimes difficult to navigate. Extended distances can be attempted, but canoe travel may not be advisable.High(none)(none)
Height14.23 feetGood - Conditions are ideal for a canoe or kayak. Boats typically will drag on fewer than one-quarter of riffles, if at all, and portages are unnecessary or rare. Normal float lengths can be attempted without a problem.Good(none)(none)
TrendFalling (falling over 24 hours)Low - River is low but can still be floated. Some riffles are okay but most come with significant dragging and might need a portage. Float lengths should be reduced to accommodate low flow, dragging, and portages.Low(none)(none)
USGSExternal icon USGS Site (External icon Duck Duck Go Maps)Poor - River is too low to float comfortably. Most or all riffles will drag or must be portaged and some obstacles (such as slick shelf rock) cause undue problems. Avoid the river at this stage for casual paddling trips.Poor(none)(none)

Trending Data

Plot Image

Trips for Illinois River (Illinois), Valley City (05586100)

DateStartEndDistanceConditionDischargeHeightFishingDetails

A total of 0 rows are displayed.

Condition Descriptions

Fishing Conditions

Fish Species

Notes

Classic Trip List

The classic River Trips application is still available for use. It is updated with the new system using a data retrofit. It is no longer maintained. The original River Trips application is no longer updated (as of 1 Dec 2016) but can be checked for errors or for the condition of the data before it was converted to the new system.

Gauge Data Table

ObservationHeightDischargeMaximum
Discharge
Minimum
Discharge
Mean
Discharge
P05P10P20P25P50
(Median)
P75P80P90P95
2026-05-05 14:00 14.23 50700 98600 (1973) 10400 (1971) 39600 13000 15100 19600 21800 34500 51500 57100 74000 83300
2026-05-05 13:30 14.23 50900 98600 (1973) 10400 (1971) 39600 13000 15100 19600 21800 34500 51500 57100 74000 83300
2026-05-05 13:00 14.23 50900 98600 (1973) 10400 (1971) 39600 13000 15100 19600 21800 34500 51500 57100 74000 83300
2026-05-05 12:30 14.24 51100 98600 (1973) 10400 (1971) 39600 13000 15100 19600 21800 34500 51500 57100 74000 83300
2026-05-05 12:00 14.22 51200 98600 (1973) 10400 (1971) 39600 13000 15100 19600 21800 34500 51500 57100 74000 83300
2026-05-05 11:30 14.28 51000 98600 (1973) 10400 (1971) 39600 13000 15100 19600 21800 34500 51500 57100 74000 83300
2026-05-05 11:00 14.27 51100 98600 (1973) 10400 (1971) 39600 13000 15100 19600 21800 34500 51500 57100 74000 83300
2026-05-05 10:30 14.28 51100 98600 (1973) 10400 (1971) 39600 13000 15100 19600 21800 34500 51500 57100 74000 83300
2026-05-05 10:00 14.30 50900 98600 (1973) 10400 (1971) 39600 13000 15100 19600 21800 34500 51500 57100 74000 83300
2026-05-05 09:30 14.31 51100 98600 (1973) 10400 (1971) 39600 13000 15100 19600 21800 34500 51500 57100 74000 83300
2026-05-05 09:00 14.30 51300 98600 (1973) 10400 (1971) 39600 13000 15100 19600 21800 34500 51500 57100 74000 83300
2026-05-05 08:30 14.34 51200 98600 (1973) 10400 (1971) 39600 13000 15100 19600 21800 34500 51500 57100 74000 83300
2026-05-05 08:00 14.35 51100 98600 (1973) 10400 (1971) 39600 13000 15100 19600 21800 34500 51500 57100 74000 83300
2026-05-05 07:30 14.36 51000 98600 (1973) 10400 (1971) 39600 13000 15100 19600 21800 34500 51500 57100 74000 83300
2026-05-05 07:00 14.37 51400 98600 (1973) 10400 (1971) 39600 13000 15100 19600 21800 34500 51500 57100 74000 83300
2026-05-05 06:30 14.34 51500 98600 (1973) 10400 (1971) 39600 13000 15100 19600 21800 34500 51500 57100 74000 83300
2026-05-05 06:00 14.36 51600 98600 (1973) 10400 (1971) 39600 13000 15100 19600 21800 34500 51500 57100 74000 83300
2026-05-05 05:30 14.38 51700 98600 (1973) 10400 (1971) 39600 13000 15100 19600 21800 34500 51500 57100 74000 83300
2026-05-05 05:00 14.41 51400 98600 (1973) 10400 (1971) 39600 13000 15100 19600 21800 34500 51500 57100 74000 83300
2026-05-05 04:30 14.40 51500 98600 (1973) 10400 (1971) 39600 13000 15100 19600 21800 34500 51500 57100 74000 83300
2026-05-05 04:00 14.42 51600 98600 (1973) 10400 (1971) 39600 13000 15100 19600 21800 34500 51500 57100 74000 83300
2026-05-05 03:30 14.41 51700 98600 (1973) 10400 (1971) 39600 13000 15100 19600 21800 34500 51500 57100 74000 83300
2026-05-05 03:00 14.45 51300 98600 (1973) 10400 (1971) 39600 13000 15100 19600 21800 34500 51500 57100 74000 83300
2026-05-05 02:30 14.44 51500 98600 (1973) 10400 (1971) 39600 13000 15100 19600 21800 34500 51500 57100 74000 83300
2026-05-05 02:00 14.45 51600 98600 (1973) 10400 (1971) 39600 13000 15100 19600 21800 34500 51500 57100 74000 83300
2026-05-05 01:30 14.48 51300 98600 (1973) 10400 (1971) 39600 13000 15100 19600 21800 34500 51500 57100 74000 83300
2026-05-05 01:00 14.48 51700 98600 (1973) 10400 (1971) 39600 13000 15100 19600 21800 34500 51500 57100 74000 83300
2026-05-05 00:30 14.48 51700 98600 (1973) 10400 (1971) 39600 13000 15100 19600 21800 34500 51500 57100 74000 83300
2026-05-05 00:00 14.50 51400 98600 (1973) 10400 (1971) 39600 13000 15100 19600 21800 34500 51500 57100 74000 83300
2026-05-04 23:30 14.53 98600 (1973) 10400 (1971) 39600 13000 15100 19600 21800 34500 51500 57100 74000 83300
2026-05-04 23:00 14.48 98600 (1973) 10400 (1971) 39600 13000 15100 19600 21800 34500 51500 57100 74000 83300
2026-05-04 22:30 14.52 51500 100000 (1973) 10300 (1971) 39100 13500 14500 18900 20100 34300 52300 57500 72600 81200
2026-05-04 22:00 14.51 51700 100000 (1973) 10300 (1971) 39100 13500 14500 18900 20100 34300 52300 57500 72600 81200
2026-05-04 21:30 14.53 51700 100000 (1973) 10300 (1971) 39100 13500 14500 18900 20100 34300 52300 57500 72600 81200
2026-05-04 21:00 14.55 51600 100000 (1973) 10300 (1971) 39100 13500 14500 18900 20100 34300 52300 57500 72600 81200
2026-05-04 20:30 14.55 51800 100000 (1973) 10300 (1971) 39100 13500 14500 18900 20100 34300 52300 57500 72600 81200
2026-05-04 20:00 14.56 51700 100000 (1973) 10300 (1971) 39100 13500 14500 18900 20100 34300 52300 57500 72600 81200
2026-05-04 19:30 14.55 51900 100000 (1973) 10300 (1971) 39100 13500 14500 18900 20100 34300 52300 57500 72600 81200
2026-05-04 19:00 14.56 51800 100000 (1973) 10300 (1971) 39100 13500 14500 18900 20100 34300 52300 57500 72600 81200
2026-05-04 18:30 14.59 51700 100000 (1973) 10300 (1971) 39100 13500 14500 18900 20100 34300 52300 57500 72600 81200
2026-05-04 18:00 14.61 51600 100000 (1973) 10300 (1971) 39100 13500 14500 18900 20100 34300 52300 57500 72600 81200
2026-05-04 17:30 14.60 52100 100000 (1973) 10300 (1971) 39100 13500 14500 18900 20100 34300 52300 57500 72600 81200
2026-05-04 17:00 14.61 52000 100000 (1973) 10300 (1971) 39100 13500 14500 18900 20100 34300 52300 57500 72600 81200
2026-05-04 16:30 14.61 51900 100000 (1973) 10300 (1971) 39100 13500 14500 18900 20100 34300 52300 57500 72600 81200
2026-05-04 16:00 14.61 52200 100000 (1973) 10300 (1971) 39100 13500 14500 18900 20100 34300 52300 57500 72600 81200
2026-05-04 15:30 14.64 51900 100000 (1973) 10300 (1971) 39100 13500 14500 18900 20100 34300 52300 57500 72600 81200
2026-05-04 15:00 14.65 52100 100000 (1973) 10300 (1971) 39100 13500 14500 18900 20100 34300 52300 57500 72600 81200
2026-05-04 14:30 14.64 52000 100000 (1973) 10300 (1971) 39100 13500 14500 18900 20100 34300 52300 57500 72600 81200
2026-05-04 14:00 14.64 52300 100000 (1973) 10300 (1971) 39100 13500 14500 18900 20100 34300 52300 57500 72600 81200
2026-05-04 13:30 14.65 52200 100000 (1973) 10300 (1971) 39100 13500 14500 18900 20100 34300 52300 57500 72600 81200
2026-05-04 13:00 14.69 51800 100000 (1973) 10300 (1971) 39100 13500 14500 18900 20100 34300 52300 57500 72600 81200
2026-05-04 12:30 14.71 51900 100000 (1973) 10300 (1971) 39100 13500 14500 18900 20100 34300 52300 57500 72600 81200
2026-05-04 12:00 14.73 51800 100000 (1973) 10300 (1971) 39100 13500 14500 18900 20100 34300 52300 57500 72600 81200
2026-05-04 11:30 14.73 51700 100000 (1973) 10300 (1971) 39100 13500 14500 18900 20100 34300 52300 57500 72600 81200
2026-05-04 11:00 14.75 51800 100000 (1973) 10300 (1971) 39100 13500 14500 18900 20100 34300 52300 57500 72600 81200
2026-05-04 10:30 14.76 51700 100000 (1973) 10300 (1971) 39100 13500 14500 18900 20100 34300 52300 57500 72600 81200
2026-05-04 10:00 14.75 51900 100000 (1973) 10300 (1971) 39100 13500 14500 18900 20100 34300 52300 57500 72600 81200
2026-05-04 09:30 14.77 51900 100000 (1973) 10300 (1971) 39100 13500 14500 18900 20100 34300 52300 57500 72600 81200
2026-05-04 09:00 14.77 52200 100000 (1973) 10300 (1971) 39100 13500 14500 18900 20100 34300 52300 57500 72600 81200
2026-05-04 08:30 14.78 51900 100000 (1973) 10300 (1971) 39100 13500 14500 18900 20100 34300 52300 57500 72600 81200
2026-05-04 08:00 14.77 52500 100000 (1973) 10300 (1971) 39100 13500 14500 18900 20100 34300 52300 57500 72600 81200
2026-05-04 07:30 14.75 52500 100000 (1973) 10300 (1971) 39100 13500 14500 18900 20100 34300 52300 57500 72600 81200
2026-05-04 07:00 14.77 52200 100000 (1973) 10300 (1971) 39100 13500 14500 18900 20100 34300 52300 57500 72600 81200
2026-05-04 06:30 14.79 52100 100000 (1973) 10300 (1971) 39100 13500 14500 18900 20100 34300 52300 57500 72600 81200
2026-05-04 06:00 14.80 52100 100000 (1973) 10300 (1971) 39100 13500 14500 18900 20100 34300 52300 57500 72600 81200
2026-05-04 05:30 14.79 52300 100000 (1973) 10300 (1971) 39100 13500 14500 18900 20100 34300 52300 57500 72600 81200
2026-05-04 05:00 14.83 51800 100000 (1973) 10300 (1971) 39100 13500 14500 18900 20100 34300 52300 57500 72600 81200
2026-05-04 04:30 14.82 52100 100000 (1973) 10300 (1971) 39100 13500 14500 18900 20100 34300 52300 57500 72600 81200
2026-05-04 04:00 14.82 52200 100000 (1973) 10300 (1971) 39100 13500 14500 18900 20100 34300 52300 57500 72600 81200
2026-05-04 03:30 14.83 52300 100000 (1973) 10300 (1971) 39100 13500 14500 18900 20100 34300 52300 57500 72600 81200
2026-05-04 03:00 14.86 52000 100000 (1973) 10300 (1971) 39100 13500 14500 18900 20100 34300 52300 57500 72600 81200
2026-05-04 02:30 14.86 52000 100000 (1973) 10300 (1971) 39100 13500 14500 18900 20100 34300 52300 57500 72600 81200
2026-05-04 02:00 14.87 52200 100000 (1973) 10300 (1971) 39100 13500 14500 18900 20100 34300 52300 57500 72600 81200
2026-05-04 01:30 14.87 52200 100000 (1973) 10300 (1971) 39100 13500 14500 18900 20100 34300 52300 57500 72600 81200
2026-05-04 01:00 14.89 52100 100000 (1973) 10300 (1971) 39100 13500 14500 18900 20100 34300 52300 57500 72600 81200
2026-05-04 00:30 14.90 52100 100000 (1973) 10300 (1971) 39100 13500 14500 18900 20100 34300 52300 57500 72600 81200
2026-05-04 00:00 14.89 52400 100000 (1973) 10300 (1971) 39100 13500 14500 18900 20100 34300 52300 57500 72600 81200
2026-05-03 23:30 14.90 52100 100000 (1973) 10300 (1971) 39100 13500 14500 18900 20100 34300 52300 57500 72600 81200
2026-05-03 23:00 14.91 52300 100000 (1973) 10300 (1971) 39100 13500 14500 18900 20100 34300 52300 57500 72600 81200
2026-05-03 22:30 14.93 52100 101000 (1973) 10200 (1971) 39100 13700 14700 18800 20400 35100 52900 57500 71400 79700
2026-05-03 22:00 14.92 52400 101000 (1973) 10200 (1971) 39100 13700 14700 18800 20400 35100 52900 57500 71400 79700
2026-05-03 21:30 14.94 52200 101000 (1973) 10200 (1971) 39100 13700 14700 18800 20400 35100 52900 57500 71400 79700
2026-05-03 21:00 14.95 52200 101000 (1973) 10200 (1971) 39100 13700 14700 18800 20400 35100 52900 57500 71400 79700
2026-05-03 20:30 14.97 52100 101000 (1973) 10200 (1971) 39100 13700 14700 18800 20400 35100 52900 57500 71400 79700
2026-05-03 20:00 14.97 52300 101000 (1973) 10200 (1971) 39100 13700 14700 18800 20400 35100 52900 57500 71400 79700
2026-05-03 19:30 14.97 52300 101000 (1973) 10200 (1971) 39100 13700 14700 18800 20400 35100 52900 57500 71400 79700
2026-05-03 19:00 14.99 52200 101000 (1973) 10200 (1971) 39100 13700 14700 18800 20400 35100 52900 57500 71400 79700
2026-05-03 18:30 14.98 52300 101000 (1973) 10200 (1971) 39100 13700 14700 18800 20400 35100 52900 57500 71400 79700
2026-05-03 18:00 15.00 52300 101000 (1973) 10200 (1971) 39100 13700 14700 18800 20400 35100 52900 57500 71400 79700
2026-05-03 17:30 14.98 52500 101000 (1973) 10200 (1971) 39100 13700 14700 18800 20400 35100 52900 57500 71400 79700
2026-05-03 17:00 15.01 52200 101000 (1973) 10200 (1971) 39100 13700 14700 18800 20400 35100 52900 57500 71400 79700
2026-05-03 16:30 15.00 52400 101000 (1973) 10200 (1971) 39100 13700 14700 18800 20400 35100 52900 57500 71400 79700
2026-05-03 16:00 15.01 52600 101000 (1973) 10200 (1971) 39100 13700 14700 18800 20400 35100 52900 57500 71400 79700
2026-05-03 15:30 15.03 51000 101000 (1973) 10200 (1971) 39100 13700 14700 18800 20400 35100 52900 57500 71400 79700
2026-05-03 15:00 15.03 52400 101000 (1973) 10200 (1971) 39100 13700 14700 18800 20400 35100 52900 57500 71400 79700
2026-05-03 14:30 15.03 52200 101000 (1973) 10200 (1971) 39100 13700 14700 18800 20400 35100 52900 57500 71400 79700
2026-05-03 14:00 15.04 52100 101000 (1973) 10200 (1971) 39100 13700 14700 18800 20400 35100 52900 57500 71400 79700
2026-05-03 13:30 15.06 52100 101000 (1973) 10200 (1971) 39100 13700 14700 18800 20400 35100 52900 57500 71400 79700
2026-05-03 13:00 15.01 52500 101000 (1973) 10200 (1971) 39100 13700 14700 18800 20400 35100 52900 57500 71400 79700
2026-05-03 12:30 15.03 51800 101000 (1973) 10200 (1971) 39100 13700 14700 18800 20400 35100 52900 57500 71400 79700
2026-05-03 12:00 15.06 51900 101000 (1973) 10200 (1971) 39100 13700 14700 18800 20400 35100 52900 57500 71400 79700
2026-05-03 11:30 15.06 52100 101000 (1973) 10200 (1971) 39100 13700 14700 18800 20400 35100 52900 57500 71400 79700
2026-05-03 11:00 15.08 52000 101000 (1973) 10200 (1971) 39100 13700 14700 18800 20400 35100 52900 57500 71400 79700
2026-05-03 10:30 15.08 52200 101000 (1973) 10200 (1971) 39100 13700 14700 18800 20400 35100 52900 57500 71400 79700
2026-05-03 10:00 15.10 52100 101000 (1973) 10200 (1971) 39100 13700 14700 18800 20400 35100 52900 57500 71400 79700
2026-05-03 09:30 15.10 52200 101000 (1973) 10200 (1971) 39100 13700 14700 18800 20400 35100 52900 57500 71400 79700
2026-05-03 09:00 15.11 52000 101000 (1973) 10200 (1971) 39100 13700 14700 18800 20400 35100 52900 57500 71400 79700
2026-05-03 08:30 15.11 52100 101000 (1973) 10200 (1971) 39100 13700 14700 18800 20400 35100 52900 57500 71400 79700
2026-05-03 08:00 15.12 51900 101000 (1973) 10200 (1971) 39100 13700 14700 18800 20400 35100 52900 57500 71400 79700
2026-05-03 07:30 15.13 51900 101000 (1973) 10200 (1971) 39100 13700 14700 18800 20400 35100 52900 57500 71400 79700
2026-05-03 07:00 15.13 52200 101000 (1973) 10200 (1971) 39100 13700 14700 18800 20400 35100 52900 57500 71400 79700
2026-05-03 06:30 15.15 51800 101000 (1973) 10200 (1971) 39100 13700 14700 18800 20400 35100 52900 57500 71400 79700
2026-05-03 06:00 15.14 51900 101000 (1973) 10200 (1971) 39100 13700 14700 18800 20400 35100 52900 57500 71400 79700
2026-05-03 05:30 15.15 52000 101000 (1973) 10200 (1971) 39100 13700 14700 18800 20400 35100 52900 57500 71400 79700
2026-05-03 05:00 15.14 52300 101000 (1973) 10200 (1971) 39100 13700 14700 18800 20400 35100 52900 57500 71400 79700
2026-05-03 04:30 15.14 52300 101000 (1973) 10200 (1971) 39100 13700 14700 18800 20400 35100 52900 57500 71400 79700
2026-05-03 04:00 15.16 52000 101000 (1973) 10200 (1971) 39100 13700 14700 18800 20400 35100 52900 57500 71400 79700
2026-05-03 03:30 15.16 52200 101000 (1973) 10200 (1971) 39100 13700 14700 18800 20400 35100 52900 57500 71400 79700
2026-05-03 03:00 15.19 51800 101000 (1973) 10200 (1971) 39100 13700 14700 18800 20400 35100 52900 57500 71400 79700
2026-05-03 02:30 15.18 52000 101000 (1973) 10200 (1971) 39100 13700 14700 18800 20400 35100 52900 57500 71400 79700
2026-05-03 02:00 15.19 52000 101000 (1973) 10200 (1971) 39100 13700 14700 18800 20400 35100 52900 57500 71400 79700
2026-05-03 01:30 15.19 52200 101000 (1973) 10200 (1971) 39100 13700 14700 18800 20400 35100 52900 57500 71400 79700
2026-05-03 01:00 15.18 52300 101000 (1973) 10200 (1971) 39100 13700 14700 18800 20400 35100 52900 57500 71400 79700
2026-05-03 00:30 15.20 52000 101000 (1973) 10200 (1971) 39100 13700 14700 18800 20400 35100 52900 57500 71400 79700
2026-05-03 00:00 15.21 52100 101000 (1973) 10200 (1971) 39100 13700 14700 18800 20400 35100 52900 57500 71400 79700
2026-05-02 23:30 15.21 52100 101000 (1973) 10200 (1971) 39100 13700 14700 18800 20400 35100 52900 57500 71400 79700
2026-05-02 23:00 15.21 52100 101000 (1973) 10200 (1971) 39100 13700 14700 18800 20400 35100 52900 57500 71400 79700
2026-05-02 22:30 15.21 51900 101000 (2013) 10000 (1971) 38800 12600 15000 19600 21900 34200 50600 55100 68600 78800
2026-05-02 22:00 15.23 52000 101000 (2013) 10000 (1971) 38800 12600 15000 19600 21900 34200 50600 55100 68600 78800
2026-05-02 21:30 15.25 51800 101000 (2013) 10000 (1971) 38800 12600 15000 19600 21900 34200 50600 55100 68600 78800
2026-05-02 21:00 15.24 51900 101000 (2013) 10000 (1971) 38800 12600 15000 19600 21900 34200 50600 55100 68600 78800
2026-05-02 20:30 15.25 52000 101000 (2013) 10000 (1971) 38800 12600 15000 19600 21900 34200 50600 55100 68600 78800
2026-05-02 20:00 15.23 52300 101000 (2013) 10000 (1971) 38800 12600 15000 19600 21900 34200 50600 55100 68600 78800
2026-05-02 19:30 15.25 52100 101000 (2013) 10000 (1971) 38800 12600 15000 19600 21900 34200 50600 55100 68600 78800
2026-05-02 19:00 15.23 52300 101000 (2013) 10000 (1971) 38800 12600 15000 19600 21900 34200 50600 55100 68600 78800
2026-05-02 18:30 15.25 52100 101000 (2013) 10000 (1971) 38800 12600 15000 19600 21900 34200 50600 55100 68600 78800
2026-05-02 18:00 15.27 52200 101000 (2013) 10000 (1971) 38800 12600 15000 19600 21900 34200 50600 55100 68600 78800
2026-05-02 17:30 15.25 52400 101000 (2013) 10000 (1971) 38800 12600 15000 19600 21900 34200 50600 55100 68600 78800
2026-05-02 17:00 15.28 51800 101000 (2013) 10000 (1971) 38800 12600 15000 19600 21900 34200 50600 55100 68600 78800
2026-05-02 16:30 15.27 52400 101000 (2013) 10000 (1971) 38800 12600 15000 19600 21900 34200 50600 55100 68600 78800
2026-05-02 16:00 15.27 52100 101000 (2013) 10000 (1971) 38800 12600 15000 19600 21900 34200 50600 55100 68600 78800
2026-05-02 15:30 15.31 51600 101000 (2013) 10000 (1971) 38800 12600 15000 19600 21900 34200 50600 55100 68600 78800
2026-05-02 15:00 15.30 52100 101000 (2013) 10000 (1971) 38800 12600 15000 19600 21900 34200 50600 55100 68600 78800
2026-05-02 14:30 15.32 51700 101000 (2013) 10000 (1971) 38800 12600 15000 19600 21900 34200 50600 55100 68600 78800
2026-05-02 14:00 15.30 51900 101000 (2013) 10000 (1971) 38800 12600 15000 19600 21900 34200 50600 55100 68600 78800
2026-05-02 13:30 15.30 51900 101000 (2013) 10000 (1971) 38800 12600 15000 19600 21900 34200 50600 55100 68600 78800
2026-05-02 13:00 15.32 51800 101000 (2013) 10000 (1971) 38800 12600 15000 19600 21900 34200 50600 55100 68600 78800
2026-05-02 12:30 15.32 51800 101000 (2013) 10000 (1971) 38800 12600 15000 19600 21900 34200 50600 55100 68600 78800
2026-05-02 12:00 15.32 51800 101000 (2013) 10000 (1971) 38800 12600 15000 19600 21900 34200 50600 55100 68600 78800
2026-05-02 11:30 15.32 52000 101000 (2013) 10000 (1971) 38800 12600 15000 19600 21900 34200 50600 55100 68600 78800
2026-05-02 11:00 15.32 51700 101000 (2013) 10000 (1971) 38800 12600 15000 19600 21900 34200 50600 55100 68600 78800
2026-05-02 10:30 15.33 51700 101000 (2013) 10000 (1971) 38800 12600 15000 19600 21900 34200 50600 55100 68600 78800
2026-05-02 10:00 15.32 52000 101000 (2013) 10000 (1971) 38800 12600 15000 19600 21900 34200 50600 55100 68600 78800
2026-05-02 09:30 15.32 51800 101000 (2013) 10000 (1971) 38800 12600 15000 19600 21900 34200 50600 55100 68600 78800
2026-05-02 09:00 15.32 52000 101000 (2013) 10000 (1971) 38800 12600 15000 19600 21900 34200 50600 55100 68600 78800
2026-05-02 08:30 15.34 51800 101000 (2013) 10000 (1971) 38800 12600 15000 19600 21900 34200 50600 55100 68600 78800
2026-05-02 08:00 15.33 51700 101000 (2013) 10000 (1971) 38800 12600 15000 19600 21900 34200 50600 55100 68600 78800
2026-05-02 07:30 15.34 51800 101000 (2013) 10000 (1971) 38800 12600 15000 19600 21900 34200 50600 55100 68600 78800
2026-05-02 07:00 15.37 51100 101000 (2013) 10000 (1971) 38800 12600 15000 19600 21900 34200 50600 55100 68600 78800
2026-05-02 06:30 15.35 48700 101000 (2013) 10000 (1971) 38800 12600 15000 19600 21900 34200 50600 55100 68600 78800
2026-05-02 06:00 15.35 52000 101000 (2013) 10000 (1971) 38800 12600 15000 19600 21900 34200 50600 55100 68600 78800
2026-05-02 05:30 15.34 51500 101000 (2013) 10000 (1971) 38800 12600 15000 19600 21900 34200 50600 55100 68600 78800
2026-05-02 05:00 15.34 51600 101000 (2013) 10000 (1971) 38800 12600 15000 19600 21900 34200 50600 55100 68600 78800
2026-05-02 04:30 15.36 51400 101000 (2013) 10000 (1971) 38800 12600 15000 19600 21900 34200 50600 55100 68600 78800
2026-05-02 04:00 15.37 51400 101000 (2013) 10000 (1971) 38800 12600 15000 19600 21900 34200 50600 55100 68600 78800
2026-05-02 03:30 15.38 51200 101000 (2013) 10000 (1971) 38800 12600 15000 19600 21900 34200 50600 55100 68600 78800
2026-05-02 03:00 15.38 51000 101000 (2013) 10000 (1971) 38800 12600 15000 19600 21900 34200 50600 55100 68600 78800
2026-05-02 02:30 15.36 51400 101000 (2013) 10000 (1971) 38800 12600 15000 19600 21900 34200 50600 55100 68600 78800
2026-05-02 02:00 15.36 51200 101000 (2013) 10000 (1971) 38800 12600 15000 19600 21900 34200 50600 55100 68600 78800
2026-05-02 01:30 15.36 51400 101000 (2013) 10000 (1971) 38800 12600 15000 19600 21900 34200 50600 55100 68600 78800
2026-05-02 01:00 15.37 51300 101000 (2013) 10000 (1971) 38800 12600 15000 19600 21900 34200 50600 55100 68600 78800
2026-05-02 00:30 15.37 51100 101000 (2013) 10000 (1971) 38800 12600 15000 19600 21900 34200 50600 55100 68600 78800
2026-05-02 00:00 15.34 51300 101000 (2013) 10000 (1971) 38800 12600 15000 19600 21900 34200 50600 55100 68600 78800
2026-05-01 23:30 15.38 51000 101000 (2013) 10000 (1971) 38800 12600 15000 19600 21900 34200 50600 55100 68600 78800
2026-05-01 23:00 15.36 51200 101000 (2013) 10000 (1971) 38800 12600 15000 19600 21900 34200 50600 55100 68600 78800
2026-05-01 22:30 15.38 51000 104000 (2013) 9530 (1940) 38900 11600 14800 20100 22800 34600 49900 53600 67100 79300
2026-05-01 22:00 15.36 51200 104000 (2013) 9530 (1940) 38900 11600 14800 20100 22800 34600 49900 53600 67100 79300
2026-05-01 21:30 15.37 51100 104000 (2013) 9530 (1940) 38900 11600 14800 20100 22800 34600 49900 53600 67100 79300
2026-05-01 21:00 15.38 51000 104000 (2013) 9530 (1940) 38900 11600 14800 20100 22800 34600 49900 53600 67100 79300
2026-05-01 20:30 15.37 50900 104000 (2013) 9530 (1940) 38900 11600 14800 20100 22800 34600 49900 53600 67100 79300
2026-05-01 20:00 15.36 51100 104000 (2013) 9530 (1940) 38900 11600 14800 20100 22800 34600 49900 53600 67100 79300
2026-05-01 19:30 15.36 51100 104000 (2013) 9530 (1940) 38900 11600 14800 20100 22800 34600 49900 53600 67100 79300
2026-05-01 19:00 15.35 51200 104000 (2013) 9530 (1940) 38900 11600 14800 20100 22800 34600 49900 53600 67100 79300
2026-05-01 18:30 15.35 51000 104000 (2013) 9530 (1940) 38900 11600 14800 20100 22800 34600 49900 53600 67100 79300
2026-05-01 18:00 15.36 50900 104000 (2013) 9530 (1940) 38900 11600 14800 20100 22800 34600 49900 53600 67100 79300
2026-05-01 17:30 15.35 50800 104000 (2013) 9530 (1940) 38900 11600 14800 20100 22800 34600 49900 53600 67100 79300
2026-05-01 17:00 15.37 50800 104000 (2013) 9530 (1940) 38900 11600 14800 20100 22800 34600 49900 53600 67100 79300
2026-05-01 16:30 15.34 49600 104000 (2013) 9530 (1940) 38900 11600 14800 20100 22800 34600 49900 53600 67100 79300
2026-05-01 16:00 15.33 51100 104000 (2013) 9530 (1940) 38900 11600 14800 20100 22800 34600 49900 53600 67100 79300
2026-05-01 15:30 15.33 51100 104000 (2013) 9530 (1940) 38900 11600 14800 20100 22800 34600 49900 53600 67100 79300
2026-05-01 15:00 15.35 50700 104000 (2013) 9530 (1940) 38900 11600 14800 20100 22800 34600 49900 53600 67100 79300
2026-05-01 14:30 15.34 50800 104000 (2013) 9530 (1940) 38900 11600 14800 20100 22800 34600 49900 53600 67100 79300
2026-05-01 14:00 15.34 50800 104000 (2013) 9530 (1940) 38900 11600 14800 20100 22800 34600 49900 53600 67100 79300
2026-05-01 13:30 15.34 50800 104000 (2013) 9530 (1940) 38900 11600 14800 20100 22800 34600 49900 53600 67100 79300
2026-05-01 13:00 15.29 51400 104000 (2013) 9530 (1940) 38900 11600 14800 20100 22800 34600 49900 53600 67100 79300
2026-05-01 12:30 15.34 50600 104000 (2013) 9530 (1940) 38900 11600 14800 20100 22800 34600 49900 53600 67100 79300
2026-05-01 12:00 15.30 51300 104000 (2013) 9530 (1940) 38900 11600 14800 20100 22800 34600 49900 53600 67100 79300
2026-05-01 11:30 15.34 50600 104000 (2013) 9530 (1940) 38900 11600 14800 20100 22800 34600 49900 53600 67100 79300
2026-05-01 11:00 15.32 50900 104000 (2013) 9530 (1940) 38900 11600 14800 20100 22800 34600 49900 53600 67100 79300
2026-05-01 10:30 15.31 50700 104000 (2013) 9530 (1940) 38900 11600 14800 20100 22800 34600 49900 53600 67100 79300
2026-05-01 10:00 15.30 51100 104000 (2013) 9530 (1940) 38900 11600 14800 20100 22800 34600 49900 53600 67100 79300
2026-05-01 09:30 15.32 50900 104000 (2013) 9530 (1940) 38900 11600 14800 20100 22800 34600 49900 53600 67100 79300
2026-05-01 09:00 15.30 50600 104000 (2013) 9530 (1940) 38900 11600 14800 20100 22800 34600 49900 53600 67100 79300
2026-05-01 08:30 15.30 50600 104000 (2013) 9530 (1940) 38900 11600 14800 20100 22800 34600 49900 53600 67100 79300
2026-05-01 08:00 15.28 51000 104000 (2013) 9530 (1940) 38900 11600 14800 20100 22800 34600 49900 53600 67100 79300
2026-05-01 07:30 15.30 49400 104000 (2013) 9530 (1940) 38900 11600 14800 20100 22800 34600 49900 53600 67100 79300
2026-05-01 07:00 15.29 50900 104000 (2013) 9530 (1940) 38900 11600 14800 20100 22800 34600 49900 53600 67100 79300
2026-05-01 06:30 15.28 50700 104000 (2013) 9530 (1940) 38900 11600 14800 20100 22800 34600 49900 53600 67100 79300
2026-05-01 06:00 15.27 50600 104000 (2013) 9530 (1940) 38900 11600 14800 20100 22800 34600 49900 53600 67100 79300
2026-05-01 05:30 15.28 50500 104000 (2013) 9530 (1940) 38900 11600 14800 20100 22800 34600 49900 53600 67100 79300
2026-05-01 05:00 15.30 50300 104000 (2013) 9530 (1940) 38900 11600 14800 20100 22800 34600 49900 53600 67100 79300
2026-05-01 04:30 15.29 50200 104000 (2013) 9530 (1940) 38900 11600 14800 20100 22800 34600 49900 53600 67100 79300
2026-05-01 04:00 15.28 50300 104000 (2013) 9530 (1940) 38900 11600 14800 20100 22800 34600 49900 53600 67100 79300
2026-05-01 03:30 15.27 50500 104000 (2013) 9530 (1940) 38900 11600 14800 20100 22800 34600 49900 53600 67100 79300
2026-05-01 03:00 15.27 50300 104000 (2013) 9530 (1940) 38900 11600 14800 20100 22800 34600 49900 53600 67100 79300
2026-05-01 02:30 15.26 50400 104000 (2013) 9530 (1940) 38900 11600 14800 20100 22800 34600 49900 53600 67100 79300
2026-05-01 02:00 15.25 50500 104000 (2013) 9530 (1940) 38900 11600 14800 20100 22800 34600 49900 53600 67100 79300
2026-05-01 01:30 15.26 50200 104000 (2013) 9530 (1940) 38900 11600 14800 20100 22800 34600 49900 53600 67100 79300
2026-05-01 01:00 15.23 50600 104000 (2013) 9530 (1940) 38900 11600 14800 20100 22800 34600 49900 53600 67100 79300
2026-05-01 00:30 15.23 50400 104000 (2013) 9530 (1940) 38900 11600 14800 20100 22800 34600 49900 53600 67100 79300
2026-05-01 00:00 15.23 50400 104000 (2013) 9530 (1940) 38900 11600 14800 20100 22800 34600 49900 53600 67100 79300
2026-04-30 23:30 15.23 50400 104000 (2013) 9530 (1940) 38900 11600 14800 20100 22800 34600 49900 53600 67100 79300
2026-04-30 23:00 15.22 50500 104000 (2013) 9530 (1940) 38900 11600 14800 20100 22800 34600 49900 53600 67100 79300
2026-04-30 22:30 15.22 50400 107000 (2013) 9460 (1940) 38900 11700 13600 20200 22700 34900 49600 53400 68100 81500
2026-04-30 22:00 15.20 50400 107000 (2013) 9460 (1940) 38900 11700 13600 20200 22700 34900 49600 53400 68100 81500
2026-04-30 21:30 15.21 50300 107000 (2013) 9460 (1940) 38900 11700 13600 20200 22700 34900 49600 53400 68100 81500
2026-04-30 21:00 15.21 50300 107000 (2013) 9460 (1940) 38900 11700 13600 20200 22700 34900 49600 53400 68100 81500
2026-04-30 20:30 15.22 50200 107000 (2013) 9460 (1940) 38900 11700 13600 20200 22700 34900 49600 53400 68100 81500
2026-04-30 20:00 15.22 50100 107000 (2013) 9460 (1940) 38900 11700 13600 20200 22700 34900 49600 53400 68100 81500
2026-04-30 19:30 15.21 50000 107000 (2013) 9460 (1940) 38900 11700 13600 20200 22700 34900 49600 53400 68100 81500
2026-04-30 19:00 15.20 50300 107000 (2013) 9460 (1940) 38900 11700 13600 20200 22700 34900 49600 53400 68100 81500
2026-04-30 18:30 15.19 50600 107000 (2013) 9460 (1940) 38900 11700 13600 20200 22700 34900 49600 53400 68100 81500
2026-04-30 18:00 15.21 50000 107000 (2013) 9460 (1940) 38900 11700 13600 20200 22700 34900 49600 53400 68100 81500
2026-04-30 17:30 15.19 49900 107000 (2013) 9460 (1940) 38900 11700 13600 20200 22700 34900 49600 53400 68100 81500
2026-04-30 17:00 15.17 50200 107000 (2013) 9460 (1940) 38900 11700 13600 20200 22700 34900 49600 53400 68100 81500
2026-04-30 16:30 15.16 50100 107000 (2013) 9460 (1940) 38900 11700 13600 20200 22700 34900 49600 53400 68100 81500
2026-04-30 16:00 15.17 50000 107000 (2013) 9460 (1940) 38900 11700 13600 20200 22700 34900 49600 53400 68100 81500
2026-04-30 15:30 15.17 49800 107000 (2013) 9460 (1940) 38900 11700 13600 20200 22700 34900 49600 53400 68100 81500
2026-04-30 15:00 15.18 49700 107000 (2013) 9460 (1940) 38900 11700 13600 20200 22700 34900 49600 53400 68100 81500
2026-04-30 14:30 15.17 49700 107000 (2013) 9460 (1940) 38900 11700 13600 20200 22700 34900 49600 53400 68100 81500
2026-04-30 14:00 15.15 49900 107000 (2013) 9460 (1940) 38900 11700 13600 20200 22700 34900 49600 53400 68100 81500
2026-04-30 13:30 15.15 49800 107000 (2013) 9460 (1940) 38900 11700 13600 20200 22700 34900 49600 53400 68100 81500
2026-04-30 13:00 15.13 50000 107000 (2013) 9460 (1940) 38900 11700 13600 20200 22700 34900 49600 53400 68100 81500
2026-04-30 12:30 15.12 50000 107000 (2013) 9460 (1940) 38900 11700 13600 20200 22700 34900 49600 53400 68100 81500
2026-04-30 12:00 15.13 50000 107000 (2013) 9460 (1940) 38900 11700 13600 20200 22700 34900 49600 53400 68100 81500
2026-04-30 11:30 15.12 49800 107000 (2013) 9460 (1940) 38900 11700 13600 20200 22700 34900 49600 53400 68100 81500
2026-04-30 11:00 15.10 50200 107000 (2013) 9460 (1940) 38900 11700 13600 20200 22700 34900 49600 53400 68100 81500
2026-04-30 10:30 15.09 50200 107000 (2013) 9460 (1940) 38900 11700 13600 20200 22700 34900 49600 53400 68100 81500
2026-04-30 10:00 15.10 49700 107000 (2013) 9460 (1940) 38900 11700 13600 20200 22700 34900 49600 53400 68100 81500
2026-04-30 09:30 15.09 49800 107000 (2013) 9460 (1940) 38900 11700 13600 20200 22700 34900 49600 53400 68100 81500
2026-04-30 09:00 15.10 49600 107000 (2013) 9460 (1940) 38900 11700 13600 20200 22700 34900 49600 53400 68100 81500
2026-04-30 08:30 15.07 49800 107000 (2013) 9460 (1940) 38900 11700 13600 20200 22700 34900 49600 53400 68100 81500
2026-04-30 08:00 15.08 49500 107000 (2013) 9460 (1940) 38900 11700 13600 20200 22700 34900 49600 53400 68100 81500
2026-04-30 07:30 15.07 49400 107000 (2013) 9460 (1940) 38900 11700 13600 20200 22700 34900 49600 53400 68100 81500
2026-04-30 07:00 15.06 49600 107000 (2013) 9460 (1940) 38900 11700 13600 20200 22700 34900 49600 53400 68100 81500
2026-04-30 06:30 15.04 49600 107000 (2013) 9460 (1940) 38900 11700 13600 20200 22700 34900 49600 53400 68100 81500
2026-04-30 06:00 15.03 49600 107000 (2013) 9460 (1940) 38900 11700 13600 20200 22700 34900 49600 53400 68100 81500
2026-04-30 05:30 15.02 49600 107000 (2013) 9460 (1940) 38900 11700 13600 20200 22700 34900 49600 53400 68100 81500
2026-04-30 05:00 15.00 49800 107000 (2013) 9460 (1940) 38900 11700 13600 20200 22700 34900 49600 53400 68100 81500
2026-04-30 04:30 15.01 49500 107000 (2013) 9460 (1940) 38900 11700 13600 20200 22700 34900 49600 53400 68100 81500
2026-04-30 04:00 15.00 49500 107000 (2013) 9460 (1940) 38900 11700 13600 20200 22700 34900 49600 53400 68100 81500
2026-04-30 03:30 14.99 49400 107000 (2013) 9460 (1940) 38900 11700 13600 20200 22700 34900 49600 53400 68100 81500
2026-04-30 03:00 14.99 49400 107000 (2013) 9460 (1940) 38900 11700 13600 20200 22700 34900 49600 53400 68100 81500
2026-04-30 02:30 14.96 49600 107000 (2013) 9460 (1940) 38900 11700 13600 20200 22700 34900 49600 53400 68100 81500
2026-04-30 02:00 14.96 49500 107000 (2013) 9460 (1940) 38900 11700 13600 20200 22700 34900 49600 53400 68100 81500
2026-04-30 01:30 14.98 49100 107000 (2013) 9460 (1940) 38900 11700 13600 20200 22700 34900 49600 53400 68100 81500
2026-04-30 01:00 14.95 49400 107000 (2013) 9460 (1940) 38900 11700 13600 20200 22700 34900 49600 53400 68100 81500
2026-04-30 00:30 14.94 49400 107000 (2013) 9460 (1940) 38900 11700 13600 20200 22700 34900 49600 53400 68100 81500
2026-04-30 00:00 14.92 49600 107000 (2013) 9460 (1940) 38900 11700 13600 20200 22700 34900 49600 53400 68100 81500
2026-04-29 23:30 14.92 49500 107000 (2013) 9460 (1940) 38900 11700 13600 20200 22700 34900 49600 53400 68100 81500
2026-04-29 23:00 14.92 49500 107000 (2013) 9460 (1940) 38900 11700 13600 20200 22700 34900 49600 53400 68100 81500
2026-04-29 22:30 14.92 49200 110000 (2013) 9780 (1986) 38800 10700 12500 19700 22600 36000 49700 52100 68800 81000
2026-04-29 22:00 14.91 49300 110000 (2013) 9780 (1986) 38800 10700 12500 19700 22600 36000 49700 52100 68800 81000
2026-04-29 21:30 14.89 49700 110000 (2013) 9780 (1986) 38800 10700 12500 19700 22600 36000 49700 52100 68800 81000
2026-04-29 21:00 14.88 49500 110000 (2013) 9780 (1986) 38800 10700 12500 19700 22600 36000 49700 52100 68800 81000
2026-04-29 20:30 14.88 49500 110000 (2013) 9780 (1986) 38800 10700 12500 19700 22600 36000 49700 52100 68800 81000
2026-04-29 20:00 14.86 49500 110000 (2013) 9780 (1986) 38800 10700 12500 19700 22600 36000 49700 52100 68800 81000
2026-04-29 19:30 14.88 49500 110000 (2013) 9780 (1986) 38800 10700 12500 19700 22600 36000 49700 52100 68800 81000
2026-04-29 19:00 14.86 49700 110000 (2013) 9780 (1986) 38800 10700 12500 19700 22600 36000 49700 52100 68800 81000
2026-04-29 18:30 14.85 49500 110000 (2013) 9780 (1986) 38800 10700 12500 19700 22600 36000 49700 52100 68800 81000
2026-04-29 18:00 14.85 49500 110000 (2013) 9780 (1986) 38800 10700 12500 19700 22600 36000 49700 52100 68800 81000
2026-04-29 17:30 14.85 49300 110000 (2013) 9780 (1986) 38800 10700 12500 19700 22600 36000 49700 52100 68800 81000
2026-04-29 17:00 14.85 49200 110000 (2013) 9780 (1986) 38800 10700 12500 19700 22600 36000 49700 52100 68800 81000
2026-04-29 16:30 14.83 49400 110000 (2013) 9780 (1986) 38800 10700 12500 19700 22600 36000 49700 52100 68800 81000
2026-04-29 16:00 14.83 49300 110000 (2013) 9780 (1986) 38800 10700 12500 19700 22600 36000 49700 52100 68800 81000
2026-04-29 15:30 14.81 49500 110000 (2013) 9780 (1986) 38800 10700 12500 19700 22600 36000 49700 52100 68800 81000
2026-04-29 15:00 14.83 49100 110000 (2013) 9780 (1986) 38800 10700 12500 19700 22600 36000 49700 52100 68800 81000
2026-04-29 14:30 14.81 49500 110000 (2013) 9780 (1986) 38800 10700 12500 19700 22600 36000 49700 52100 68800 81000
2026-04-29 14:00 14.79 49400 110000 (2013) 9780 (1986) 38800 10700 12500 19700 22600 36000 49700 52100 68800 81000
2026-04-29 13:30 14.81 49300 110000 (2013) 9780 (1986) 38800 10700 12500 19700 22600 36000 49700 52100 68800 81000
2026-04-29 13:00 14.79 49400 110000 (2013) 9780 (1986) 38800 10700 12500 19700 22600 36000 49700 52100 68800 81000
2026-04-29 12:30 14.79 49400 110000 (2013) 9780 (1986) 38800 10700 12500 19700 22600 36000 49700 52100 68800 81000
2026-04-29 12:00 14.78 49400 110000 (2013) 9780 (1986) 38800 10700 12500 19700 22600 36000 49700 52100 68800 81000
2026-04-29 11:30 14.78 49400 110000 (2013) 9780 (1986) 38800 10700 12500 19700 22600 36000 49700 52100 68800 81000
2026-04-29 11:00 14.77 49300 110000 (2013) 9780 (1986) 38800 10700 12500 19700 22600 36000 49700 52100 68800 81000
2026-04-29 10:30 14.76 49400 110000 (2013) 9780 (1986) 38800 10700 12500 19700 22600 36000 49700 52100 68800 81000
2026-04-29 10:00 14.77 49200 110000 (2013) 9780 (1986) 38800 10700 12500 19700 22600 36000 49700 52100 68800 81000
2026-04-29 09:30 14.76 49400 110000 (2013) 9780 (1986) 38800 10700 12500 19700 22600 36000 49700 52100 68800 81000
2026-04-29 09:00 14.76 49300 110000 (2013) 9780 (1986) 38800 10700 12500 19700 22600 36000 49700 52100 68800 81000
2026-04-29 08:30 14.76 49100 110000 (2013) 9780 (1986) 38800 10700 12500 19700 22600 36000 49700 52100 68800 81000
2026-04-29 08:00 14.75 49100 110000 (2013) 9780 (1986) 38800 10700 12500 19700 22600 36000 49700 52100 68800 81000
2026-04-29 07:30 14.74 49200 110000 (2013) 9780 (1986) 38800 10700 12500 19700 22600 36000 49700 52100 68800 81000
2026-04-29 07:00 14.73 49300 110000 (2013) 9780 (1986) 38800 10700 12500 19700 22600 36000 49700 52100 68800 81000
2026-04-29 06:30 14.73 49000 110000 (2013) 9780 (1986) 38800 10700 12500 19700 22600 36000 49700 52100 68800 81000
2026-04-29 06:00 14.72 49100 110000 (2013) 9780 (1986) 38800 10700 12500 19700 22600 36000 49700 52100 68800 81000
2026-04-29 05:30 14.72 49000 110000 (2013) 9780 (1986) 38800 10700 12500 19700 22600 36000 49700 52100 68800 81000
2026-04-29 05:00 14.72 49000 110000 (2013) 9780 (1986) 38800 10700 12500 19700 22600 36000 49700 52100 68800 81000
2026-04-29 04:30 14.72 48800 110000 (2013) 9780 (1986) 38800 10700 12500 19700 22600 36000 49700 52100 68800 81000
2026-04-29 04:00 14.72 48800 110000 (2013) 9780 (1986) 38800 10700 12500 19700 22600 36000 49700 52100 68800 81000
2026-04-29 03:30 14.72 48600 110000 (2013) 9780 (1986) 38800 10700 12500 19700 22600 36000 49700 52100 68800 81000
2026-04-29 03:00 14.70 48900 110000 (2013) 9780 (1986) 38800 10700 12500 19700 22600 36000 49700 52100 68800 81000
2026-04-29 02:30 14.69 49000 110000 (2013) 9780 (1986) 38800 10700 12500 19700 22600 36000 49700 52100 68800 81000
2026-04-29 02:00 14.70 48900 110000 (2013) 9780 (1986) 38800 10700 12500 19700 22600 36000 49700 52100 68800 81000
2026-04-29 01:30 14.69 48700 110000 (2013) 9780 (1986) 38800 10700 12500 19700 22600 36000 49700 52100 68800 81000
2026-04-29 01:00 14.69 48800 110000 (2013) 9780 (1986) 38800 10700 12500 19700 22600 36000 49700 52100 68800 81000
2026-04-29 00:30 14.69 48500 110000 (2013) 9780 (1986) 38800 10700 12500 19700 22600 36000 49700 52100 68800 81000
2026-04-29 00:00 14.64 48800 110000 (2013) 9780 (1986) 38800 10700 12500 19700 22600 36000 49700 52100 68800 81000
2026-04-28 23:30 14.69 48400 110000 (2013) 9780 (1986) 38800 10700 12500 19700 22600 36000 49700 52100 68800 81000
2026-04-28 23:00 14.67 48600 110000 (2013) 9780 (1986) 38800 10700 12500 19700 22600 36000 49700 52100 68800 81000
2026-04-28 22:30 14.68 48300 111000 (2013) 9720 (1956) 38700 10700 13200 20200 23100 35600 49100 52900 65000 81400
2026-04-28 22:00 14.66 48200 111000 (2013) 9720 (1956) 38700 10700 13200 20200 23100 35600 49100 52900 65000 81400
2026-04-28 21:30 14.67 48100 111000 (2013) 9720 (1956) 38700 10700 13200 20200 23100 35600 49100 52900 65000 81400
2026-04-28 21:00 14.64 48300 111000 (2013) 9720 (1956) 38700 10700 13200 20200 23100 35600 49100 52900 65000 81400
2026-04-28 20:30 14.65 48000 111000 (2013) 9720 (1956) 38700 10700 13200 20200 23100 35600 49100 52900 65000 81400
2026-04-28 20:00 14.66 47900 111000 (2013) 9720 (1956) 38700 10700 13200 20200 23100 35600 49100 52900 65000 81400
2026-04-28 19:30 14.63 48100 111000 (2013) 9720 (1956) 38700 10700 13200 20200 23100 35600 49100 52900 65000 81400
2026-04-28 19:00 14.63 48000 111000 (2013) 9720 (1956) 38700 10700 13200 20200 23100 35600 49100 52900 65000 81400
2026-04-28 18:30 14.50 48900 111000 (2013) 9720 (1956) 38700 10700 13200 20200 23100 35600 49100 52900 65000 81400
2026-04-28 18:00 14.61 48200 111000 (2013) 9720 (1956) 38700 10700 13200 20200 23100 35600 49100 52900 65000 81400
2026-04-28 17:30 14.62 47600 111000 (2013) 9720 (1956) 38700 10700 13200 20200 23100 35600 49100 52900 65000 81400
2026-04-28 17:00 14.61 47600 111000 (2013) 9720 (1956) 38700 10700 13200 20200 23100 35600 49100 52900 65000 81400
2026-04-28 16:30 14.61 47400 111000 (2013) 9720 (1956) 38700 10700 13200 20200 23100 35600 49100 52900 65000 81400
2026-04-28 16:00 14.59 47300 111000 (2013) 9720 (1956) 38700 10700 13200 20200 23100 35600 49100 52900 65000 81400
2026-04-28 15:30 14.58 47300 111000 (2013) 9720 (1956) 38700 10700 13200 20200 23100 35600 49100 52900 65000 81400
2026-04-28 15:00 14.58 47100 111000 (2013) 9720 (1956) 38700 10700 13200 20200 23100 35600 49100 52900 65000 81400
2026-04-28 14:30 14.57 46900 111000 (2013) 9720 (1956) 38700 10700 13200 20200 23100 35600 49100 52900 65000 81400
2026-04-28 14:00 14.58 46800 111000 (2013) 9720 (1956) 38700 10700 13200 20200 23100 35600 49100 52900 65000 81400
2026-04-28 13:30 14.56 46900 111000 (2013) 9720 (1956) 38700 10700 13200 20200 23100 35600 49100 52900 65000 81400
2026-04-28 13:00 14.53 47100 111000 (2013) 9720 (1956) 38700 10700 13200 20200 23100 35600 49100 52900 65000 81400
2026-04-28 12:30 14.53 46800 111000 (2013) 9720 (1956) 38700 10700 13200 20200 23100 35600 49100 52900 65000 81400
2026-04-28 12:00 14.51 46900 111000 (2013) 9720 (1956) 38700 10700 13200 20200 23100 35600 49100 52900 65000 81400
2026-04-28 11:30 14.50 47000 111000 (2013) 9720 (1956) 38700 10700 13200 20200 23100 35600 49100 52900 65000 81400
2026-04-28 11:00 14.50 46300 111000 (2013) 9720 (1956) 38700 10700 13200 20200 23100 35600 49100 52900 65000 81400
2026-04-28 10:30 14.49 46200 111000 (2013) 9720 (1956) 38700 10700 13200 20200 23100 35600 49100 52900 65000 81400
2026-04-28 10:00 14.47 46100 111000 (2013) 9720 (1956) 38700 10700 13200 20200 23100 35600 49100 52900 65000 81400
2026-04-28 09:30 14.47 46200 111000 (2013) 9720 (1956) 38700 10700 13200 20200 23100 35600 49100 52900 65000 81400
2026-04-28 09:00 14.44 46300 111000 (2013) 9720 (1956) 38700 10700 13200 20200 23100 35600 49100 52900 65000 81400
2026-04-28 08:30 14.42 46300 111000 (2013) 9720 (1956) 38700 10700 13200 20200 23100 35600 49100 52900 65000 81400
2026-04-28 08:00 14.41 46000 111000 (2013) 9720 (1956) 38700 10700 13200 20200 23100 35600 49100 52900 65000 81400
2026-04-28 07:30 14.41 46000 111000 (2013) 9720 (1956) 38700 10700 13200 20200 23100 35600 49100 52900 65000 81400
2026-04-28 07:00 14.31 46900 111000 (2013) 9720 (1956) 38700 10700 13200 20200 23100 35600 49100 52900 65000 81400
2026-04-28 06:30 14.39 45700 111000 (2013) 9720 (1956) 38700 10700 13200 20200 23100 35600 49100 52900 65000 81400
2026-04-28 06:00 14.38 45900 111000 (2013) 9720 (1956) 38700 10700 13200 20200 23100 35600 49100 52900 65000 81400
2026-04-28 05:30 14.33 46300 111000 (2013) 9720 (1956) 38700 10700 13200 20200 23100 35600 49100 52900 65000 81400
2026-04-28 05:00 14.37 45700 111000 (2013) 9720 (1956) 38700 10700 13200 20200 23100 35600 49100 52900 65000 81400
2026-04-28 04:30 14.36 45500 111000 (2013) 9720 (1956) 38700 10700 13200 20200 23100 35600 49100 52900 65000 81400
2026-04-28 04:00 14.37 45200 111000 (2013) 9720 (1956) 38700 10700 13200 20200 23100 35600 49100 52900 65000 81400
2026-04-28 03:30 14.38 44600 111000 (2013) 9720 (1956) 38700 10700 13200 20200 23100 35600 49100 52900 65000 81400
2026-04-28 03:00 14.37 44600 111000 (2013) 9720 (1956) 38700 10700 13200 20200 23100 35600 49100 52900 65000 81400
2026-04-28 02:30 14.39 44300 111000 (2013) 9720 (1956) 38700 10700 13200 20200 23100 35600 49100 52900 65000 81400
2026-04-28 02:00 14.39 44000 111000 (2013) 9720 (1956) 38700 10700 13200 20200 23100 35600 49100 52900 65000 81400
2026-04-28 01:30 14.36 44200 111000 (2013) 9720 (1956) 38700 10700 13200 20200 23100 35600 49100 52900 65000 81400
2026-04-28 01:00 14.36 43700 111000 (2013) 9720 (1956) 38700 10700 13200 20200 23100 35600 49100 52900 65000 81400
2026-04-28 00:30 14.39 43200 111000 (2013) 9720 (1956) 38700 10700 13200 20200 23100 35600 49100 52900 65000 81400
2026-04-28 00:00 14.36 43200 111000 (2013) 9720 (1956) 38700 10700 13200 20200 23100 35600 49100 52900 65000 81400
2026-04-27 23:30 14.33 43100 111000 (2013) 9720 (1956) 38700 10700 13200 20200 23100 35600 49100 52900 65000 81400
2026-04-27 23:00 14.29 43100 111000 (2013) 9720 (1956) 38700 10700 13200 20200 23100 35600 49100 52900 65000 81400
2026-04-27 22:30 14.27 43200 111000 (2013) 7880 (1956) 38700 10600 13800 20800 22000 34800 51100 52900 64200 83100
2026-04-27 22:00 14.23 43700 111000 (2013) 7880 (1956) 38700 10600 13800 20800 22000 34800 51100 52900 64200 83100
2026-04-27 21:30 14.17 43900 111000 (2013) 7880 (1956) 38700 10600 13800 20800 22000 34800 51100 52900 64200 83100
2026-04-27 21:00 14.14 44100 111000 (2013) 7880 (1956) 38700 10600 13800 20800 22000 34800 51100 52900 64200 83100
2026-04-27 20:30 14.07 44300 111000 (2013) 7880 (1956) 38700 10600 13800 20800 22000 34800 51100 52900 64200 83100
2026-04-27 20:00 14.01 44400 111000 (2013) 7880 (1956) 38700 10600 13800 20800 22000 34800 51100 52900 64200 83100
2026-04-27 19:30 13.92 45000 111000 (2013) 7880 (1956) 38700 10600 13800 20800 22000 34800 51100 52900 64200 83100
2026-04-27 19:00 13.91 44800 111000 (2013) 7880 (1956) 38700 10600 13800 20800 22000 34800 51100 52900 64200 83100
2026-04-27 18:30 13.87 44700 111000 (2013) 7880 (1956) 38700 10600 13800 20800 22000 34800 51100 52900 64200 83100
2026-04-27 18:00 13.75 111000 (2013) 7880 (1956) 38700 10600 13800 20800 22000 34800 51100 52900 64200 83100
2026-04-27 17:30 13.74 111000 (2013) 7880 (1956) 38700 10600 13800 20800 22000 34800 51100 52900 64200 83100
2026-04-27 17:00 13.71 44700 111000 (2013) 7880 (1956) 38700 10600 13800 20800 22000 34800 51100 52900 64200 83100
2026-04-27 16:30 13.72 44200 111000 (2013) 7880 (1956) 38700 10600 13800 20800 22000 34800 51100 52900 64200 83100
2026-04-27 16:00 13.69 44200 111000 (2013) 7880 (1956) 38700 10600 13800 20800 22000 34800 51100 52900 64200 83100
2026-04-27 15:30 13.67 44100 111000 (2013) 7880 (1956) 38700 10600 13800 20800 22000 34800 51100 52900 64200 83100
2026-04-27 15:00 13.66 44200 111000 (2013) 7880 (1956) 38700 10600 13800 20800 22000 34800 51100 52900 64200 83100
2026-04-27 14:30 13.65 44000 111000 (2013) 7880 (1956) 38700 10600 13800 20800 22000 34800 51100 52900 64200 83100
2026-04-27 14:00 13.66 44100 111000 (2013) 7880 (1956) 38700 10600 13800 20800 22000 34800 51100 52900 64200 83100
2026-04-27 13:30 13.64 44200 111000 (2013) 7880 (1956) 38700 10600 13800 20800 22000 34800 51100 52900 64200 83100
2026-04-27 13:00 13.63 44200 111000 (2013) 7880 (1956) 38700 10600 13800 20800 22000 34800 51100 52900 64200 83100
2026-04-27 12:30 13.62 44200 111000 (2013) 7880 (1956) 38700 10600 13800 20800 22000 34800 51100 52900 64200 83100
2026-04-27 12:00 13.64 43700 111000 (2013) 7880 (1956) 38700 10600 13800 20800 22000 34800 51100 52900 64200 83100
2026-04-27 11:30 13.58 44300 111000 (2013) 7880 (1956) 38700 10600 13800 20800 22000 34800 51100 52900 64200 83100
2026-04-27 11:00 13.51 111000 (2013) 7880 (1956) 38700 10600 13800 20800 22000 34800 51100 52900 64200 83100
2026-04-27 10:30 13.48 111000 (2013) 7880 (1956) 38700 10600 13800 20800 22000 34800 51100 52900 64200 83100
2026-04-27 10:00 13.46 111000 (2013) 7880 (1956) 38700 10600 13800 20800 22000 34800 51100 52900 64200 83100
2026-04-27 09:30 13.47 111000 (2013) 7880 (1956) 38700 10600 13800 20800 22000 34800 51100 52900 64200 83100
2026-04-27 09:00 13.45 44800 111000 (2013) 7880 (1956) 38700 10600 13800 20800 22000 34800 51100 52900 64200 83100
2026-04-27 08:30 13.35 45900 111000 (2013) 7880 (1956) 38700 10600 13800 20800 22000 34800 51100 52900 64200 83100
2026-04-27 08:00 13.44 45800 111000 (2013) 7880 (1956) 38700 10600 13800 20800 22000 34800 51100 52900 64200 83100
2026-04-27 07:30 13.49 47000 111000 (2013) 7880 (1956) 38700 10600 13800 20800 22000 34800 51100 52900 64200 83100
2026-04-27 07:00 13.51 111000 (2013) 7880 (1956) 38700 10600 13800 20800 22000 34800 51100 52900 64200 83100
2026-04-27 06:30 13.44 47600 111000 (2013) 7880 (1956) 38700 10600 13800 20800 22000 34800 51100 52900 64200 83100
2026-04-27 06:00 13.43 47600 111000 (2013) 7880 (1956) 38700 10600 13800 20800 22000 34800 51100 52900 64200 83100
2026-04-27 05:30 13.45 45900 111000 (2013) 7880 (1956) 38700 10600 13800 20800 22000 34800 51100 52900 64200 83100
2026-04-27 05:00 13.42 47500 111000 (2013) 7880 (1956) 38700 10600 13800 20800 22000 34800 51100 52900 64200 83100
2026-04-27 04:30 13.41 47900 111000 (2013) 7880 (1956) 38700 10600 13800 20800 22000 34800 51100 52900 64200 83100
2026-04-27 04:00 13.40 48500 111000 (2013) 7880 (1956) 38700 10600 13800 20800 22000 34800 51100 52900 64200 83100
2026-04-27 03:30 13.40 48800 111000 (2013) 7880 (1956) 38700 10600 13800 20800 22000 34800 51100 52900 64200 83100
2026-04-27 03:00 13.39 48200 111000 (2013) 7880 (1956) 38700 10600 13800 20800 22000 34800 51100 52900 64200 83100
2026-04-27 02:30 13.20 50300 111000 (2013) 7880 (1956) 38700 10600 13800 20800 22000 34800 51100 52900 64200 83100
2026-04-27 02:00 13.43 47700 111000 (2013) 7880 (1956) 38700 10600 13800 20800 22000 34800 51100 52900 64200 83100
2026-04-27 01:30 13.45 47600 111000 (2013) 7880 (1956) 38700 10600 13800 20800 22000 34800 51100 52900 64200 83100
2026-04-27 01:00 13.45 47600 111000 (2013) 7880 (1956) 38700 10600 13800 20800 22000 34800 51100 52900 64200 83100
2026-04-27 00:30 13.45 47800 111000 (2013) 7880 (1956) 38700 10600 13800 20800 22000 34800 51100 52900 64200 83100
2026-04-27 00:00 13.46 47600 111000 (2013) 7880 (1956) 38700 10600 13800 20800 22000 34800 51100 52900 64200 83100
2026-04-26 23:30 13.45 47800 111000 (2013) 7880 (1956) 38700 10600 13800 20800 22000 34800 51100 52900 64200 83100
2026-04-26 23:00 13.45 47800 111000 (2013) 7880 (1956) 38700 10600 13800 20800 22000 34800 51100 52900 64200 83100
2026-04-26 22:30 13.46 47800 110000 (2013) 7370 (1956) 38700 11500 13600 20300 23000 34700 50900 52600 66300 85800
2026-04-26 22:00 13.47 47800 110000 (2013) 7370 (1956) 38700 11500 13600 20300 23000 34700 50900 52600 66300 85800
2026-04-26 21:30 13.46 47900 110000 (2013) 7370 (1956) 38700 11500 13600 20300 23000 34700 50900 52600 66300 85800
2026-04-26 21:00 13.45 48100 110000 (2013) 7370 (1956) 38700 11500 13600 20300 23000 34700 50900 52600 66300 85800
2026-04-26 20:30 13.43 48400 110000 (2013) 7370 (1956) 38700 11500 13600 20300 23000 34700 50900 52600 66300 85800
2026-04-26 20:00 13.47 48000 110000 (2013) 7370 (1956) 38700 11500 13600 20300 23000 34700 50900 52600 66300 85800
2026-04-26 19:30 13.47 48000 110000 (2013) 7370 (1956) 38700 11500 13600 20300 23000 34700 50900 52600 66300 85800
2026-04-26 19:00 13.50 47600 110000 (2013) 7370 (1956) 38700 11500 13600 20300 23000 34700 50900 52600 66300 85800
2026-04-26 18:30 13.48 47800 110000 (2013) 7370 (1956) 38700 11500 13600 20300 23000 34700 50900 52600 66300 85800
2026-04-26 18:00 13.48 47800 110000 (2013) 7370 (1956) 38700 11500 13600 20300 23000 34700 50900 52600 66300 85800
2026-04-26 17:30 13.49 47700 110000 (2013) 7370 (1956) 38700 11500 13600 20300 23000 34700 50900 52600 66300 85800
2026-04-26 17:00 13.50 47500 110000 (2013) 7370 (1956) 38700 11500 13600 20300 23000 34700 50900 52600 66300 85800
2026-04-26 16:30 13.49 47700 110000 (2013) 7370 (1956) 38700 11500 13600 20300 23000 34700 50900 52600 66300 85800
2026-04-26 16:00 13.51 47500 110000 (2013) 7370 (1956) 38700 11500 13600 20300 23000 34700 50900 52600 66300 85800
2026-04-26 15:30 13.50 47800 110000 (2013) 7370 (1956) 38700 11500 13600 20300 23000 34700 50900 52600 66300 85800
2026-04-26 15:00 13.51 47600 110000 (2013) 7370 (1956) 38700 11500 13600 20300 23000 34700 50900 52600 66300 85800
2026-04-26 14:30 13.49 48000 110000 (2013) 7370 (1956) 38700 11500 13600 20300 23000 34700 50900 52600 66300 85800
2026-04-26 14:00 13.49 47900 110000 (2013) 7370 (1956) 38700 11500 13600 20300 23000 34700 50900 52600 66300 85800
2026-04-26 13:30 13.51 47600 110000 (2013) 7370 (1956) 38700 11500 13600 20300 23000 34700 50900 52600 66300 85800
2026-04-26 13:00 13.52 47500 110000 (2013) 7370 (1956) 38700 11500 13600 20300 23000 34700 50900 52600 66300 85800
2026-04-26 12:30 13.51 47800 110000 (2013) 7370 (1956) 38700 11500 13600 20300 23000 34700 50900 52600 66300 85800
2026-04-26 12:00 13.51 47800 110000 (2013) 7370 (1956) 38700 11500 13600 20300 23000 34700 50900 52600 66300 85800
2026-04-26 11:30 13.50 47900 110000 (2013) 7370 (1956) 38700 11500 13600 20300 23000 34700 50900 52600 66300 85800
2026-04-26 11:00 13.50 47900 110000 (2013) 7370 (1956) 38700 11500 13600 20300 23000 34700 50900 52600 66300 85800
2026-04-26 10:30 13.50 47900 110000 (2013) 7370 (1956) 38700 11500 13600 20300 23000 34700 50900 52600 66300 85800
2026-04-26 10:00 13.49 48200 110000 (2013) 7370 (1956) 38700 11500 13600 20300 23000 34700 50900 52600 66300 85800
2026-04-26 09:30 13.48 48300 110000 (2013) 7370 (1956) 38700 11500 13600 20300 23000 34700 50900 52600 66300 85800
2026-04-26 09:00 13.43 48800 110000 (2013) 7370 (1956) 38700 11500 13600 20300 23000 34700 50900 52600 66300 85800
2026-04-26 08:30 13.49 48200 110000 (2013) 7370 (1956) 38700 11500 13600 20300 23000 34700 50900 52600 66300 85800
2026-04-26 08:00 13.50 47900 110000 (2013) 7370 (1956) 38700 11500 13600 20300 23000 34700 50900 52600 66300 85800
2026-04-26 07:30 13.49 48200 110000 (2013) 7370 (1956) 38700 11500 13600 20300 23000 34700 50900 52600 66300 85800
2026-04-26 07:00 13.48 48300 110000 (2013) 7370 (1956) 38700 11500 13600 20300 23000 34700 50900 52600 66300 85800
2026-04-26 06:30 13.51 47900 110000 (2013) 7370 (1956) 38700 11500 13600 20300 23000 34700 50900 52600 66300 85800
2026-04-26 06:00 13.49 48300 110000 (2013) 7370 (1956) 38700 11500 13600 20300 23000 34700 50900 52600 66300 85800
2026-04-26 05:30 13.50 48000 110000 (2013) 7370 (1956) 38700 11500 13600 20300 23000 34700 50900 52600 66300 85800
2026-04-26 05:00 13.49 48300 110000 (2013) 7370 (1956) 38700 11500 13600 20300 23000 34700 50900 52600 66300 85800
2026-04-26 04:30 13.52 48200 110000 (2013) 7370 (1956) 38700 11500 13600 20300 23000 34700 50900 52600 66300 85800
2026-04-26 04:00 13.52 47800 110000 (2013) 7370 (1956) 38700 11500 13600 20300 23000 34700 50900 52600 66300 85800
2026-04-26 03:30 13.51 48200 110000 (2013) 7370 (1956) 38700 11500 13600 20300 23000 34700 50900 52600 66300 85800
2026-04-26 03:00 13.52 48200 110000 (2013) 7370 (1956) 38700 11500 13600 20300 23000 34700 50900 52600 66300 85800
2026-04-26 02:30 13.53 47800 110000 (2013) 7370 (1956) 38700 11500 13600 20300 23000 34700 50900 52600 66300 85800
2026-04-26 02:00 13.52 48100 110000 (2013) 7370 (1956) 38700 11500 13600 20300 23000 34700 50900 52600 66300 85800
2026-04-26 01:30 13.53 48100 110000 (2013) 7370 (1956) 38700 11500 13600 20300 23000 34700 50900 52600 66300 85800
2026-04-26 01:00 13.53 48000 110000 (2013) 7370 (1956) 38700 11500 13600 20300 23000 34700 50900 52600 66300 85800
2026-04-26 00:30 13.53 48100 110000 (2013) 7370 (1956) 38700 11500 13600 20300 23000 34700 50900 52600 66300 85800
2026-04-26 00:00 13.53 48100 110000 (2013) 7370 (1956) 38700 11500 13600 20300 23000 34700 50900 52600 66300 85800
2026-04-25 23:30 13.52 48100 110000 (2013) 7370 (1956) 38700 11500 13600 20300 23000 34700 50900 52600 66300 85800
2026-04-25 23:00 13.54 48200 110000 (2013) 7370 (1956) 38700 11500 13600 20300 23000 34700 50900 52600 66300 85800
2026-04-25 22:30 13.53 48100 110000 (2013) 6960 (1956) 38800 12100 13500 20600 24200 34700 49600 52000 68100 83400
2026-04-25 22:00 13.51 48400 110000 (2013) 6960 (1956) 38800 12100 13500 20600 24200 34700 49600 52000 68100 83400
2026-04-25 21:30 13.53 48300 110000 (2013) 6960 (1956) 38800 12100 13500 20600 24200 34700 49600 52000 68100 83400
2026-04-25 21:00 13.54 48200 110000 (2013) 6960 (1956) 38800 12100 13500 20600 24200 34700 49600 52000 68100 83400
2026-04-25 20:30 13.55 48000 110000 (2013) 6960 (1956) 38800 12100 13500 20600 24200 34700 49600 52000 68100 83400
2026-04-25 20:00 13.54 48300 110000 (2013) 6960 (1956) 38800 12100 13500 20600 24200 34700 49600 52000 68100 83400
2026-04-25 19:30 13.55 47900 110000 (2013) 6960 (1956) 38800 12100 13500 20600 24200 34700 49600 52000 68100 83400
2026-04-25 19:00 13.54 48300 110000 (2013) 6960 (1956) 38800 12100 13500 20600 24200 34700 49600 52000 68100 83400
2026-04-25 18:30 13.54 48300 110000 (2013) 6960 (1956) 38800 12100 13500 20600 24200 34700 49600 52000 68100 83400
2026-04-25 18:00 13.55 48200 110000 (2013) 6960 (1956) 38800 12100 13500 20600 24200 34700 49600 52000 68100 83400
2026-04-25 17:30 13.55 48200 110000 (2013) 6960 (1956) 38800 12100 13500 20600 24200 34700 49600 52000 68100 83400
2026-04-25 17:00 13.56 48100 110000 (2013) 6960 (1956) 38800 12100 13500 20600 24200 34700 49600 52000 68100 83400
2026-04-25 16:30 13.55 48200 110000 (2013) 6960 (1956) 38800 12100 13500 20600 24200 34700 49600 52000 68100 83400
2026-04-25 16:00 13.54 48200 110000 (2013) 6960 (1956) 38800 12100 13500 20600 24200 34700 49600 52000 68100 83400
2026-04-25 15:30 13.56 48100 110000 (2013) 6960 (1956) 38800 12100 13500 20600 24200 34700 49600 52000 68100 83400
2026-04-25 15:00 13.56 48100 110000 (2013) 6960 (1956) 38800 12100 13500 20600 24200 34700 49600 52000 68100 83400
2026-04-25 14:30 13.54 48400 110000 (2013) 6960 (1956) 38800 12100 13500 20600 24200 34700 49600 52000 68100 83400
2026-04-25 14:00 13.53 48500 110000 (2013) 6960 (1956) 38800 12100 13500 20600 24200 34700 49600 52000 68100 83400
2026-04-25 13:30 13.56 48200 110000 (2013) 6960 (1956) 38800 12100 13500 20600 24200 34700 49600 52000 68100 83400
2026-04-25 13:00 13.55 48200 110000 (2013) 6960 (1956) 38800 12100 13500 20600 24200 34700 49600 52000 68100 83400
2026-04-25 12:30 13.55 48300 110000 (2013) 6960 (1956) 38800 12100 13500 20600 24200 34700 49600 52000 68100 83400
2026-04-25 12:00 13.53 48500 110000 (2013) 6960 (1956) 38800 12100 13500 20600 24200 34700 49600 52000 68100 83400
2026-04-25 11:30 13.53 48500 110000 (2013) 6960 (1956) 38800 12100 13500 20600 24200 34700 49600 52000 68100 83400
2026-04-25 11:00 13.55 48200 110000 (2013) 6960 (1956) 38800 12100 13500 20600 24200 34700 49600 52000 68100 83400
2026-04-25 10:30 13.54 48300 110000 (2013) 6960 (1956) 38800 12100 13500 20600 24200 34700 49600 52000 68100 83400
2026-04-25 10:00 13.54 48400 110000 (2013) 6960 (1956) 38800 12100 13500 20600 24200 34700 49600 52000 68100 83400
2026-04-25 09:30 13.55 48300 110000 (2013) 6960 (1956) 38800 12100 13500 20600 24200 34700 49600 52000 68100 83400
2026-04-25 09:00 13.53 48400 110000 (2013) 6960 (1956) 38800 12100 13500 20600 24200 34700 49600 52000 68100 83400
2026-04-25 08:30 13.55 48200 110000 (2013) 6960 (1956) 38800 12100 13500 20600 24200 34700 49600 52000 68100 83400
2026-04-25 08:00 13.54 48300 110000 (2013) 6960 (1956) 38800 12100 13500 20600 24200 34700 49600 52000 68100 83400
2026-04-25 07:30 13.52 48500 110000 (2013) 6960 (1956) 38800 12100 13500 20600 24200 34700 49600 52000 68100 83400
2026-04-25 07:00 13.56 48100 110000 (2013) 6960 (1956) 38800 12100 13500 20600 24200 34700 49600 52000 68100 83400
2026-04-25 06:30 13.56 48100 110000 (2013) 6960 (1956) 38800 12100 13500 20600 24200 34700 49600 52000 68100 83400
2026-04-25 06:00 13.55 48200 110000 (2013) 6960 (1956) 38800 12100 13500 20600 24200 34700 49600 52000 68100 83400
2026-04-25 05:30 13.54 48300 110000 (2013) 6960 (1956) 38800 12100 13500 20600 24200 34700 49600 52000 68100 83400
2026-04-25 05:00 13.54 48300 110000 (2013) 6960 (1956) 38800 12100 13500 20600 24200 34700 49600 52000 68100 83400
2026-04-25 04:30 13.55 48200 110000 (2013) 6960 (1956) 38800 12100 13500 20600 24200 34700 49600 52000 68100 83400
2026-04-25 04:00 13.57 48000 110000 (2013) 6960 (1956) 38800 12100 13500 20600 24200 34700 49600 52000 68100 83400
2026-04-25 03:30 13.55 48300 110000 (2013) 6960 (1956) 38800 12100 13500 20600 24200 34700 49600 52000 68100 83400
2026-04-25 03:00 13.57 48300 110000 (2013) 6960 (1956) 38800 12100 13500 20600 24200 34700 49600 52000 68100 83400
2026-04-25 02:30 13.57 48300 110000 (2013) 6960 (1956) 38800 12100 13500 20600 24200 34700 49600 52000 68100 83400
2026-04-25 02:00 13.57 48100 110000 (2013) 6960 (1956) 38800 12100 13500 20600 24200 34700 49600 52000 68100 83400
2026-04-25 01:30 13.57 48300 110000 (2013) 6960 (1956) 38800 12100 13500 20600 24200 34700 49600 52000 68100 83400
2026-04-25 01:00 13.56 48500 110000 (2013) 6960 (1956) 38800 12100 13500 20600 24200 34700 49600 52000 68100 83400
2026-04-25 00:30 13.55 48500 110000 (2013) 6960 (1956) 38800 12100 13500 20600 24200 34700 49600 52000 68100 83400
2026-04-25 00:00 13.56 48500 110000 (2013) 6960 (1956) 38800 12100 13500 20600 24200 34700 49600 52000 68100 83400
2026-04-24 23:30 13.54 48600 110000 (2013) 6960 (1956) 38800 12100 13500 20600 24200 34700 49600 52000 68100 83400
2026-04-24 23:00 13.56 48500 110000 (2013) 6960 (1956) 38800 12100 13500 20600 24200 34700 49600 52000 68100 83400
2026-04-24 22:30 13.55 48800 110000 (2013) 6880 (1956) 38700 12200 14000 20800 24200 35300 49300 52100 69200 84200
2026-04-24 22:00 13.55 48600 110000 (2013) 6880 (1956) 38700 12200 14000 20800 24200 35300 49300 52100 69200 84200
2026-04-24 21:30 13.57 48100 110000 (2013) 6880 (1956) 38700 12200 14000 20800 24200 35300 49300 52100 69200 84200
2026-04-24 21:00 13.58 48300 110000 (2013) 6880 (1956) 38700 12200 14000 20800 24200 35300 49300 52100 69200 84200
2026-04-24 20:30 13.57 48400 110000 (2013) 6880 (1956) 38700 12200 14000 20800 24200 35300 49300 52100 69200 84200
2026-04-24 20:00 13.58 48300 110000 (2013) 6880 (1956) 38700 12200 14000 20800 24200 35300 49300 52100 69200 84200
2026-04-24 19:30 13.56 48500 110000 (2013) 6880 (1956) 38700 12200 14000 20800 24200 35300 49300 52100 69200 84200
2026-04-24 19:00 13.57 48300 110000 (2013) 6880 (1956) 38700 12200 14000 20800 24200 35300 49300 52100 69200 84200
2026-04-24 18:30 13.58 48300 110000 (2013) 6880 (1956) 38700 12200 14000 20800 24200 35300 49300 52100 69200 84200
2026-04-24 18:00 13.57 48600 110000 (2013) 6880 (1956) 38700 12200 14000 20800 24200 35300 49300 52100 69200 84200
2026-04-24 17:30 13.57 48600 110000 (2013) 6880 (1956) 38700 12200 14000 20800 24200 35300 49300 52100 69200 84200
2026-04-24 17:00 13.59 48300 110000 (2013) 6880 (1956) 38700 12200 14000 20800 24200 35300 49300 52100 69200 84200
2026-04-24 16:30 13.60 48400 110000 (2013) 6880 (1956) 38700 12200 14000 20800 24200 35300 49300 52100 69200 84200
2026-04-24 16:00 13.61 48400 110000 (2013) 6880 (1956) 38700 12200 14000 20800 24200 35300 49300 52100 69200 84200
2026-04-24 15:30 13.57 48700 110000 (2013) 6880 (1956) 38700 12200 14000 20800 24200 35300 49300 52100 69200 84200
2026-04-24 15:00 13.58 48600 110000 (2013) 6880 (1956) 38700 12200 14000 20800 24200 35300 49300 52100 69200 84200
2026-04-24 14:30 13.59 48500 110000 (2013) 6880 (1956) 38700 12200 14000 20800 24200 35300 49300 52100 69200 84200
2026-04-24 14:00 13.60 48400 110000 (2013) 6880 (1956) 38700 12200 14000 20800 24200 35300 49300 52100 69200 84200
2026-04-24 13:30 13.59 48500 110000 (2013) 6880 (1956) 38700 12200 14000 20800 24200 35300 49300 52100 69200 84200
2026-04-24 13:00 13.59 48600 110000 (2013) 6880 (1956) 38700 12200 14000 20800 24200 35300 49300 52100 69200 84200
2026-04-24 12:30 13.60 48400 110000 (2013) 6880 (1956) 38700 12200 14000 20800 24200 35300 49300 52100 69200 84200
2026-04-24 12:00 13.59 48500 110000 (2013) 6880 (1956) 38700 12200 14000 20800 24200 35300 49300 52100 69200 84200
2026-04-24 11:30 13.60 48400 110000 (2013) 6880 (1956) 38700 12200 14000 20800 24200 35300 49300 52100 69200 84200
2026-04-24 11:00 13.60 48400 110000 (2013) 6880 (1956) 38700 12200 14000 20800 24200 35300 49300 52100 69200 84200
2026-04-24 10:30 13.61 48400 110000 (2013) 6880 (1956) 38700 12200 14000 20800 24200 35300 49300 52100 69200 84200
2026-04-24 10:00 13.61 48100 110000 (2013) 6880 (1956) 38700 12200 14000 20800 24200 35300 49300 52100 69200 84200
2026-04-24 09:30 13.60 48400 110000 (2013) 6880 (1956) 38700 12200 14000 20800 24200 35300 49300 52100 69200 84200
2026-04-24 09:00 13.61 48400 110000 (2013) 6880 (1956) 38700 12200 14000 20800 24200 35300 49300 52100 69200 84200
2026-04-24 08:30 13.58 48600 110000 (2013) 6880 (1956) 38700 12200 14000 20800 24200 35300 49300 52100 69200 84200
2026-04-24 08:00 13.61 48400 110000 (2013) 6880 (1956) 38700 12200 14000 20800 24200 35300 49300 52100 69200 84200
2026-04-24 07:30 13.57 48800 110000 (2013) 6880 (1956) 38700 12200 14000 20800 24200 35300 49300 52100 69200 84200
2026-04-24 07:00 13.59 48600 110000 (2013) 6880 (1956) 38700 12200 14000 20800 24200 35300 49300 52100 69200 84200
2026-04-24 06:30 13.61 48400 110000 (2013) 6880 (1956) 38700 12200 14000 20800 24200 35300 49300 52100 69200 84200
2026-04-24 06:00 13.61 48300 110000 (2013) 6880 (1956) 38700 12200 14000 20800 24200 35300 49300 52100 69200 84200
2026-04-24 05:30 13.59 48600 110000 (2013) 6880 (1956) 38700 12200 14000 20800 24200 35300 49300 52100 69200 84200
2026-04-24 05:00 13.58 48900 110000 (2013) 6880 (1956) 38700 12200 14000 20800 24200 35300 49300 52100 69200 84200
2026-04-24 04:30 13.61 48400 110000 (2013) 6880 (1956) 38700 12200 14000 20800 24200 35300 49300 52100 69200 84200
2026-04-24 04:00 13.60 48500 110000 (2013) 6880 (1956) 38700 12200 14000 20800 24200 35300 49300 52100 69200 84200
2026-04-24 03:30 13.57 49000 110000 (2013) 6880 (1956) 38700 12200 14000 20800 24200 35300 49300 52100 69200 84200
2026-04-24 03:00 13.58 48600 110000 (2013) 6880 (1956) 38700 12200 14000 20800 24200 35300 49300 52100 69200 84200
2026-04-24 02:30 13.59 48500 110000 (2013) 6880 (1956) 38700 12200 14000 20800 24200 35300 49300 52100 69200 84200
2026-04-24 02:00 13.60 48400 110000 (2013) 6880 (1956) 38700 12200 14000 20800 24200 35300 49300 52100 69200 84200
2026-04-24 01:30 13.59 48500 110000 (2013) 6880 (1956) 38700 12200 14000 20800 24200 35300 49300 52100 69200 84200
2026-04-24 01:00 13.60 48700 110000 (2013) 6880 (1956) 38700 12200 14000 20800 24200 35300 49300 52100 69200 84200
2026-04-24 00:30 13.58 48900 110000 (2013) 6880 (1956) 38700 12200 14000 20800 24200 35300 49300 52100 69200 84200
2026-04-24 00:00 13.59 48600 110000 (2013) 6880 (1956) 38700 12200 14000 20800 24200 35300 49300 52100 69200 84200
2026-04-23 23:30 13.59 48800 110000 (2013) 6880 (1956) 38700 12200 14000 20800 24200 35300 49300 52100 69200 84200
2026-04-23 23:00 13.60 48700 110000 (2013) 6880 (1956) 38700 12200 14000 20800 24200 35300 49300 52100 69200 84200
2026-04-23 22:30 13.58 48900 104000 (2013) 8000 (1956) 38600 11700 14300 19900 22400 35300 49700 52500 70400 85000
2026-04-23 22:00 13.60 48400 104000 (2013) 8000 (1956) 38600 11700 14300 19900 22400 35300 49700 52500 70400 85000
2026-04-23 21:30 13.33 51300 104000 (2013) 8000 (1956) 38600 11700 14300 19900 22400 35300 49700 52500 70400 85000
2026-04-23 21:00 13.62 48300 104000 (2013) 8000 (1956) 38600 11700 14300 19900 22400 35300 49700 52500 70400 85000
2026-04-23 20:30 13.64 48100 104000 (2013) 8000 (1956) 38600 11700 14300 19900 22400 35300 49700 52500 70400 85000
2026-04-23 20:00 13.65 48000 104000 (2013) 8000 (1956) 38600 11700 14300 19900 22400 35300 49700 52500 70400 85000
2026-04-23 19:30 13.64 48200 104000 (2013) 8000 (1956) 38600 11700 14300 19900 22400 35300 49700 52500 70400 85000
2026-04-23 19:00 13.66 48000 104000 (2013) 8000 (1956) 38600 11700 14300 19900 22400 35300 49700 52500 70400 85000
2026-04-23 18:30 13.64 48100 104000 (2013) 8000 (1956) 38600 11700 14300 19900 22400 35300 49700 52500 70400 85000
2026-04-23 18:00 13.64 48100 104000 (2013) 8000 (1956) 38600 11700 14300 19900 22400 35300 49700 52500 70400 85000
2026-04-23 17:30 13.63 48200 104000 (2013) 8000 (1956) 38600 11700 14300 19900 22400 35300 49700 52500 70400 85000
2026-04-23 17:00 13.64 48200 104000 (2013) 8000 (1956) 38600 11700 14300 19900 22400 35300 49700 52500 70400 85000
2026-04-23 16:30 13.63 48300 104000 (2013) 8000 (1956) 38600 11700 14300 19900 22400 35300 49700 52500 70400 85000
2026-04-23 16:00 13.64 48200 104000 (2013) 8000 (1956) 38600 11700 14300 19900 22400 35300 49700 52500 70400 85000
2026-04-23 15:30 13.63 48200 104000 (2013) 8000 (1956) 38600 11700 14300 19900 22400 35300 49700 52500 70400 85000
2026-04-23 15:00 13.63 48300 104000 (2013) 8000 (1956) 38600 11700 14300 19900 22400 35300 49700 52500 70400 85000
2026-04-23 14:30 13.63 48200 104000 (2013) 8000 (1956) 38600 11700 14300 19900 22400 35300 49700 52500 70400 85000
2026-04-23 14:00 13.63 48200 104000 (2013) 8000 (1956) 38600 11700 14300 19900 22400 35300 49700 52500 70400 85000
2026-04-23 13:30 13.62 48000 104000 (2013) 8000 (1956) 38600 11700 14300 19900 22400 35300 49700 52500 70400 85000
2026-04-23 13:00 13.63 48100 104000 (2013) 8000 (1956) 38600 11700 14300 19900 22400 35300 49700 52500 70400 85000
2026-04-23 12:30 13.61 48400 104000 (2013) 8000 (1956) 38600 11700 14300 19900 22400 35300 49700 52500 70400 85000
2026-04-23 12:00 13.64 47900 104000 (2013) 8000 (1956) 38600 11700 14300 19900 22400 35300 49700 52500 70400 85000
2026-04-23 11:30 13.61 48400 104000 (2013) 8000 (1956) 38600 11700 14300 19900 22400 35300 49700 52500 70400 85000
2026-04-23 11:00 13.59 48600 104000 (2013) 8000 (1956) 38600 11700 14300 19900 22400 35300 49700 52500 70400 85000
2026-04-23 10:30 13.61 48300 104000 (2013) 8000 (1956) 38600 11700 14300 19900 22400 35300 49700 52500 70400 85000
2026-04-23 10:00 13.62 48200 104000 (2013) 8000 (1956) 38600 11700 14300 19900 22400 35300 49700 52500 70400 85000
2026-04-23 09:30 13.60 51100 104000 (2013) 8000 (1956) 38600 11700 14300 19900 22400 35300 49700 52500 70400 85000
2026-04-23 09:00 13.61 51200 104000 (2013) 8000 (1956) 38600 11700 14300 19900 22400 35300 49700 52500 70400 85000
2026-04-23 08:30 13.61 51000 104000 (2013) 8000 (1956) 38600 11700 14300 19900 22400 35300 49700 52500 70400 85000
2026-04-23 08:00 13.60 50700 104000 (2013) 8000 (1956) 38600 11700 14300 19900 22400 35300 49700 52500 70400 85000
2026-04-23 07:30 13.58 51400 104000 (2013) 8000 (1956) 38600 11700 14300 19900 22400 35300 49700 52500 70400 85000
2026-04-23 07:00 13.59 51400 104000 (2013) 8000 (1956) 38600 11700 14300 19900 22400 35300 49700 52500 70400 85000
2026-04-23 06:30 13.59 51400 104000 (2013) 8000 (1956) 38600 11700 14300 19900 22400 35300 49700 52500 70400 85000
2026-04-23 06:00 13.59 51300 104000 (2013) 8000 (1956) 38600 11700 14300 19900 22400 35300 49700 52500 70400 85000
2026-04-23 05:30 13.55 51700 104000 (2013) 8000 (1956) 38600 11700 14300 19900 22400 35300 49700 52500 70400 85000
2026-04-23 05:00 13.58 51200 104000 (2013) 8000 (1956) 38600 11700 14300 19900 22400 35300 49700 52500 70400 85000
2026-04-23 04:30 13.58 51200 104000 (2013) 8000 (1956) 38600 11700 14300 19900 22400 35300 49700 52500 70400 85000
2026-04-23 04:00 13.57 51500 104000 (2013) 8000 (1956) 38600 11700 14300 19900 22400 35300 49700 52500 70400 85000
2026-04-23 03:30 13.60 51000 104000 (2013) 8000 (1956) 38600 11700 14300 19900 22400 35300 49700 52500 70400 85000
2026-04-23 03:00 13.58 51100 104000 (2013) 8000 (1956) 38600 11700 14300 19900 22400 35300 49700 52500 70400 85000
2026-04-23 02:30 13.58 51200 104000 (2013) 8000 (1956) 38600 11700 14300 19900 22400 35300 49700 52500 70400 85000
2026-04-23 02:00 13.59 51100 104000 (2013) 8000 (1956) 38600 11700 14300 19900 22400 35300 49700 52500 70400 85000
2026-04-23 01:30 13.60 51000 104000 (2013) 8000 (1956) 38600 11700 14300 19900 22400 35300 49700 52500 70400 85000
2026-04-23 01:00 13.60 51000 104000 (2013) 8000 (1956) 38600 11700 14300 19900 22400 35300 49700 52500 70400 85000
2026-04-23 00:30 13.58 51200 104000 (2013) 8000 (1956) 38600 11700 14300 19900 22400 35300 49700 52500 70400 85000
2026-04-23 00:00 13.58 51100 104000 (2013) 8000 (1956) 38600 11700 14300 19900 22400 35300 49700 52500 70400 85000
2026-04-22 23:30 13.57 51400 104000 (2013) 8000 (1956) 38600 11700 14300 19900 22400 35300 49700 52500 70400 85000
2026-04-22 23:00 13.57 51400 104000 (2013) 8000 (1956) 38600 11700 14300 19900 22400 35300 49700 52500 70400 85000
2026-04-22 22:30 13.56 51500 104000 (1979) 8200 (1956) 38300 12100 14100 19200 21900 35200 51000 51900 70500 84100
2026-04-22 22:00 13.56 51300 104000 (1979) 8200 (1956) 38300 12100 14100 19200 21900 35200 51000 51900 70500 84100
2026-04-22 21:30 13.56 51300 104000 (1979) 8200 (1956) 38300 12100 14100 19200 21900 35200 51000 51900 70500 84100
2026-04-22 21:00 13.57 51200 104000 (1979) 8200 (1956) 38300 12100 14100 19200 21900 35200 51000 51900 70500 84100
2026-04-22 20:30 13.55 51400 104000 (1979) 8200 (1956) 38300 12100 14100 19200 21900 35200 51000 51900 70500 84100
2026-04-22 20:00 13.55 51300 104000 (1979) 8200 (1956) 38300 12100 14100 19200 21900 35200 51000 51900 70500 84100
2026-04-22 19:30 13.57 51100 104000 (1979) 8200 (1956) 38300 12100 14100 19200 21900 35200 51000 51900 70500 84100
2026-04-22 19:00 13.55 51300 104000 (1979) 8200 (1956) 38300 12100 14100 19200 21900 35200 51000 51900 70500 84100
2026-04-22 18:30 13.50 51900 104000 (1979) 8200 (1956) 38300 12100 14100 19200 21900 35200 51000 51900 70500 84100
2026-04-22 18:00 13.54 51400 104000 (1979) 8200 (1956) 38300 12100 14100 19200 21900 35200 51000 51900 70500 84100
2026-04-22 17:30 13.50 51900 104000 (1979) 8200 (1956) 38300 12100 14100 19200 21900 35200 51000 51900 70500 84100
2026-04-22 17:00 13.52 51700 104000 (1979) 8200 (1956) 38300 12100 14100 19200 21900 35200 51000 51900 70500 84100
2026-04-22 16:30 13.50 51700 104000 (1979) 8200 (1956) 38300 12100 14100 19200 21900 35200 51000 51900 70500 84100
2026-04-22 16:00 13.51 51600 104000 (1979) 8200 (1956) 38300 12100 14100 19200 21900 35200 51000 51900 70500 84100
2026-04-22 15:30 13.48 52000 104000 (1979) 8200 (1956) 38300 12100 14100 19200 21900 35200 51000 51900 70500 84100
2026-04-22 15:00 13.49 51900 104000 (1979) 8200 (1956) 38300 12100 14100 19200 21900 35200 51000 51900 70500 84100
2026-04-22 14:30 13.50 51600 104000 (1979) 8200 (1956) 38300 12100 14100 19200 21900 35200 51000 51900 70500 84100
2026-04-22 14:00 13.51 51600 104000 (1979) 8200 (1956) 38300 12100 14100 19200 21900 35200 51000 51900 70500 84100
2026-04-22 13:30 13.49 51700 104000 (1979) 8200 (1956) 38300 12100 14100 19200 21900 35200 51000 51900 70500 84100
2026-04-22 13:00 13.48 51700 104000 (1979) 8200 (1956) 38300 12100 14100 19200 21900 35200 51000 51900 70500 84100
2026-04-22 12:30 13.49 51400 104000 (1979) 8200 (1956) 38300 12100 14100 19200 21900 35200 51000 51900 70500 84100
2026-04-22 12:00 13.49 51600 104000 (1979) 8200 (1956) 38300 12100 14100 19200 21900 35200 51000 51900 70500 84100
2026-04-22 11:30 13.49 51600 104000 (1979) 8200 (1956) 38300 12100 14100 19200 21900 35200 51000 51900 70500 84100
2026-04-22 11:00 13.49 51600 104000 (1979) 8200 (1956) 38300 12100 14100 19200 21900 35200 51000 51900 70500 84100
2026-04-22 10:30 13.47 51800 104000 (1979) 8200 (1956) 38300 12100 14100 19200 21900 35200 51000 51900 70500 84100
2026-04-22 10:00 13.47 51600 104000 (1979) 8200 (1956) 38300 12100 14100 19200 21900 35200 51000 51900 70500 84100
2026-04-22 09:30 13.48 51500 104000 (1979) 8200 (1956) 38300 12100 14100 19200 21900 35200 51000 51900 70500 84100
2026-04-22 09:00 13.47 51600 104000 (1979) 8200 (1956) 38300 12100 14100 19200 21900 35200 51000 51900 70500 84100
2026-04-22 08:30 13.48 51400 104000 (1979) 8200 (1956) 38300 12100 14100 19200 21900 35200 51000 51900 70500 84100
2026-04-22 08:00 13.48 51200 104000 (1979) 8200 (1956) 38300 12100 14100 19200 21900 35200 51000 51900 70500 84100
2026-04-22 07:30 13.47 51300 104000 (1979) 8200 (1956) 38300 12100 14100 19200 21900 35200 51000 51900 70500 84100
2026-04-22 07:00 13.47 51300 104000 (1979) 8200 (1956) 38300 12100 14100 19200 21900 35200 51000 51900 70500 84100
2026-04-22 06:30 13.46 51300 104000 (1979) 8200 (1956) 38300 12100 14100 19200 21900 35200 51000 51900 70500 84100
2026-04-22 06:00 13.46 51300 104000 (1979) 8200 (1956) 38300 12100 14100 19200 21900 35200 51000 51900 70500 84100
2026-04-22 05:30 13.43 51400 104000 (1979) 8200 (1956) 38300 12100 14100 19200 21900 35200 51000 51900 70500 84100
2026-04-22 05:00 13.46 51000 104000 (1979) 8200 (1956) 38300 12100 14100 19200 21900 35200 51000 51900 70500 84100
2026-04-22 04:30 13.44 51600 104000 (1979) 8200 (1956) 38300 12100 14100 19200 21900 35200 51000 51900 70500 84100
2026-04-22 04:00 13.42 51300 104000 (1979) 8200 (1956) 38300 12100 14100 19200 21900 35200 51000 51900 70500 84100
2026-04-22 03:30 13.41 51500 104000 (1979) 8200 (1956) 38300 12100 14100 19200 21900 35200 51000 51900 70500 84100
2026-04-22 03:00 13.41 51300 104000 (1979) 8200 (1956) 38300 12100 14100 19200 21900 35200 51000 51900 70500 84100
2026-04-22 02:30 13.41 51000 104000 (1979) 8200 (1956) 38300 12100 14100 19200 21900 35200 51000 51900 70500 84100
2026-04-22 02:00 13.39 51400 104000 (1979) 8200 (1956) 38300 12100 14100 19200 21900 35200 51000 51900 70500 84100
2026-04-22 01:30 13.40 51100 104000 (1979) 8200 (1956) 38300 12100 14100 19200 21900 35200 51000 51900 70500 84100
2026-04-22 01:00 13.40 51100 104000 (1979) 8200 (1956) 38300 12100 14100 19200 21900 35200 51000 51900 70500 84100
2026-04-22 00:30 13.40 51100 104000 (1979) 8200 (1956) 38300 12100 14100 19200 21900 35200 51000 51900 70500 84100
2026-04-22 00:00 13.39 51100 104000 (1979) 8200 (1956) 38300 12100 14100 19200 21900 35200 51000 51900 70500 84100
2026-04-21 23:30 13.39 51100 104000 (1979) 8200 (1956) 38300 12100 14100 19200 21900 35200 51000 51900 70500 84100
2026-04-21 23:00 13.39 51100 104000 (1979) 8200 (1956) 38300 12100 14100 19200 21900 35200 51000 51900 70500 84100
2026-04-21 22:30 13.38 51200 106000 (1979) 8160 (1956) 38100 11700 13600 20000 22100 35300 49500 52800 70200 79600
2026-04-21 22:00 13.37 51300 106000 (1979) 8160 (1956) 38100 11700 13600 20000 22100 35300 49500 52800 70200 79600
2026-04-21 21:30 13.37 51300 106000 (1979) 8160 (1956) 38100 11700 13600 20000 22100 35300 49500 52800 70200 79600
2026-04-21 21:00 13.34 51700 106000 (1979) 8160 (1956) 38100 11700 13600 20000 22100 35300 49500 52800 70200 79600
2026-04-21 20:30 13.36 51300 106000 (1979) 8160 (1956) 38100 11700 13600 20000 22100 35300 49500 52800 70200 79600
2026-04-21 20:00 13.36 51300 106000 (1979) 8160 (1956) 38100 11700 13600 20000 22100 35300 49500 52800 70200 79600
2026-04-21 19:30 13.33 51400 106000 (1979) 8160 (1956) 38100 11700 13600 20000 22100 35300 49500 52800 70200 79600
2026-04-21 19:00 13.32 51200 106000 (1979) 8160 (1956) 38100 11700 13600 20000 22100 35300 49500 52800 70200 79600
2026-04-21 18:30 13.32 51000 106000 (1979) 8160 (1956) 38100 11700 13600 20000 22100 35300 49500 52800 70200 79600
2026-04-21 18:00 13.31 50900 106000 (1979) 8160 (1956) 38100 11700 13600 20000 22100 35300 49500 52800 70200 79600
2026-04-21 17:30 13.31 51200 106000 (1979) 8160 (1956) 38100 11700 13600 20000 22100 35300 49500 52800 70200 79600
2026-04-21 17:00 13.30 51100 106000 (1979) 8160 (1956) 38100 11700 13600 20000 22100 35300 49500 52800 70200 79600
2026-04-21 16:30 13.28 51500 106000 (1979) 8160 (1956) 38100 11700 13600 20000 22100 35300 49500 52800 70200 79600
2026-04-21 16:00 13.29 51100 106000 (1979) 8160 (1956) 38100 11700 13600 20000 22100 35300 49500 52800 70200 79600
2026-04-21 15:30 13.28 51100 106000 (1979) 8160 (1956) 38100 11700 13600 20000 22100 35300 49500 52800 70200 79600
2026-04-21 15:00 13.28 51100 106000 (1979) 8160 (1956) 38100 11700 13600 20000 22100 35300 49500 52800 70200 79600
2026-04-21 14:30 13.29 50900 106000 (1979) 8160 (1956) 38100 11700 13600 20000 22100 35300 49500 52800 70200 79600
2026-04-21 14:00 13.30 50500 106000 (1979) 8160 (1956) 38100 11700 13600 20000 22100 35300 49500 52800 70200 79600
2026-04-21 13:30 13.27 50900 106000 (1979) 8160 (1956) 38100 11700 13600 20000 22100 35300 49500 52800 70200 79600
2026-04-21 13:00 13.30 50500 106000 (1979) 8160 (1956) 38100 11700 13600 20000 22100 35300 49500 52800 70200 79600
2026-04-21 12:30 13.27 50400 106000 (1979) 8160 (1956) 38100 11700 13600 20000 22100 35300 49500 52800 70200 79600
2026-04-21 12:00 13.27 50700 106000 (1979) 8160 (1956) 38100 11700 13600 20000 22100 35300 49500 52800 70200 79600
2026-04-21 11:30 13.25 50700 106000 (1979) 8160 (1956) 38100 11700 13600 20000 22100 35300 49500 52800 70200 79600
2026-04-21 11:00 13.23 50800 106000 (1979) 8160 (1956) 38100 11700 13600 20000 22100 35300 49500 52800 70200 79600
2026-04-21 10:30 13.23 50800 106000 (1979) 8160 (1956) 38100 11700 13600 20000 22100 35300 49500 52800 70200 79600
2026-04-21 10:00 13.23 50600 106000 (1979) 8160 (1956) 38100 11700 13600 20000 22100 35300 49500 52800 70200 79600
2026-04-21 09:30 13.22 50700 106000 (1979) 8160 (1956) 38100 11700 13600 20000 22100 35300 49500 52800 70200 79600
2026-04-21 09:00 13.20 50800 106000 (1979) 8160 (1956) 38100 11700 13600 20000 22100 35300 49500 52800 70200 79600
2026-04-21 08:30 13.22 50600 106000 (1979) 8160 (1956) 38100 11700 13600 20000 22100 35300 49500 52800 70200 79600
2026-04-21 08:00 13.21 50700 106000 (1979) 8160 (1956) 38100 11700 13600 20000 22100 35300 49500 52800 70200 79600
2026-04-21 07:30 13.21 50500 106000 (1979) 8160 (1956) 38100 11700 13600 20000 22100 35300 49500 52800 70200 79600
2026-04-21 07:00 13.21 50500 106000 (1979) 8160 (1956) 38100 11700 13600 20000 22100 35300 49500 52800 70200 79600
2026-04-21 06:30 13.21 50400 106000 (1979) 8160 (1956) 38100 11700 13600 20000 22100 35300 49500 52800 70200 79600
2026-04-21 06:00 13.19 50300 106000 (1979) 8160 (1956) 38100 11700 13600 20000 22100 35300 49500 52800 70200 79600
2026-04-21 05:30 13.20 50200 106000 (1979) 8160 (1956) 38100 11700 13600 20000 22100 35300 49500 52800 70200 79600
2026-04-21 05:00 13.19 50300 106000 (1979) 8160 (1956) 38100 11700 13600 20000 22100 35300 49500 52800 70200 79600
2026-04-21 04:30 13.18 50300 106000 (1979) 8160 (1956) 38100 11700 13600 20000 22100 35300 49500 52800 70200 79600
2026-04-21 04:00 13.17 50400 106000 (1979) 8160 (1956) 38100 11700 13600 20000 22100 35300 49500 52800 70200 79600
2026-04-21 03:30 13.17 50300 106000 (1979) 8160 (1956) 38100 11700 13600 20000 22100 35300 49500 52800 70200 79600
2026-04-21 03:00 13.15 50400 106000 (1979) 8160 (1956) 38100 11700 13600 20000 22100 35300 49500 52800 70200 79600
2026-04-21 02:30 13.15 50400 106000 (1979) 8160 (1956) 38100 11700 13600 20000 22100 35300 49500 52800 70200 79600
2026-04-21 02:00 13.15 50200 106000 (1979) 8160 (1956) 38100 11700 13600 20000 22100 35300 49500 52800 70200 79600
2026-04-21 01:30 13.13 50300 106000 (1979) 8160 (1956) 38100 11700 13600 20000 22100 35300 49500 52800 70200 79600
2026-04-21 01:00 13.14 50200 106000 (1979) 8160 (1956) 38100 11700 13600 20000 22100 35300 49500 52800 70200 79600
2026-04-21 00:30 13.14 50000 106000 (1979) 8160 (1956) 38100 11700 13600 20000 22100 35300 49500 52800 70200 79600
2026-04-21 00:00 13.13 50000 106000 (1979) 8160 (1956) 38100 11700 13600 20000 22100 35300 49500 52800 70200 79600
2026-04-20 23:30 13.13 49900 106000 (1979) 8160 (1956) 38100 11700 13600 20000 22100 35300 49500 52800 70200 79600
2026-04-20 23:00 13.11 50200 106000 (1979) 8160 (1956) 38100 11700 13600 20000 22100 35300 49500 52800 70200 79600
2026-04-20 22:30 13.10 50200 109000 (1979) 7670 (1956) 37900 12100 13100 18500 22300 34400 50800 53400 68100 76100
2026-04-20 22:00 13.11 49900 109000 (1979) 7670 (1956) 37900 12100 13100 18500 22300 34400 50800 53400 68100 76100
2026-04-20 21:30 13.10 49900 109000 (1979) 7670 (1956) 37900 12100 13100 18500 22300 34400 50800 53400 68100 76100
2026-04-20 21:00 13.09 49900 109000 (1979) 7670 (1956) 37900 12100 13100 18500 22300 34400 50800 53400 68100 76100
2026-04-20 20:30 13.09 49700 109000 (1979) 7670 (1956) 37900 12100 13100 18500 22300 34400 50800 53400 68100 76100
2026-04-20 20:00 13.08 49800 109000 (1979) 7670 (1956) 37900 12100 13100 18500 22300 34400 50800 53400 68100 76100
2026-04-20 19:30 13.07 49800 109000 (1979) 7670 (1956) 37900 12100 13100 18500 22300 34400 50800 53400 68100 76100
2026-04-20 19:00 13.06 49900 109000 (1979) 7670 (1956) 37900 12100 13100 18500 22300 34400 50800 53400 68100 76100
2026-04-20 18:30 13.06 49800 109000 (1979) 7670 (1956) 37900 12100 13100 18500 22300 34400 50800 53400 68100 76100
2026-04-20 18:00 13.07 49500 109000 (1979) 7670 (1956) 37900 12100 13100 18500 22300 34400 50800 53400 68100 76100
2026-04-20 17:30 13.05 49800 109000 (1979) 7670 (1956) 37900 12100 13100 18500 22300 34400 50800 53400 68100 76100
2026-04-20 17:00 13.03 49700 109000 (1979) 7670 (1956) 37900 12100 13100 18500 22300 34400 50800 53400 68100 76100
2026-04-20 16:30 13.02 50000 109000 (1979) 7670 (1956) 37900 12100 13100 18500 22300 34400 50800 53400 68100 76100
2026-04-20 16:00 13.02 50000 109000 (1979) 7670 (1956) 37900 12100 13100 18500 22300 34400 50800 53400 68100 76100
2026-04-20 15:30 13.01 49900 109000 (1979) 7670 (1956) 37900 12100 13100 18500 22300 34400 50800 53400 68100 76100
2026-04-20 15:00 13.01 49800 109000 (1979) 7670 (1956) 37900 12100 13100 18500 22300 34400 50800 53400 68100 76100
2026-04-20 14:30 13.01 49600 109000 (1979) 7670 (1956) 37900 12100 13100 18500 22300 34400 50800 53400 68100 76100
2026-04-20 14:00 13.00 49600 109000 (1979) 7670 (1956) 37900 12100 13100 18500 22300 34400 50800 53400 68100 76100
2026-04-20 13:30 13.00 49600 109000 (1979) 7670 (1956) 37900 12100 13100 18500 22300 34400 50800 53400 68100 76100
2026-04-20 13:00 12.98 49700 109000 (1979) 7670 (1956) 37900 12100 13100 18500 22300 34400 50800 53400 68100 76100
2026-04-20 12:30 12.97 49800 109000 (1979) 7670 (1956) 37900 12100 13100 18500 22300 34400 50800 53400 68100 76100
2026-04-20 12:00 12.96 49800 109000 (1979) 7670 (1956) 37900 12100 13100 18500 22300 34400 50800 53400 68100 76100
2026-04-20 11:30 12.97 49500 109000 (1979) 7670 (1956) 37900 12100 13100 18500 22300 34400 50800 53400 68100 76100
2026-04-20 11:00 12.95 49700 109000 (1979) 7670 (1956) 37900 12100 13100 18500 22300 34400 50800 53400 68100 76100
2026-04-20 10:30 12.95 49400 109000 (1979) 7670 (1956) 37900 12100 13100 18500 22300 34400 50800 53400 68100 76100
2026-04-20 10:00 12.91 49900 109000 (1979) 7670 (1956) 37900 12100 13100 18500 22300 34400 50800 53400 68100 76100
2026-04-20 09:30 12.92 49600 109000 (1979) 7670 (1956) 37900 12100 13100 18500 22300 34400 50800 53400 68100 76100
2026-04-20 09:00 12.89 49800 109000 (1979) 7670 (1956) 37900 12100 13100 18500 22300 34400 50800 53400 68100 76100
2026-04-20 08:30 12.91 49500 109000 (1979) 7670 (1956) 37900 12100 13100 18500 22300 34400 50800 53400 68100 76100
2026-04-20 08:00 12.90 49300 109000 (1979) 7670 (1956) 37900 12100 13100 18500 22300 34400 50800 53400 68100 76100
2026-04-20 07:30 12.88 49500 109000 (1979) 7670 (1956) 37900 12100 13100 18500 22300 34400 50800 53400 68100 76100
2026-04-20 07:00 12.88 49500 109000 (1979) 7670 (1956) 37900 12100 13100 18500 22300 34400 50800 53400 68100 76100
2026-04-20 06:30 12.87 109000 (1979) 7670 (1956) 37900 12100 13100 18500 22300 34400 50800 53400 68100 76100
2026-04-20 06:00 12.85 49700 109000 (1979) 7670 (1956) 37900 12100 13100 18500 22300 34400 50800 53400 68100 76100
2026-04-20 05:30 12.85 49600 109000 (1979) 7670 (1956) 37900 12100 13100 18500 22300 34400 50800 53400 68100 76100
2026-04-20 05:00 12.86 49500 109000 (1979) 7670 (1956) 37900 12100 13100 18500 22300 34400 50800 53400 68100 76100
2026-04-20 04:30 12.85 49400 109000 (1979) 7670 (1956) 37900 12100 13100 18500 22300 34400 50800 53400 68100 76100
2026-04-20 04:00 12.84 49400 109000 (1979) 7670 (1956) 37900 12100 13100 18500 22300 34400 50800 53400 68100 76100
2026-04-20 03:30 12.83 49400 109000 (1979) 7670 (1956) 37900 12100 13100 18500 22300 34400 50800 53400 68100 76100
2026-04-20 03:00 12.82 49500 109000 (1979) 7670 (1956) 37900 12100 13100 18500 22300 34400 50800 53400 68100 76100
2026-04-20 02:30 12.82 49300 109000 (1979) 7670 (1956) 37900 12100 13100 18500 22300 34400 50800 53400 68100 76100
2026-04-20 02:00 12.84 49200 109000 (1979) 7670 (1956) 37900 12100 13100 18500 22300 34400 50800 53400 68100 76100
2026-04-20 01:30 12.83 49200 109000 (1979) 7670 (1956) 37900 12100 13100 18500 22300 34400 50800 53400 68100 76100
2026-04-20 01:00 12.81 49400 109000 (1979) 7670 (1956) 37900 12100 13100 18500 22300 34400 50800 53400 68100 76100
2026-04-20 00:30 12.82 49200 109000 (1979) 7670 (1956) 37900 12100 13100 18500 22300 34400 50800 53400 68100 76100
2026-04-20 00:00 12.81 49300 109000 (1979) 7670 (1956) 37900 12100 13100 18500 22300 34400 50800 53400 68100 76100
2026-04-19 23:30 12.81 49200 109000 (1979) 7670 (1956) 37900 12100 13100 18500 22300 34400 50800 53400 68100 76100
2026-04-19 23:00 12.79 49400 109000 (1979) 7670 (1956) 37900 12100 13100 18500 22300 34400 50800 53400 68100 76100
2026-04-19 22:30 12.78 49500 109000 (1979) 6350 (1956) 37700 11800 13100 17300 22600 35700 50300 53400 64800 73600
2026-04-19 22:00 12.79 49200 109000 (1979) 6350 (1956) 37700 11800 13100 17300 22600 35700 50300 53400 64800 73600
2026-04-19 21:30 12.77 49300 109000 (1979) 6350 (1956) 37700 11800 13100 17300 22600 35700 50300 53400 64800 73600
2026-04-19 21:00 12.77 49300 109000 (1979) 6350 (1956) 37700 11800 13100 17300 22600 35700 50300 53400 64800 73600
2026-04-19 20:30 12.76 49600 109000 (1979) 6350 (1956) 37700 11800 13100 17300 22600 35700 50300 53400 64800 73600
2026-04-19 20:00 12.77 49000 109000 (1979) 6350 (1956) 37700 11800 13100 17300 22600 35700 50300 53400 64800 73600
2026-04-19 19:30 12.77 49300 109000 (1979) 6350 (1956) 37700 11800 13100 17300 22600 35700 50300 53400 64800 73600
2026-04-19 19:00 12.76 49300 109000 (1979) 6350 (1956) 37700 11800 13100 17300 22600 35700 50300 53400 64800 73600
2026-04-19 18:30 12.78 49100 109000 (1979) 6350 (1956) 37700 11800 13100 17300 22600 35700 50300 53400 64800 73600
2026-04-19 18:00 12.65 50600 109000 (1979) 6350 (1956) 37700 11800 13100 17300 22600 35700 50300 53400 64800 73600
2026-04-19 17:30 12.72 49700 109000 (1979) 6350 (1956) 37700 11800 13100 17300 22600 35700 50300 53400 64800 73600
2026-04-19 17:00 12.74 49500 109000 (1979) 6350 (1956) 37700 11800 13100 17300 22600 35700 50300 53400 64800 73600
2026-04-19 16:30 12.76 49100 109000 (1979) 6350 (1956) 37700 11800 13100 17300 22600 35700 50300 53400 64800 73600
2026-04-19 16:00 12.74 49500 109000 (1979) 6350 (1956) 37700 11800 13100 17300 22600 35700 50300 53400 64800 73600
2026-04-19 15:30 12.76 49100 109000 (1979) 6350 (1956) 37700 11800 13100 17300 22600 35700 50300 53400 64800 73600
2026-04-19 15:00 12.74 49500 109000 (1979) 6350 (1956) 37700 11800 13100 17300 22600 35700 50300 53400 64800 73600
2026-04-19 14:30 12.75 49200 109000 (1979) 6350 (1956) 37700 11800 13100 17300 22600 35700 50300 53400 64800 73600
2026-04-19 14:00 12.72 49400 109000 (1979) 6350 (1956) 37700 11800 13100 17300 22600 35700 50300 53400 64800 73600
2026-04-19 13:30 12.72 49200 109000 (1979) 6350 (1956) 37700 11800 13100 17300 22600 35700 50300 53400 64800 73600
2026-04-19 13:00 12.72 49600 109000 (1979) 6350 (1956) 37700 11800 13100 17300 22600 35700 50300 53400 64800 73600
2026-04-19 12:30 12.73 49300 109000 (1979) 6350 (1956) 37700 11800 13100 17300 22600 35700 50300 53400 64800 73600
2026-04-19 12:00 12.73 49000 109000 (1979) 6350 (1956) 37700 11800 13100 17300 22600 35700 50300 53400 64800 73600
2026-04-19 11:30 12.72 49000 109000 (1979) 6350 (1956) 37700 11800 13100 17300 22600 35700 50300 53400 64800 73600
2026-04-19 11:00 12.72 49000 109000 (1979) 6350 (1956) 37700 11800 13100 17300 22600 35700 50300 53400 64800 73600
2026-04-19 10:30 12.72 49400 109000 (1979) 6350 (1956) 37700 11800 13100 17300 22600 35700 50300 53400 64800 73600
2026-04-19 10:00 12.74 49100 109000 (1979) 6350 (1956) 37700 11800 13100 17300 22600 35700 50300 53400 64800 73600
2026-04-19 09:30 12.73 49300 109000 (1979) 6350 (1956) 37700 11800 13100 17300 22600 35700 50300 53400 64800 73600
2026-04-19 09:00 12.75 48800 109000 (1979) 6350 (1956) 37700 11800 13100 17300 22600 35700 50300 53400 64800 73600
2026-04-19 08:30 12.73 49200 109000 (1979) 6350 (1956) 37700 11800 13100 17300 22600 35700 50300 53400 64800 73600
2026-04-19 08:00 12.72 48900 109000 (1979) 6350 (1956) 37700 11800 13100 17300 22600 35700 50300 53400 64800 73600
2026-04-19 07:30 12.70 49400 109000 (1979) 6350 (1956) 37700 11800 13100 17300 22600 35700 50300 53400 64800 73600
2026-04-19 07:00 12.72 49200 109000 (1979) 6350 (1956) 37700 11800 13100 17300 22600 35700 50300 53400 64800 73600
2026-04-19 06:30 12.73 49200 109000 (1979) 6350 (1956) 37700 11800 13100 17300 22600 35700 50300 53400 64800 73600
2026-04-19 06:00 12.73 49000 109000 (1979) 6350 (1956) 37700 11800 13100 17300 22600 35700 50300 53400 64800 73600
2026-04-19 05:30 12.66 49800 109000 (1979) 6350 (1956) 37700 11800 13100 17300 22600 35700 50300 53400 64800 73600
2026-04-19 05:00 12.75 48800 109000 (1979) 6350 (1956) 37700 11800 13100 17300 22600 35700 50300 53400 64800 73600
2026-04-19 04:30 12.70 49400 109000 (1979) 6350 (1956) 37700 11800 13100 17300 22600 35700 50300 53400 64800 73600
2026-04-19 04:00 12.75 48800 109000 (1979) 6350 (1956) 37700 11800 13100 17300 22600 35700 50300 53400 64800 73600
2026-04-19 03:30 12.76 48700 109000 (1979) 6350 (1956) 37700 11800 13100 17300 22600 35700 50300 53400 64800 73600
2026-04-19 03:00 12.77 48400 109000 (1979) 6350 (1956) 37700 11800 13100 17300 22600 35700 50300 53400 64800 73600
2026-04-19 02:30 12.75 48800 109000 (1979) 6350 (1956) 37700 11800 13100 17300 22600 35700 50300 53400 64800 73600
2026-04-19 02:00 12.73 48900 109000 (1979) 6350 (1956) 37700 11800 13100 17300 22600 35700 50300 53400 64800 73600
2026-04-19 01:30 12.74 48800 109000 (1979) 6350 (1956) 37700 11800 13100 17300 22600 35700 50300 53400 64800 73600
2026-04-19 01:00 12.74 48800 109000 (1979) 6350 (1956) 37700 11800 13100 17300 22600 35700 50300 53400 64800 73600
2026-04-19 00:30 12.77 48300 109000 (1979) 6350 (1956) 37700 11800 13100 17300 22600 35700 50300 53400 64800 73600
2026-04-19 00:00 12.75 48500 109000 (1979) 6350 (1956) 37700 11800 13100 17300 22600 35700 50300 53400 64800 73600
2026-04-18 23:30 12.76 48600 109000 (1979) 6350 (1956) 37700 11800 13100 17300 22600 35700 50300 53400 64800 73600
2026-04-18 23:00 12.78 48200 109000 (1979) 6350 (1956) 37700 11800 13100 17300 22600 35700 50300 53400 64800 73600
2026-04-18 22:30 12.78 48000 100000 (1979) 7520 (1956) 37400 12200 13100 17600 22100 36200 49900 53100 63500 73200
2026-04-18 22:00 12.78 48000 100000 (1979) 7520 (1956) 37400 12200 13100 17600 22100 36200 49900 53100 63500 73200
2026-04-18 21:30 12.79 47800 100000 (1979) 7520 (1956) 37400 12200 13100 17600 22100 36200 49900 53100 63500 73200
2026-04-18 21:00 12.79 47800 100000 (1979) 7520 (1956) 37400 12200 13100 17600 22100 36200 49900 53100 63500 73200
2026-04-18 20:30 12.79 47800 100000 (1979) 7520 (1956) 37400 12200 13100 17600 22100 36200 49900 53100 63500 73200
2026-04-18 20:00 12.80 47800 100000 (1979) 7520 (1956) 37400 12200 13100 17600 22100 36200 49900 53100 63500 73200
2026-04-18 19:30 12.80 47800 100000 (1979) 7520 (1956) 37400 12200 13100 17600 22100 36200 49900 53100 63500 73200
2026-04-18 19:00 12.80 47700 100000 (1979) 7520 (1956) 37400 12200 13100 17600 22100 36200 49900 53100 63500 73200
2026-04-18 18:30 12.80 47200 100000 (1979) 7520 (1956) 37400 12200 13100 17600 22100 36200 49900 53100 63500 73200
2026-04-18 18:00 12.81 47500 100000 (1979) 7520 (1956) 37400 12200 13100 17600 22100 36200 49900 53100 63500 73200
2026-04-18 17:30 12.81 47500 100000 (1979) 7520 (1956) 37400 12200 13100 17600 22100 36200 49900 53100 63500 73200
2026-04-18 17:00 12.79 47600 100000 (1979) 7520 (1956) 37400 12200 13100 17600 22100 36200 49900 53100 63500 73200
2026-04-18 16:30 12.81 47500 100000 (1979) 7520 (1956) 37400 12200 13100 17600 22100 36200 49900 53100 63500 73200
2026-04-18 16:00 12.81 47100 100000 (1979) 7520 (1956) 37400 12200 13100 17600 22100 36200 49900 53100 63500 73200
2026-04-18 15:30 12.82 47100 100000 (1979) 7520 (1956) 37400 12200 13100 17600 22100 36200 49900 53100 63500 73200
2026-04-18 15:00 12.82 47000 100000 (1979) 7520 (1956) 37400 12200 13100 17600 22100 36200 49900 53100 63500 73200
2026-04-18 14:30 12.81 46900 100000 (1979) 7520 (1956) 37400 12200 13100 17600 22100 36200 49900 53100 63500 73200
2026-04-18 14:00 12.79 47000 100000 (1979) 7520 (1956) 37400 12200 13100 17600 22100 36200 49900 53100 63500 73200
2026-04-18 13:30 12.81 46500 100000 (1979) 7520 (1956) 37400 12200 13100 17600 22100 36200 49900 53100 63500 73200
2026-04-18 13:00 12.79 46600 100000 (1979) 7520 (1956) 37400 12200 13100 17600 22100 36200 49900 53100 63500 73200
2026-04-18 12:30 12.79 46600 100000 (1979) 7520 (1956) 37400 12200 13100 17600 22100 36200 49900 53100 63500 73200
2026-04-18 12:00 12.77 46700 100000 (1979) 7520 (1956) 37400 12200 13100 17600 22100 36200 49900 53100 63500 73200
2026-04-18 11:30 12.74 46900 100000 (1979) 7520 (1956) 37400 12200 13100 17600 22100 36200 49900 53100 63500 73200
2026-04-18 11:00 12.73 46900 100000 (1979) 7520 (1956) 37400 12200 13100 17600 22100 36200 49900 53100 63500 73200
2026-04-18 10:30 12.75 46500 100000 (1979) 7520 (1956) 37400 12200 13100 17600 22100 36200 49900 53100 63500 73200
2026-04-18 10:00 12.71 46500 100000 (1979) 7520 (1956) 37400 12200 13100 17600 22100 36200 49900 53100 63500 73200
2026-04-18 09:30 12.69 46300 100000 (1979) 7520 (1956) 37400 12200 13100 17600 22100 36200 49900 53100 63500 73200
2026-04-18 09:00 12.67 46400 100000 (1979) 7520 (1956) 37400 12200 13100 17600 22100 36200 49900 53100 63500 73200
2026-04-18 08:30 12.60 46900 100000 (1979) 7520 (1956) 37400 12200 13100 17600 22100 36200 49900 53100 63500 73200
2026-04-18 08:00 12.57 46700 100000 (1979) 7520 (1956) 37400 12200 13100 17600 22100 36200 49900 53100 63500 73200
2026-04-18 07:30 12.51 46900 100000 (1979) 7520 (1956) 37400 12200 13100 17600 22100 36200 49900 53100 63500 73200
2026-04-18 07:00 12.48 46800 100000 (1979) 7520 (1956) 37400 12200 13100 17600 22100 36200 49900 53100 63500 73200
2026-04-18 06:30 12.42 46900 100000 (1979) 7520 (1956) 37400 12200 13100 17600 22100 36200 49900 53100 63500 73200
2026-04-18 06:00 12.36 47000 100000 (1979) 7520 (1956) 37400 12200 13100 17600 22100 36200 49900 53100 63500 73200
2026-04-18 05:30 12.32 47000 100000 (1979) 7520 (1956) 37400 12200 13100 17600 22100 36200 49900 53100 63500 73200
2026-04-18 05:00 12.25 47200 100000 (1979) 7520 (1956) 37400 12200 13100 17600 22100 36200 49900 53100 63500 73200
2026-04-18 04:30 12.22 46900 100000 (1979) 7520 (1956) 37400 12200 13100 17600 22100 36200 49900 53100 63500 73200
2026-04-18 04:00 12.17 47300 100000 (1979) 7520 (1956) 37400 12200 13100 17600 22100 36200 49900 53100 63500 73200
2026-04-18 03:30 12.12 47500 100000 (1979) 7520 (1956) 37400 12200 13100 17600 22100 36200 49900 53100 63500 73200
2026-04-18 03:00 12.10 47000 100000 (1979) 7520 (1956) 37400 12200 13100 17600 22100 36200 49900 53100 63500 73200
2026-04-18 02:30 12.05 47300 100000 (1979) 7520 (1956) 37400 12200 13100 17600 22100 36200 49900 53100 63500 73200
2026-04-18 02:00 12.05 46600 100000 (1979) 7520 (1956) 37400 12200 13100 17600 22100 36200 49900 53100 63500 73200
2026-04-18 01:30 12.00 47000 100000 (1979) 7520 (1956) 37400 12200 13100 17600 22100 36200 49900 53100 63500 73200
2026-04-18 01:00 12.00 46700 100000 (1979) 7520 (1956) 37400 12200 13100 17600 22100 36200 49900 53100 63500 73200
2026-04-18 00:30 11.98 47200 100000 (1979) 7520 (1956) 37400 12200 13100 17600 22100 36200 49900 53100 63500 73200
2026-04-18 00:00 11.98 46500 100000 (1979) 7520 (1956) 37400 12200 13100 17600 22100 36200 49900 53100 63500 73200
2026-04-17 23:30 11.97 46500 100000 (1979) 7520 (1956) 37400 12200 13100 17600 22100 36200 49900 53100 63500 73200
2026-04-17 23:00 11.96 45900 100000 (1979) 7520 (1956) 37400 12200 13100 17600 22100 36200 49900 53100 63500 73200
2026-04-17 22:30 11.93 45900 93900 (1983) 7770 (2000) 37300 11400 12800 18400 22900 36300 50200 53100 62000 69600
2026-04-17 22:00 11.92 45800 93900 (1983) 7770 (2000) 37300 11400 12800 18400 22900 36300 50200 53100 62000 69600
2026-04-17 21:30 11.88 45800 93900 (1983) 7770 (2000) 37300 11400 12800 18400 22900 36300 50200 53100 62000 69600
2026-04-17 21:00 11.93 45800 93900 (1983) 7770 (2000) 37300 11400 12800 18400 22900 36300 50200 53100 62000 69600
2026-04-17 20:30 11.90 45400 93900 (1983) 7770 (2000) 37300 11400 12800 18400 22900 36300 50200 53100 62000 69600
2026-04-17 20:00 11.88 45200 93900 (1983) 7770 (2000) 37300 11400 12800 18400 22900 36300 50200 53100 62000 69600
2026-04-17 19:30 11.86 45400 93900 (1983) 7770 (2000) 37300 11400 12800 18400 22900 36300 50200 53100 62000 69600
2026-04-17 19:00 11.87 45300 93900 (1983) 7770 (2000) 37300 11400 12800 18400 22900 36300 50200 53100 62000 69600
2026-04-17 18:30 11.88 45600 93900 (1983) 7770 (2000) 37300 11400 12800 18400 22900 36300 50200 53100 62000 69600
2026-04-17 18:00 11.87 45200 93900 (1983) 7770 (2000) 37300 11400 12800 18400 22900 36300 50200 53100 62000 69600
2026-04-17 17:30 11.90 45100 93900 (1983) 7770 (2000) 37300 11400 12800 18400 22900 36300 50200 53100 62000 69600
2026-04-17 17:00 11.84 45600 93900 (1983) 7770 (2000) 37300 11400 12800 18400 22900 36300 50200 53100 62000 69600
2026-04-17 16:30 11.89 45000 93900 (1983) 7770 (2000) 37300 11400 12800 18400 22900 36300 50200 53100 62000 69600
2026-04-17 16:00 11.87 45200 93900 (1983) 7770 (2000) 37300 11400 12800 18400 22900 36300 50200 53100 62000 69600
2026-04-17 15:30 11.86 45300 93900 (1983) 7770 (2000) 37300 11400 12800 18400 22900 36300 50200 53100 62000 69600
2026-04-17 15:00 11.87 45200 93900 (1983) 7770 (2000) 37300 11400 12800 18400 22900 36300 50200 53100 62000 69600
2026-04-17 14:30 11.87 45200 93900 (1983) 7770 (2000) 37300 11400 12800 18400 22900 36300 50200 53100 62000 69600
2026-04-17 14:00 11.85 45400 93900 (1983) 7770 (2000) 37300 11400 12800 18400 22900 36300 50200 53100 62000 69600
2026-04-17 13:30 11.89 45300 93900 (1983) 7770 (2000) 37300 11400 12800 18400 22900 36300 50200 53100 62000 69600
2026-04-17 13:00 11.90 45100 93900 (1983) 7770 (2000) 37300 11400 12800 18400 22900 36300 50200 53100 62000 69600
2026-04-17 12:30 11.88 45200 93900 (1983) 7770 (2000) 37300 11400 12800 18400 22900 36300 50200 53100 62000 69600
2026-04-17 12:00 11.88 45400 93900 (1983) 7770 (2000) 37300 11400 12800 18400 22900 36300 50200 53100 62000 69600
2026-04-17 11:30 11.87 45600 93900 (1983) 7770 (2000) 37300 11400 12800 18400 22900 36300 50200 53100 62000 69600
2026-04-17 11:00 11.91 44900 93900 (1983) 7770 (2000) 37300 11400 12800 18400 22900 36300 50200 53100 62000 69600
2026-04-17 10:30 11.90 45100 93900 (1983) 7770 (2000) 37300 11400 12800 18400 22900 36300 50200 53100 62000 69600
2026-04-17 10:00 11.91 45200 93900 (1983) 7770 (2000) 37300 11400 12800 18400 22900 36300 50200 53100 62000 69600
2026-04-17 09:30 11.93 45000 93900 (1983) 7770 (2000) 37300 11400 12800 18400 22900 36300 50200 53100 62000 69600
2026-04-17 09:00 11.89 45400 93900 (1983) 7770 (2000) 37300 11400 12800 18400 22900 36300 50200 53100 62000 69600
2026-04-17 08:30 11.92 45100 93900 (1983) 7770 (2000) 37300 11400 12800 18400 22900 36300 50200 53100 62000 69600
2026-04-17 08:00 11.91 45300 93900 (1983) 7770 (2000) 37300 11400 12800 18400 22900 36300 50200 53100 62000 69600
2026-04-17 07:30 11.90 45400 93900 (1983) 7770 (2000) 37300 11400 12800 18400 22900 36300 50200 53100 62000 69600
2026-04-17 07:00 11.90 45400 93900 (1983) 7770 (2000) 37300 11400 12800 18400 22900 36300 50200 53100 62000 69600
2026-04-17 06:30 11.90 45400 93900 (1983) 7770 (2000) 37300 11400 12800 18400 22900 36300 50200 53100 62000 69600
2026-04-17 06:00 11.90 45300 93900 (1983) 7770 (2000) 37300 11400 12800 18400 22900 36300 50200 53100 62000 69600
2026-04-17 05:30 11.90 45600 93900 (1983) 7770 (2000) 37300 11400 12800 18400 22900 36300 50200 53100 62000 69600
2026-04-17 05:00 11.92 45300 93900 (1983) 7770 (2000) 37300 11400 12800 18400 22900 36300 50200 53100 62000 69600
2026-04-17 04:30 11.93 45200 93900 (1983) 7770 (2000) 37300 11400 12800 18400 22900 36300 50200 53100 62000 69600
2026-04-17 04:00 11.94 45100 93900 (1983) 7770 (2000) 37300 11400 12800 18400 22900 36300 50200 53100 62000 69600
2026-04-17 03:30 11.91 45600 93900 (1983) 7770 (2000) 37300 11400 12800 18400 22900 36300 50200 53100 62000 69600
2026-04-17 03:00 11.91 45600 93900 (1983) 7770 (2000) 37300 11400 12800 18400 22900 36300 50200 53100 62000 69600
2026-04-17 02:30 11.92 45500 93900 (1983) 7770 (2000) 37300 11400 12800 18400 22900 36300 50200 53100 62000 69600
2026-04-17 02:00 11.91 45600 93900 (1983) 7770 (2000) 37300 11400 12800 18400 22900 36300 50200 53100 62000 69600
2026-04-17 01:30 11.91 45600 93900 (1983) 7770 (2000) 37300 11400 12800 18400 22900 36300 50200 53100 62000 69600
2026-04-17 01:00 11.92 45500 93900 (1983) 7770 (2000) 37300 11400 12800 18400 22900 36300 50200 53100 62000 69600
2026-04-17 00:30 11.92 45600 93900 (1983) 7770 (2000) 37300 11400 12800 18400 22900 36300 50200 53100 62000 69600
2026-04-17 00:00 11.92 45800 93900 (1983) 7770 (2000) 37300 11400 12800 18400 22900 36300 50200 53100 62000 69600
2026-04-16 23:30 11.93 45400 93900 (1983) 7770 (2000) 37300 11400 12800 18400 22900 36300 50200 53100 62000 69600
2026-04-16 23:00 11.93 45700 93900 (1983) 7770 (2000) 37300 11400 12800 18400 22900 36300 50200 53100 62000 69600
2026-04-16 22:30 11.91 45900 92200 (1983) 6790 (2000) 37200 10700 13900 19100 23000 35500 49500 52900 61200 70100
2026-04-16 22:00 11.93 45900 92200 (1983) 6790 (2000) 37200 10700 13900 19100 23000 35500 49500 52900 61200 70100
2026-04-16 21:30 11.94 45800 92200 (1983) 6790 (2000) 37200 10700 13900 19100 23000 35500 49500 52900 61200 70100
2026-04-16 21:00 11.93 45800 92200 (1983) 6790 (2000) 37200 10700 13900 19100 23000 35500 49500 52900 61200 70100
2026-04-16 20:30 11.93 45900 92200 (1983) 6790 (2000) 37200 10700 13900 19100 23000 35500 49500 52900 61200 70100
2026-04-16 20:00 11.94 45800 92200 (1983) 6790 (2000) 37200 10700 13900 19100 23000 35500 49500 52900 61200 70100
2026-04-16 19:30 11.94 46000 92200 (1983) 6790 (2000) 37200 10700 13900 19100 23000 35500 49500 52900 61200 70100
2026-04-16 19:00 11.94 46000 92200 (1983) 6790 (2000) 37200 10700 13900 19100 23000 35500 49500 52900 61200 70100
2026-04-16 18:30 11.94 46000 92200 (1983) 6790 (2000) 37200 10700 13900 19100 23000 35500 49500 52900 61200 70100
2026-04-16 18:00 11.95 45900 92200 (1983) 6790 (2000) 37200 10700 13900 19100 23000 35500 49500 52900 61200 70100
2026-04-16 17:30 11.93 46100 92200 (1983) 6790 (2000) 37200 10700 13900 19100 23000 35500 49500 52900 61200 70100
2026-04-16 17:00 11.94 46100 92200 (1983) 6790 (2000) 37200 10700 13900 19100 23000 35500 49500 52900 61200 70100
2026-04-16 16:30 11.96 45900 92200 (1983) 6790 (2000) 37200 10700 13900 19100 23000 35500 49500 52900 61200 70100
2026-04-16 16:00 11.96 45900 92200 (1983) 6790 (2000) 37200 10700 13900 19100 23000 35500 49500 52900 61200 70100
2026-04-16 15:30 11.94 46000 92200 (1983) 6790 (2000) 37200 10700 13900 19100 23000 35500 49500 52900 61200 70100
2026-04-16 15:00 11.96 45900 92200 (1983) 6790 (2000) 37200 10700 13900 19100 23000 35500 49500 52900 61200 70100
2026-04-16 14:30 11.97 45900 92200 (1983) 6790 (2000) 37200 10700 13900 19100 23000 35500 49500 52900 61200 70100
2026-04-16 14:00 11.97 45600 92200 (1983) 6790 (2000) 37200 10700 13900 19100 23000 35500 49500 52900 61200 70100
2026-04-16 13:30 11.97 45900 92200 (1983) 6790 (2000) 37200 10700 13900 19100 23000 35500 49500 52900 61200 70100
2026-04-16 13:00 11.96 46300 92200 (1983) 6790 (2000) 37200 10700 13900 19100 23000 35500 49500 52900 61200 70100
2026-04-16 12:30 11.96 46200 92200 (1983) 6790 (2000) 37200 10700 13900 19100 23000 35500 49500 52900 61200 70100
2026-04-16 12:00 11.95 46400 92200 (1983) 6790 (2000) 37200 10700 13900 19100 23000 35500 49500 52900 61200 70100
2026-04-16 11:30 11.95 46500 92200 (1983) 6790 (2000) 37200 10700 13900 19100 23000 35500 49500 52900 61200 70100
2026-04-16 11:00 11.95 46300 92200 (1983) 6790 (2000) 37200 10700 13900 19100 23000 35500 49500 52900 61200 70100
2026-04-16 10:30 11.96 46300 92200 (1983) 6790 (2000) 37200 10700 13900 19100 23000 35500 49500 52900 61200 70100
2026-04-16 10:00 11.96 46300 92200 (1983) 6790 (2000) 37200 10700 13900 19100 23000 35500 49500 52900 61200 70100
2026-04-16 09:30 11.96 46400 92200 (1983) 6790 (2000) 37200 10700 13900 19100 23000 35500 49500 52900 61200 70100
2026-04-16 09:00 11.81 47900 92200 (1983) 6790 (2000) 37200 10700 13900 19100 23000 35500 49500 52900 61200 70100
2026-04-16 08:30 11.98 46400 92200 (1983) 6790 (2000) 37200 10700 13900 19100 23000 35500 49500 52900 61200 70100
2026-04-16 08:00 12.02 45900 92200 (1983) 6790 (2000) 37200 10700 13900 19100 23000 35500 49500 52900 61200 70100
2026-04-16 07:30 11.99 46100 92200 (1983) 6790 (2000) 37200 10700 13900 19100 23000 35500 49500 52900 61200 70100
2026-04-16 07:00 11.99 46300 92200 (1983) 6790 (2000) 37200 10700 13900 19100 23000 35500 49500 52900 61200 70100
2026-04-16 06:30 12.00 46000 92200 (1983) 6790 (2000) 37200 10700 13900 19100 23000 35500 49500 52900 61200 70100
2026-04-16 06:00 11.98 46200 92200 (1983) 6790 (2000) 37200 10700 13900 19100 23000 35500 49500 52900 61200 70100
2026-04-16 05:30 11.99 46300 92200 (1983) 6790 (2000) 37200 10700 13900 19100 23000 35500 49500 52900 61200 70100
2026-04-16 05:00 11.98 46200 92200 (1983) 6790 (2000) 37200 10700 13900 19100 23000 35500 49500 52900 61200 70100
2026-04-16 04:30 11.98 46500 92200 (1983) 6790 (2000) 37200 10700 13900 19100 23000 35500 49500 52900 61200 70100
2026-04-16 04:00 11.99 46400 92200 (1983) 6790 (2000) 37200 10700 13900 19100 23000 35500 49500 52900 61200 70100
2026-04-16 03:30 11.99 46300 92200 (1983) 6790 (2000) 37200 10700 13900 19100 23000 35500 49500 52900 61200 70100
2026-04-16 03:00 11.98 46500 92200 (1983) 6790 (2000) 37200 10700 13900 19100 23000 35500 49500 52900 61200 70100
2026-04-16 02:30 11.98 46500 92200 (1983) 6790 (2000) 37200 10700 13900 19100 23000 35500 49500 52900 61200 70100
2026-04-16 02:00 11.97 46500 92200 (1983) 6790 (2000) 37200 10700 13900 19100 23000 35500 49500 52900 61200 70100
2026-04-16 01:30 11.97 46600 92200 (1983) 6790 (2000) 37200 10700 13900 19100 23000 35500 49500 52900 61200 70100
2026-04-16 01:00 11.97 46600 92200 (1983) 6790 (2000) 37200 10700 13900 19100 23000 35500 49500 52900 61200 70100
2026-04-16 00:30 11.96 46600 92200 (1983) 6790 (2000) 37200 10700 13900 19100 23000 35500 49500 52900 61200 70100
2026-04-16 00:00 11.95 46500 92200 (1983) 6790 (2000) 37200 10700 13900 19100 23000 35500 49500 52900 61200 70100
2026-04-15 23:30 11.94 45800 92200 (1983) 6790 (2000) 37200 10700 13900 19100 23000 35500 49500 52900 61200 70100
2026-04-15 23:00 11.97 46200 92200 (1983) 6790 (2000) 37200 10700 13900 19100 23000 35500 49500 52900 61200 70100
2026-04-15 22:30 11.97 45900 92900 (1979) 6170 (2000) 37300 10300 14100 19700 24700 36200 50100 52700 61400 70300
2026-04-15 22:00 11.91 46400 92900 (1979) 6170 (2000) 37300 10300 14100 19700 24700 36200 50100 52700 61400 70300
2026-04-15 21:30 11.95 46100 92900 (1979) 6170 (2000) 37300 10300 14100 19700 24700 36200 50100 52700 61400 70300
2026-04-15 21:00 11.94 46400 92900 (1979) 6170 (2000) 37300 10300 14100 19700 24700 36200 50100 52700 61400 70300
2026-04-15 20:30 11.94 46200 92900 (1979) 6170 (2000) 37300 10300 14100 19700 24700 36200 50100 52700 61400 70300
2026-04-15 20:00 11.97 45900 92900 (1979) 6170 (2000) 37300 10300 14100 19700 24700 36200 50100 52700 61400 70300
2026-04-15 19:30 11.95 46100 92900 (1979) 6170 (2000) 37300 10300 14100 19700 24700 36200 50100 52700 61400 70300
2026-04-15 19:00 11.94 46200 92900 (1979) 6170 (2000) 37300 10300 14100 19700 24700 36200 50100 52700 61400 70300
2026-04-15 18:30 11.92 46000 92900 (1979) 6170 (2000) 37300 10300 14100 19700 24700 36200 50100 52700 61400 70300
2026-04-15 18:00 11.93 46200 92900 (1979) 6170 (2000) 37300 10300 14100 19700 24700 36200 50100 52700 61400 70300
2026-04-15 17:30 11.93 46100 92900 (1979) 6170 (2000) 37300 10300 14100 19700 24700 36200 50100 52700 61400 70300
2026-04-15 17:00 11.90 46200 92900 (1979) 6170 (2000) 37300 10300 14100 19700 24700 36200 50100 52700 61400 70300
2026-04-15 16:30 11.91 46000 92900 (1979) 6170 (2000) 37300 10300 14100 19700 24700 36200 50100 52700 61400 70300
2026-04-15 16:00 11.89 46300 92900 (1979) 6170 (2000) 37300 10300 14100 19700 24700 36200 50100 52700 61400 70300
2026-04-15 15:30 11.90 46200 92900 (1979) 6170 (2000) 37300 10300 14100 19700 24700 36200 50100 52700 61400 70300
2026-04-15 15:00 11.88 46300 92900 (1979) 6170 (2000) 37300 10300 14100 19700 24700 36200 50100 52700 61400 70300
2026-04-15 14:30 11.83 46900 92900 (1979) 6170 (2000) 37300 10300 14100 19700 24700 36200 50100 52700 61400 70300
2026-04-15 14:00 11.89 46100 92900 (1979) 6170 (2000) 37300 10300 14100 19700 24700 36200 50100 52700 61400 70300
2026-04-15 13:30 11.88 46300 92900 (1979) 6170 (2000) 37300 10300 14100 19700 24700 36200 50100 52700 61400 70300
2026-04-15 13:00 11.89 45900 92900 (1979) 6170 (2000) 37300 10300 14100 19700 24700 36200 50100 52700 61400 70300
2026-04-15 12:30 11.89 45900 92900 (1979) 6170 (2000) 37300 10300 14100 19700 24700 36200 50100 52700 61400 70300
2026-04-15 12:00 11.86 46400 92900 (1979) 6170 (2000) 37300 10300 14100 19700 24700 36200 50100 52700 61400 70300
2026-04-15 11:30 11.84 46400 92900 (1979) 6170 (2000) 37300 10300 14100 19700 24700 36200 50100 52700 61400 70300
2026-04-15 11:00 11.85 46500 92900 (1979) 6170 (2000) 37300 10300 14100 19700 24700 36200 50100 52700 61400 70300
2026-04-15 10:30 11.85 46300 92900 (1979) 6170 (2000) 37300 10300 14100 19700 24700 36200 50100 52700 61400 70300
2026-04-15 10:00 11.86 46200 92900 (1979) 6170 (2000) 37300 10300 14100 19700 24700 36200 50100 52700 61400 70300
2026-04-15 09:30 11.84 46400 92900 (1979) 6170 (2000) 37300 10300 14100 19700 24700 36200 50100 52700 61400 70300
2026-04-15 09:00 11.84 46400 92900 (1979) 6170 (2000) 37300 10300 14100 19700 24700 36200 50100 52700 61400 70300
2026-04-15 08:30 11.85 46200 92900 (1979) 6170 (2000) 37300 10300 14100 19700 24700 36200 50100 52700 61400 70300
2026-04-15 08:00 11.82 46500 92900 (1979) 6170 (2000) 37300 10300 14100 19700 24700 36200 50100 52700 61400 70300
2026-04-15 07:30 11.81 46400 92900 (1979) 6170 (2000) 37300 10300 14100 19700 24700 36200 50100 52700 61400 70300
2026-04-15 07:00 11.83 46100 92900 (1979) 6170 (2000) 37300 10300 14100 19700 24700 36200 50100 52700 61400 70300
2026-04-15 06:30 11.80 46500 92900 (1979) 6170 (2000) 37300 10300 14100 19700 24700 36200 50100 52700 61400 70300
2026-04-15 06:00 11.83 46100 92900 (1979) 6170 (2000) 37300 10300 14100 19700 24700 36200 50100 52700 61400 70300
2026-04-15 05:30 11.83 46100 92900 (1979) 6170 (2000) 37300 10300 14100 19700 24700 36200 50100 52700 61400 70300
2026-04-15 05:00 11.81 46400 92900 (1979) 6170 (2000) 37300 10300 14100 19700 24700 36200 50100 52700 61400 70300
2026-04-15 04:30 11.80 46500 92900 (1979) 6170 (2000) 37300 10300 14100 19700 24700 36200 50100 52700 61400 70300
2026-04-15 04:00 11.83 46300 92900 (1979) 6170 (2000) 37300 10300 14100 19700 24700 36200 50100 52700 61400 70300
2026-04-15 03:30 11.82 46400 92900 (1979) 6170 (2000) 37300 10300 14100 19700 24700 36200 50100 52700 61400 70300
2026-04-15 03:00 11.83 46000 92900 (1979) 6170 (2000) 37300 10300 14100 19700 24700 36200 50100 52700 61400 70300
2026-04-15 02:30 11.82 46100 92900 (1979) 6170 (2000) 37300 10300 14100 19700 24700 36200 50100 52700 61400 70300
2026-04-15 02:00 11.83 46100 92900 (1979) 6170 (2000) 37300 10300 14100 19700 24700 36200 50100 52700 61400 70300
2026-04-15 01:30 11.81 46200 92900 (1979) 6170 (2000) 37300 10300 14100 19700 24700 36200 50100 52700 61400 70300
2026-04-15 01:00 11.80 46200 92900 (1979) 6170 (2000) 37300 10300 14100 19700 24700 36200 50100 52700 61400 70300
2026-04-15 00:30 11.82 46100 92900 (1979) 6170 (2000) 37300 10300 14100 19700 24700 36200 50100 52700 61400 70300
2026-04-15 00:00 11.81 46400 92900 (1979) 6170 (2000) 37300 10300 14100 19700 24700 36200 50100 52700 61400 70300
2026-04-14 23:30 11.82 46200 92900 (1979) 6170 (2000) 37300 10300 14100 19700 24700 36200 50100 52700 61400 70300
2026-04-14 23:00 11.82 46200 92900 (1979) 6170 (2000) 37300 10300 14100 19700 24700 36200 50100 52700 61400 70300
2026-04-14 22:30 11.81 46400 91300 (1983) 7610 (2000) 37200 10300 14300 19600 25200 35600 50600 51800 60900 70400
2026-04-14 22:00 11.83 46400 91300 (1983) 7610 (2000) 37200 10300 14300 19600 25200 35600 50600 51800 60900 70400
2026-04-14 21:30 11.82 46400 91300 (1983) 7610 (2000) 37200 10300 14300 19600 25200 35600 50600 51800 60900 70400
2026-04-14 21:00 11.81 46600 91300 (1983) 7610 (2000) 37200 10300 14300 19600 25200 35600 50600 51800 60900 70400
2026-04-14 20:30 11.80 46700 91300 (1983) 7610 (2000) 37200 10300 14300 19600 25200 35600 50600 51800 60900 70400
2026-04-14 20:00 11.80 46600 91300 (1983) 7610 (2000) 37200 10300 14300 19600 25200 35600 50600 51800 60900 70400
2026-04-14 19:30 11.78 46800 91300 (1983) 7610 (2000) 37200 10300 14300 19600 25200 35600 50600 51800 60900 70400
2026-04-14 19:00 11.81 45300 91300 (1983) 7610 (2000) 37200 10300 14300 19600 25200 35600 50600 51800 60900 70400
2026-04-14 18:30 11.79 46400 91300 (1983) 7610 (2000) 37200 10300 14300 19600 25200 35600 50600 51800 60900 70400
2026-04-14 18:00 11.80 46600 91300 (1983) 7610 (2000) 37200 10300 14300 19600 25200 35600 50600 51800 60900 70400
2026-04-14 17:30 11.83 46000 91300 (1983) 7610 (2000) 37200 10300 14300 19600 25200 35600 50600 51800 60900 70400
2026-04-14 17:00 11.83 45900 91300 (1983) 7610 (2000) 37200 10300 14300 19600 25200 35600 50600 51800 60900 70400
2026-04-14 16:30 11.83 46400 91300 (1983) 7610 (2000) 37200 10300 14300 19600 25200 35600 50600 51800 60900 70400
2026-04-14 16:00 11.81 46400 91300 (1983) 7610 (2000) 37200 10300 14300 19600 25200 35600 50600 51800 60900 70400
2026-04-14 15:30 11.80 46600 91300 (1983) 7610 (2000) 37200 10300 14300 19600 25200 35600 50600 51800 60900 70400
2026-04-14 15:00 11.62 48400 91300 (1983) 7610 (2000) 37200 10300 14300 19600 25200 35600 50600 51800 60900 70400
2026-04-14 14:30 11.82 46500 91300 (1983) 7610 (2000) 37200 10300 14300 19600 25200 35600 50600 51800 60900 70400
2026-04-14 14:00 11.80 46600 91300 (1983) 7610 (2000) 37200 10300 14300 19600 25200 35600 50600 51800 60900 70400
2026-04-14 13:30 11.82 46200 91300 (1983) 7610 (2000) 37200 10300 14300 19600 25200 35600 50600 51800 60900 70400
2026-04-14 13:00 11.80 46600 91300 (1983) 7610 (2000) 37200 10300 14300 19600 25200 35600 50600 51800 60900 70400
2026-04-14 12:30 11.81 46500 91300 (1983) 7610 (2000) 37200 10300 14300 19600 25200 35600 50600 51800 60900 70400
2026-04-14 12:00 11.78 46900 91300 (1983) 7610 (2000) 37200 10300 14300 19600 25200 35600 50600 51800 60900 70400
2026-04-14 10:00 11.81 46600 91300 (1983) 7610 (2000) 37200 10300 14300 19600 25200 35600 50600 51800 60900 70400
2026-04-14 09:00 11.82 46600 91300 (1983) 7610 (2000) 37200 10300 14300 19600 25200 35600 50600 51800 60900 70400
2026-04-14 08:30 11.80 47000 91300 (1983) 7610 (2000) 37200 10300 14300 19600 25200 35600 50600 51800 60900 70400
2026-04-14 08:00 11.81 46900 91300 (1983) 7610 (2000) 37200 10300 14300 19600 25200 35600 50600 51800 60900 70400
2026-04-14 07:30 11.82 46900 91300 (1983) 7610 (2000) 37200 10300 14300 19600 25200 35600 50600 51800 60900 70400
2026-04-14 07:00 11.84 46800 91300 (1983) 7610 (2000) 37200 10300 14300 19600 25200 35600 50600 51800 60900 70400
2026-04-14 06:30 11.84 46600 91300 (1983) 7610 (2000) 37200 10300 14300 19600 25200 35600 50600 51800 60900 70400
2026-04-14 06:00 11.83 46500 91300 (1983) 7610 (2000) 37200 10300 14300 19600 25200 35600 50600 51800 60900 70400
2026-04-14 05:30 11.78 47200 91300 (1983) 7610 (2000) 37200 10300 14300 19600 25200 35600 50600 51800 60900 70400
2026-04-14 05:00 11.79 46900 91300 (1983) 7610 (2000) 37200 10300 14300 19600 25200 35600 50600 51800 60900 70400
2026-04-14 04:30 11.79 46900 91300 (1983) 7610 (2000) 37200 10300 14300 19600 25200 35600 50600 51800 60900 70400
2026-04-14 04:00 11.83 46900 91300 (1983) 7610 (2000) 37200 10300 14300 19600 25200 35600 50600 51800 60900 70400
2026-04-14 03:30 11.83 46900 91300 (1983) 7610 (2000) 37200 10300 14300 19600 25200 35600 50600 51800 60900 70400
2026-04-14 03:00 11.84 46400 91300 (1983) 7610 (2000) 37200 10300 14300 19600 25200 35600 50600 51800 60900 70400
2026-04-14 02:30 11.82 46600 91300 (1983) 7610 (2000) 37200 10300 14300 19600 25200 35600 50600 51800 60900 70400
2026-04-14 02:00 11.81 46600 91300 (1983) 7610 (2000) 37200 10300 14300 19600 25200 35600 50600 51800 60900 70400
2026-04-14 01:30 11.81 46700 91300 (1983) 7610 (2000) 37200 10300 14300 19600 25200 35600 50600 51800 60900 70400
2026-04-14 01:00 11.82 47000 91300 (1983) 7610 (2000) 37200 10300 14300 19600 25200 35600 50600 51800 60900 70400
2026-04-14 00:30 11.81 47000 91300 (1983) 7610 (2000) 37200 10300 14300 19600 25200 35600 50600 51800 60900 70400
2026-04-14 00:00 11.83 46800 91300 (1983) 7610 (2000) 37200 10300 14300 19600 25200 35600 50600 51800 60900 70400
2026-04-13 23:30 11.84 46800 91300 (1983) 7610 (2000) 37200 10300 14300 19600 25200 35600 50600 51800 60900 70400
2026-04-13 23:00 11.85 46700 91300 (1983) 7610 (2000) 37200 10300 14300 19600 25200 35600 50600 51800 60900 70400
2026-04-13 22:30 11.83 46800 90600 (1983) 7690 (1996) 37100 9790 14800 20800 25100 34400 50600 53200 60900 69700
2026-04-13 22:00 11.84 46700 90600 (1983) 7690 (1996) 37100 9790 14800 20800 25100 34400 50600 53200 60900 69700
2026-04-13 21:30 11.82 46900 90600 (1983) 7690 (1996) 37100 9790 14800 20800 25100 34400 50600 53200 60900 69700
2026-04-13 21:00 11.84 46700 90600 (1983) 7690 (1996) 37100 9790 14800 20800 25100 34400 50600 53200 60900 69700
2026-04-13 20:30 11.84 46800 90600 (1983) 7690 (1996) 37100 9790 14800 20800 25100 34400 50600 53200 60900 69700
2026-04-13 20:00 11.84 46700 90600 (1983) 7690 (1996) 37100 9790 14800 20800 25100 34400 50600 53200 60900 69700
2026-04-13 19:30 11.85 46700 90600 (1983) 7690 (1996) 37100 9790 14800 20800 25100 34400 50600 53200 60900 69700
2026-04-13 19:00 11.86 46900 90600 (1983) 7690 (1996) 37100 9790 14800 20800 25100 34400 50600 53200 60900 69700
2026-04-13 18:30 11.85 46700 90600 (1983) 7690 (1996) 37100 9790 14800 20800 25100 34400 50600 53200 60900 69700
2026-04-13 18:00 11.86 46600 90600 (1983) 7690 (1996) 37100 9790 14800 20800 25100 34400 50600 53200 60900 69700
2026-04-13 17:30 11.87 46800 90600 (1983) 7690 (1996) 37100 9790 14800 20800 25100 34400 50600 53200 60900 69700
2026-04-13 17:00 11.76 47600 90600 (1983) 7690 (1996) 37100 9790 14800 20800 25100 34400 50600 53200 60900 69700
2026-04-13 16:30 11.86 46800 90600 (1983) 7690 (1996) 37100 9790 14800 20800 25100 34400 50600 53200 60900 69700
2026-04-13 16:00 11.87 46700 90600 (1983) 7690 (1996) 37100 9790 14800 20800 25100 34400 50600 53200 60900 69700
2026-04-13 15:30 11.86 46600 90600 (1983) 7690 (1996) 37100 9790 14800 20800 25100 34400 50600 53200 60900 69700
2026-04-13 15:00 11.85 46900 90600 (1983) 7690 (1996) 37100 9790 14800 20800 25100 34400 50600 53200 60900 69700
2026-04-13 14:30 11.85 46700 90600 (1983) 7690 (1996) 37100 9790 14800 20800 25100 34400 50600 53200 60900 69700
2026-04-13 14:00 11.88 46700 90600 (1983) 7690 (1996) 37100 9790 14800 20800 25100 34400 50600 53200 60900 69700
2026-04-13 13:30 11.87 46800 90600 (1983) 7690 (1996) 37100 9790 14800 20800 25100 34400 50600 53200 60900 69700
2026-04-13 13:00 11.87 46900 90600 (1983) 7690 (1996) 37100 9790 14800 20800 25100 34400 50600 53200 60900 69700
2026-04-13 12:30 11.87 46800 90600 (1983) 7690 (1996) 37100 9790 14800 20800 25100 34400 50600 53200 60900 69700
2026-04-13 12:00 11.87 46900 90600 (1983) 7690 (1996) 37100 9790 14800 20800 25100 34400 50600 53200 60900 69700
2026-04-13 11:30 11.88 46800 90600 (1983) 7690 (1996) 37100 9790 14800 20800 25100 34400 50600 53200 60900 69700
2026-04-13 11:00 11.86 47000 90600 (1983) 7690 (1996) 37100 9790 14800 20800 25100 34400 50600 53200 60900 69700
2026-04-13 10:30 11.87 46700 90600 (1983) 7690 (1996) 37100 9790 14800 20800 25100 34400 50600 53200 60900 69700
2026-04-13 10:00 11.86 47000 90600 (1983) 7690 (1996) 37100 9790 14800 20800 25100 34400 50600 53200 60900 69700
2026-04-13 09:30 11.86 47000 90600 (1983) 7690 (1996) 37100 9790 14800 20800 25100 34400 50600 53200 60900 69700
2026-04-13 09:00 11.85 47000 90600 (1983) 7690 (1996) 37100 9790 14800 20800 25100 34400 50600 53200 60900 69700
2026-04-13 08:30 11.86 46800 90600 (1983) 7690 (1996) 37100 9790 14800 20800 25100 34400 50600 53200 60900 69700
2026-04-13 08:00 11.86 46900 90600 (1983) 7690 (1996) 37100 9790 14800 20800 25100 34400 50600 53200 60900 69700
2026-04-13 07:30 11.87 46700 90600 (1983) 7690 (1996) 37100 9790 14800 20800 25100 34400 50600 53200 60900 69700
2026-04-13 07:00 11.87 46800 90600 (1983) 7690 (1996) 37100 9790 14800 20800 25100 34400 50600 53200 60900 69700
2026-04-13 06:30 11.87 46700 90600 (1983) 7690 (1996) 37100 9790 14800 20800 25100 34400 50600 53200 60900 69700
2026-04-13 06:00 11.84 47400 90600 (1983) 7690 (1996) 37100 9790 14800 20800 25100 34400 50600 53200 60900 69700
2026-04-13 05:30 11.87 47100 90600 (1983) 7690 (1996) 37100 9790 14800 20800 25100 34400 50600 53200 60900 69700
2026-04-13 05:00 11.87 46900 90600 (1983) 7690 (1996) 37100 9790 14800 20800 25100 34400 50600 53200 60900 69700
2026-04-13 04:30 11.85 47100 90600 (1983) 7690 (1996) 37100 9790 14800 20800 25100 34400 50600 53200 60900 69700
2026-04-13 04:00 11.84 47200 90600 (1983) 7690 (1996) 37100 9790 14800 20800 25100 34400 50600 53200 60900 69700
2026-04-13 03:30 11.86 47200 90600 (1983) 7690 (1996) 37100 9790 14800 20800 25100 34400 50600 53200 60900 69700
2026-04-13 03:00 11.85 47100 90600 (1983) 7690 (1996) 37100 9790 14800 20800 25100 34400 50600 53200 60900 69700
2026-04-13 02:30 11.85 47300 90600 (1983) 7690 (1996) 37100 9790 14800 20800 25100 34400 50600 53200 60900 69700
2026-04-13 02:00 11.87 47100 90600 (1983) 7690 (1996) 37100 9790 14800 20800 25100 34400 50600 53200 60900 69700
2026-04-13 01:30 11.87 47100 90600 (1983) 7690 (1996) 37100 9790 14800 20800 25100 34400 50600 53200 60900 69700
2026-04-13 01:00 11.88 47000 90600 (1983) 7690 (1996) 37100 9790 14800 20800 25100 34400 50600 53200 60900 69700
2026-04-13 00:30 11.86 47300 90600 (1983) 7690 (1996) 37100 9790 14800 20800 25100 34400 50600 53200 60900 69700
2026-04-13 00:00 11.85 47300 90600 (1983) 7690 (1996) 37100 9790 14800 20800 25100 34400 50600 53200 60900 69700
2026-04-12 23:30 11.86 47600 90600 (1983) 7690 (1996) 37100 9790 14800 20800 25100 34400 50600 53200 60900 69700
2026-04-12 23:00 11.85 47400 90600 (1983) 7690 (1996) 37100 9790 14800 20800 25100 34400 50600 53200 60900 69700
2026-04-12 22:30 11.86 47200 89200 (1983) 8060 (2012) 37200 11200 15900 20600 22800 33700 49600 53500 60600 69600
2026-04-12 22:00 11.86 47400 89200 (1983) 8060 (2012) 37200 11200 15900 20600 22800 33700 49600 53500 60600 69600
2026-04-12 21:30 11.87 46500 89200 (1983) 8060 (2012) 37200 11200 15900 20600 22800 33700 49600 53500 60600 69600
2026-04-12 21:00 11.88 47100 89200 (1983) 8060 (2012) 37200 11200 15900 20600 22800 33700 49600 53500 60600 69600
2026-04-12 20:30 11.89 46600 89200 (1983) 8060 (2012) 37200 11200 15900 20600 22800 33700 49600 53500 60600 69600
2026-04-12 20:00 11.90 46200 89200 (1983) 8060 (2012) 37200 11200 15900 20600 22800 33700 49600 53500 60600 69600
2026-04-12 19:30 11.93 46500 89200 (1983) 8060 (2012) 37200 11200 15900 20600 22800 33700 49600 53500 60600 69600
2026-04-12 19:00 11.90 46900 89200 (1983) 8060 (2012) 37200 11200 15900 20600 22800 33700 49600 53500 60600 69600
2026-04-12 18:30 11.90 46800 89200 (1983) 8060 (2012) 37200 11200 15900 20600 22800 33700 49600 53500 60600 69600
2026-04-12 18:00 11.90 46500 89200 (1983) 8060 (2012) 37200 11200 15900 20600 22800 33700 49600 53500 60600 69600
2026-04-12 17:30 11.89 46700 89200 (1983) 8060 (2012) 37200 11200 15900 20600 22800 33700 49600 53500 60600 69600
2026-04-12 17:00 11.85 46900 89200 (1983) 8060 (2012) 37200 11200 15900 20600 22800 33700 49600 53500 60600 69600
2026-04-12 16:30 11.86 46800 89200 (1983) 8060 (2012) 37200 11200 15900 20600 22800 33700 49600 53500 60600 69600
2026-04-12 16:00 11.87 46800 89200 (1983) 8060 (2012) 37200 11200 15900 20600 22800 33700 49600 53500 60600 69600
2026-04-12 15:30 11.88 46400 89200 (1983) 8060 (2012) 37200 11200 15900 20600 22800 33700 49600 53500 60600 69600
2026-04-12 15:00 11.87 46900 89200 (1983) 8060 (2012) 37200 11200 15900 20600 22800 33700 49600 53500 60600 69600
2026-04-12 14:30 11.84 46800 89200 (1983) 8060 (2012) 37200 11200 15900 20600 22800 33700 49600 53500 60600 69600
2026-04-12 14:00 11.84 46800 89200 (1983) 8060 (2012) 37200 11200 15900 20600 22800 33700 49600 53500 60600 69600
2026-04-12 13:30 11.83 47100 89200 (1983) 8060 (2012) 37200 11200 15900 20600 22800 33700 49600 53500 60600 69600
2026-04-12 13:00 11.84 47200 89200 (1983) 8060 (2012) 37200 11200 15900 20600 22800 33700 49600 53500 60600 69600
2026-04-12 12:30 11.88 47000 89200 (1983) 8060 (2012) 37200 11200 15900 20600 22800 33700 49600 53500 60600 69600
2026-04-12 12:00 11.86 46800 89200 (1983) 8060 (2012) 37200 11200 15900 20600 22800 33700 49600 53500 60600 69600
2026-04-12 11:30 11.86 46800 89200 (1983) 8060 (2012) 37200 11200 15900 20600 22800 33700 49600 53500 60600 69600
2026-04-12 11:00 11.86 46900 89200 (1983) 8060 (2012) 37200 11200 15900 20600 22800 33700 49600 53500 60600 69600
2026-04-12 10:30 11.85 46900 89200 (1983) 8060 (2012) 37200 11200 15900 20600 22800 33700 49600 53500 60600 69600
2026-04-12 10:00 11.85 47000 89200 (1983) 8060 (2012) 37200 11200 15900 20600 22800 33700 49600 53500 60600 69600
2026-04-12 09:30 11.85 47100 89200 (1983) 8060 (2012) 37200 11200 15900 20600 22800 33700 49600 53500 60600 69600
2026-04-12 09:00 11.86 46600 89200 (1983) 8060 (2012) 37200 11200 15900 20600 22800 33700 49600 53500 60600 69600
2026-04-12 08:30 11.84 47100 89200 (1983) 8060 (2012) 37200 11200 15900 20600 22800 33700 49600 53500 60600 69600
2026-04-12 08:00 11.82 47200 89200 (1983) 8060 (2012) 37200 11200 15900 20600 22800 33700 49600 53500 60600 69600
2026-04-12 07:30 11.58 49400 89200 (1983) 8060 (2012) 37200 11200 15900 20600 22800 33700 49600 53500 60600 69600
2026-04-12 07:00 11.85 46900 89200 (1983) 8060 (2012) 37200 11200 15900 20600 22800 33700 49600 53500 60600 69600
2026-04-12 06:30 11.85 46700 89200 (1983) 8060 (2012) 37200 11200 15900 20600 22800 33700 49600 53500 60600 69600
2026-04-12 06:00 11.84 46800 89200 (1983) 8060 (2012) 37200 11200 15900 20600 22800 33700 49600 53500 60600 69600
2026-04-12 05:30 11.83 46900 89200 (1983) 8060 (2012) 37200 11200 15900 20600 22800 33700 49600 53500 60600 69600
2026-04-12 05:00 11.85 46600 89200 (1983) 8060 (2012) 37200 11200 15900 20600 22800 33700 49600 53500 60600 69600
2026-04-12 04:30 11.83 46900 89200 (1983) 8060 (2012) 37200 11200 15900 20600 22800 33700 49600 53500 60600 69600
2026-04-12 04:00 11.86 46600 89200 (1983) 8060 (2012) 37200 11200 15900 20600 22800 33700 49600 53500 60600 69600
2026-04-12 03:30 11.85 46600 89200 (1983) 8060 (2012) 37200 11200 15900 20600 22800 33700 49600 53500 60600 69600
2026-04-12 03:00 11.83 46800 89200 (1983) 8060 (2012) 37200 11200 15900 20600 22800 33700 49600 53500 60600 69600
2026-04-12 02:30 11.83 46700 89200 (1983) 8060 (2012) 37200 11200 15900 20600 22800 33700 49600 53500 60600 69600
2026-04-12 02:00 11.83 46700 89200 (1983) 8060 (2012) 37200 11200 15900 20600 22800 33700 49600 53500 60600 69600
2026-04-12 01:30 11.82 46900 89200 (1983) 8060 (2012) 37200 11200 15900 20600 22800 33700 49600 53500 60600 69600
2026-04-12 01:00 11.84 46700 89200 (1983) 8060 (2012) 37200 11200 15900 20600 22800 33700 49600 53500 60600 69600
2026-04-12 00:30 11.82 46900 89200 (1983) 8060 (2012) 37200 11200 15900 20600 22800 33700 49600 53500 60600 69600
2026-04-12 00:00 11.85 46500 89200 (1983) 8060 (2012) 37200 11200 15900 20600 22800 33700 49600 53500 60600 69600
2026-04-11 23:30 11.82 46800 89200 (1983) 8060 (2012) 37200 11200 15900 20600 22800 33700 49600 53500 60600 69600
2026-04-11 23:00 11.82 46900 89200 (1983) 8060 (2012) 37200 11200 15900 20600 22800 33700 49600 53500 60600 69600
2026-04-11 22:30 11.81 47000 87700 (1983) 6760 (2000) 37100 11500 16500 21000 23300 34500 47700 54100 61000 68200
2026-04-11 22:00 11.83 46500 87700 (1983) 6760 (2000) 37100 11500 16500 21000 23300 34500 47700 54100 61000 68200
2026-04-11 21:30 11.78 47200 87700 (1983) 6760 (2000) 37100 11500 16500 21000 23300 34500 47700 54100 61000 68200
2026-04-11 21:00 11.80 47000 87700 (1983) 6760 (2000) 37100 11500 16500 21000 23300 34500 47700 54100 61000 68200
2026-04-11 20:30 11.80 46700 87700 (1983) 6760 (2000) 37100 11500 16500 21000 23300 34500 47700 54100 61000 68200
2026-04-11 20:00 11.79 47100 87700 (1983) 6760 (2000) 37100 11500 16500 21000 23300 34500 47700 54100 61000 68200
2026-04-11 19:30 11.80 46800 87700 (1983) 6760 (2000) 37100 11500 16500 21000 23300 34500 47700 54100 61000 68200
2026-04-11 19:00 11.79 46900 87700 (1983) 6760 (2000) 37100 11500 16500 21000 23300 34500 47700 54100 61000 68200
2026-04-11 18:30 11.77 47100 87700 (1983) 6760 (2000) 37100 11500 16500 21000 23300 34500 47700 54100 61000 68200
2026-04-11 18:00 11.77 47000 87700 (1983) 6760 (2000) 37100 11500 16500 21000 23300 34500 47700 54100 61000 68200
2026-04-11 17:30 11.77 47000 87700 (1983) 6760 (2000) 37100 11500 16500 21000 23300 34500 47700 54100 61000 68200
2026-04-11 17:00 11.79 46900 87700 (1983) 6760 (2000) 37100 11500 16500 21000 23300 34500 47700 54100 61000 68200
2026-04-11 16:30 11.79 46800 87700 (1983) 6760 (2000) 37100 11500 16500 21000 23300 34500 47700 54100 61000 68200
2026-04-11 16:00 11.77 47000 87700 (1983) 6760 (2000) 37100 11500 16500 21000 23300 34500 47700 54100 61000 68200
2026-04-11 15:30 11.75 47100 87700 (1983) 6760 (2000) 37100 11500 16500 21000 23300 34500 47700 54100 61000 68200
2026-04-11 15:00 11.78 46900 87700 (1983) 6760 (2000) 37100 11500 16500 21000 23300 34500 47700 54100 61000 68200
2026-04-11 14:30 11.75 47100 87700 (1983) 6760 (2000) 37100 11500 16500 21000 23300 34500 47700 54100 61000 68200
2026-04-11 14:00 11.79 46700 87700 (1983) 6760 (2000) 37100 11500 16500 21000 23300 34500 47700 54100 61000 68200
2026-04-11 13:30 11.75 47100 87700 (1983) 6760 (2000) 37100 11500 16500 21000 23300 34500 47700 54100 61000 68200
2026-04-11 13:00 11.77 46700 87700 (1983) 6760 (2000) 37100 11500 16500 21000 23300 34500 47700 54100 61000 68200
2026-04-11 12:30 11.78 46600 87700 (1983) 6760 (2000) 37100 11500 16500 21000 23300 34500 47700 54100 61000 68200
2026-04-11 12:00 11.76 46700 87700 (1983) 6760 (2000) 37100 11500 16500 21000 23300 34500 47700 54100 61000 68200
2026-04-11 11:30 11.79 46400 87700 (1983) 6760 (2000) 37100 11500 16500 21000 23300 34500 47700 54100 61000 68200
2026-04-11 11:00 11.75 46800 87700 (1983) 6760 (2000) 37100 11500 16500 21000 23300 34500 47700 54100 61000 68200
2026-04-11 10:30 11.75 46800 87700 (1983) 6760 (2000) 37100 11500 16500 21000 23300 34500 47700 54100 61000 68200
2026-04-11 10:00 11.74 46800 87700 (1983) 6760 (2000) 37100 11500 16500 21000 23300 34500 47700 54100 61000 68200
2026-04-11 09:30 11.75 46800 87700 (1983) 6760 (2000) 37100 11500 16500 21000 23300 34500 47700 54100 61000 68200
2026-04-11 09:00 11.76 46600 87700 (1983) 6760 (2000) 37100 11500 16500 21000 23300 34500 47700 54100 61000 68200
2026-04-11 08:30 11.73 46700 87700 (1983) 6760 (2000) 37100 11500 16500 21000 23300 34500 47700 54100 61000 68200
2026-04-11 08:00 11.73 46700 87700 (1983) 6760 (2000) 37100 11500 16500 21000 23300 34500 47700 54100 61000 68200
2026-04-11 07:30 11.71 46900 87700 (1983) 6760 (2000) 37100 11500 16500 21000 23300 34500 47700 54100 61000 68200
2026-04-11 07:00 11.70 46900 87700 (1983) 6760 (2000) 37100 11500 16500 21000 23300 34500 47700 54100 61000 68200
2026-04-11 06:30 11.71 46700 87700 (1983) 6760 (2000) 37100 11500 16500 21000 23300 34500 47700 54100 61000 68200
2026-04-11 06:00 11.70 46800 87700 (1983) 6760 (2000) 37100 11500 16500 21000 23300 34500 47700 54100 61000 68200
2026-04-11 05:30 11.72 46400 87700 (1983) 6760 (2000) 37100 11500 16500 21000 23300 34500 47700 54100 61000 68200
2026-04-11 05:00 11.71 46700 87700 (1983) 6760 (2000) 37100 11500 16500 21000 23300 34500 47700 54100 61000 68200
2026-04-11 04:30 11.69 46900 87700 (1983) 6760 (2000) 37100 11500 16500 21000 23300 34500 47700 54100 61000 68200
2026-04-11 04:00 11.69 46700 87700 (1983) 6760 (2000) 37100 11500 16500 21000 23300 34500 47700 54100 61000 68200
2026-04-11 03:30 11.70 46500 87700 (1983) 6760 (2000) 37100 11500 16500 21000 23300 34500 47700 54100 61000 68200
2026-04-11 03:00 11.69 46700 87700 (1983) 6760 (2000) 37100 11500 16500 21000 23300 34500 47700 54100 61000 68200
2026-04-11 02:30 11.68 46700 87700 (1983) 6760 (2000) 37100 11500 16500 21000 23300 34500 47700 54100 61000 68200
2026-04-11 02:00 11.69 46500 87700 (1983) 6760 (2000) 37100 11500 16500 21000 23300 34500 47700 54100 61000 68200
2026-04-11 01:30 11.67 46700 87700 (1983) 6760 (2000) 37100 11500 16500 21000 23300 34500 47700 54100 61000 68200
2026-04-11 01:00 11.68 46600 87700 (1983) 6760 (2000) 37100 11500 16500 21000 23300 34500 47700 54100 61000 68200
2026-04-11 00:30 11.67 46800 87700 (1983) 6760 (2000) 37100 11500 16500 21000 23300 34500 47700 54100 61000 68200
2026-04-11 00:00 11.63 47100 87700 (1983) 6760 (2000) 37100 11500 16500 21000 23300 34500 47700 54100 61000 68200
2026-04-10 23:30 11.67 46500 87700 (1983) 6760 (2000) 37100 11500 16500 21000 23300 34500 47700 54100 61000 68200
2026-04-10 23:00 11.65 46700 87700 (1983) 6760 (2000) 37100 11500 16500 21000 23300 34500 47700 54100 61000 68200
2026-04-10 22:30 11.65 46700 88700 (1979) 6910 (2000) 37000 11000 16200 21000 21900 34700 47600 54500 61900 68600
2026-04-10 22:00 11.65 46700 88700 (1979) 6910 (2000) 37000 11000 16200 21000 21900 34700 47600 54500 61900 68600
2026-04-10 21:30 11.64 47000 88700 (1979) 6910 (2000) 37000 11000 16200 21000 21900 34700 47600 54500 61900 68600
2026-04-10 21:00 11.66 46500 88700 (1979) 6910 (2000) 37000 11000 16200 21000 21900 34700 47600 54500 61900 68600
2026-04-10 20:30 11.65 46600 88700 (1979) 6910 (2000) 37000 11000 16200 21000 21900 34700 47600 54500 61900 68600
2026-04-10 20:00 11.65 46500 88700 (1979) 6910 (2000) 37000 11000 16200 21000 21900 34700 47600 54500 61900 68600
2026-04-10 19:30 11.65 46600 88700 (1979) 6910 (2000) 37000 11000 16200 21000 21900 34700 47600 54500 61900 68600
2026-04-10 19:00 11.62 46900 88700 (1979) 6910 (2000) 37000 11000 16200 21000 21900 34700 47600 54500 61900 68600
2026-04-10 18:30 11.63 46800 88700 (1979) 6910 (2000) 37000 11000 16200 21000 21900 34700 47600 54500 61900 68600
2026-04-10 18:00 11.63 46700 88700 (1979) 6910 (2000) 37000 11000 16200 21000 21900 34700 47600 54500 61900 68600
2026-04-10 17:30 11.62 46600 88700 (1979) 6910 (2000) 37000 11000 16200 21000 21900 34700 47600 54500 61900 68600
2026-04-10 17:00 11.64 46400 88700 (1979) 6910 (2000) 37000 11000 16200 21000 21900 34700 47600 54500 61900 68600
2026-04-10 16:30 11.64 46300 88700 (1979) 6910 (2000) 37000 11000 16200 21000 21900 34700 47600 54500 61900 68600
2026-04-10 16:00 11.63 46500 88700 (1979) 6910 (2000) 37000 11000 16200 21000 21900 34700 47600 54500 61900 68600
2026-04-10 15:30 11.61 46700 88700 (1979) 6910 (2000) 37000 11000 16200 21000 21900 34700 47600 54500 61900 68600
2026-04-10 15:00 11.62 46600 88700 (1979) 6910 (2000) 37000 11000 16200 21000 21900 34700 47600 54500 61900 68600
2026-04-10 14:30 11.63 46500 88700 (1979) 6910 (2000) 37000 11000 16200 21000 21900 34700 47600 54500 61900 68600
2026-04-10 14:00 11.62 46500 88700 (1979) 6910 (2000) 37000 11000 16200 21000 21900 34700 47600 54500 61900 68600
2026-04-10 13:30 11.63 46400 88700 (1979) 6910 (2000) 37000 11000 16200 21000 21900 34700 47600 54500 61900 68600
2026-04-10 13:00 11.62 46500 88700 (1979) 6910 (2000) 37000 11000 16200 21000 21900 34700 47600 54500 61900 68600
2026-04-10 12:30 11.63 46400 88700 (1979) 6910 (2000) 37000 11000 16200 21000 21900 34700 47600 54500 61900 68600
2026-04-10 12:00 11.61 46700 88700 (1979) 6910 (2000) 37000 11000 16200 21000 21900 34700 47600 54500 61900 68600
2026-04-10 11:30 11.62 46400 88700 (1979) 6910 (2000) 37000 11000 16200 21000 21900 34700 47600 54500 61900 68600
2026-04-10 11:00 11.58 46800 88700 (1979) 6910 (2000) 37000 11000 16200 21000 21900 34700 47600 54500 61900 68600
2026-04-10 10:30 11.67 45900 88700 (1979) 6910 (2000) 37000 11000 16200 21000 21900 34700 47600 54500 61900 68600
2026-04-10 10:00 11.60 46400 88700 (1979) 6910 (2000) 37000 11000 16200 21000 21900 34700 47600 54500 61900 68600
2026-04-10 09:30 11.64 45900 88700 (1979) 6910 (2000) 37000 11000 16200 21000 21900 34700 47600 54500 61900 68600
2026-04-10 09:00 11.62 45900 88700 (1979) 6910 (2000) 37000 11000 16200 21000 21900 34700 47600 54500 61900 68600
2026-04-10 08:30 11.61 46500 88700 (1979) 6910 (2000) 37000 11000 16200 21000 21900 34700 47600 54500 61900 68600
2026-04-10 08:00 11.60 46400 88700 (1979) 6910 (2000) 37000 11000 16200 21000 21900 34700 47600 54500 61900 68600
2026-04-10 07:30 11.56 46700 88700 (1979) 6910 (2000) 37000 11000 16200 21000 21900 34700 47600 54500 61900 68600
2026-04-10 07:00 11.60 46300 88700 (1979) 6910 (2000) 37000 11000 16200 21000 21900 34700 47600 54500 61900 68600
2026-04-10 06:30 11.58 46200 88700 (1979) 6910 (2000) 37000 11000 16200 21000 21900 34700 47600 54500 61900 68600
2026-04-10 06:00 11.57 46500 88700 (1979) 6910 (2000) 37000 11000 16200 21000 21900 34700 47600 54500 61900 68600
2026-04-10 05:30 11.60 46000 88700 (1979) 6910 (2000) 37000 11000 16200 21000 21900 34700 47600 54500 61900 68600
2026-04-10 05:00 11.58 46200 88700 (1979) 6910 (2000) 37000 11000 16200 21000 21900 34700 47600 54500 61900 68600
2026-04-10 04:30 11.58 46500 88700 (1979) 6910 (2000) 37000 11000 16200 21000 21900 34700 47600 54500 61900 68600
2026-04-10 04:00 11.58 46100 88700 (1979) 6910 (2000) 37000 11000 16200 21000 21900 34700 47600 54500 61900 68600
2026-04-10 03:30 11.56 46300 88700 (1979) 6910 (2000) 37000 11000 16200 21000 21900 34700 47600 54500 61900 68600
2026-04-10 03:00 11.55 46700 88700 (1979) 6910 (2000) 37000 11000 16200 21000 21900 34700 47600 54500 61900 68600
2026-04-10 02:30 11.58 46000 88700 (1979) 6910 (2000) 37000 11000 16200 21000 21900 34700 47600 54500 61900 68600
2026-04-10 02:00 11.55 46000 88700 (1979) 6910 (2000) 37000 11000 16200 21000 21900 34700 47600 54500 61900 68600
2026-04-10 01:30 11.54 46100 88700 (1979) 6910 (2000) 37000 11000 16200 21000 21900 34700 47600 54500 61900 68600
2026-04-10 01:00 11.53 46300 88700 (1979) 6910 (2000) 37000 11000 16200 21000 21900 34700 47600 54500 61900 68600
2026-04-10 00:30 11.55 46000 88700 (1979) 6910 (2000) 37000 11000 16200 21000 21900 34700 47600 54500 61900 68600
2026-04-10 00:00 11.51 46300 88700 (1979) 6910 (2000) 37000 11000 16200 21000 21900 34700 47600 54500 61900 68600
2026-04-09 23:30 11.52 46200 88700 (1979) 6910 (2000) 37000 11000 16200 21000 21900 34700 47600 54500 61900 68600
2026-04-09 23:00 11.55 45900 88700 (1979) 6910 (2000) 37000 11000 16200 21000 21900 34700 47600 54500 61900 68600
2026-04-09 22:30 11.53 46200 90700 (1979) 7940 (2012) 37200 10200 17900 21000 22300 34700 47800 53000 63200 71000
2026-04-09 22:00 11.53 46100 90700 (1979) 7940 (2012) 37200 10200 17900 21000 22300 34700 47800 53000 63200 71000
2026-04-09 21:30 11.53 46300 90700 (1979) 7940 (2012) 37200 10200 17900 21000 22300 34700 47800 53000 63200 71000
2026-04-09 21:00 11.53 46200 90700 (1979) 7940 (2012) 37200 10200 17900 21000 22300 34700 47800 53000 63200 71000
2026-04-09 20:30 11.52 46300 90700 (1979) 7940 (2012) 37200 10200 17900 21000 22300 34700 47800 53000 63200 71000
2026-04-09 20:00 11.52 46200 90700 (1979) 7940 (2012) 37200 10200 17900 21000 22300 34700 47800 53000 63200 71000
2026-04-09 19:30 11.50 46200 90700 (1979) 7940 (2012) 37200 10200 17900 21000 22300 34700 47800 53000 63200 71000
2026-04-09 19:00 11.53 46100 90700 (1979) 7940 (2012) 37200 10200 17900 21000 22300 34700 47800 53000 63200 71000
2026-04-09 18:30 11.50 46100 90700 (1979) 7940 (2012) 37200 10200 17900 21000 22300 34700 47800 53000 63200 71000
2026-04-09 18:00 11.49 46300 90700 (1979) 7940 (2012) 37200 10200 17900 21000 22300 34700 47800 53000 63200 71000
2026-04-09 17:30 11.48 46400 90700 (1979) 7940 (2012) 37200 10200 17900 21000 22300 34700 47800 53000 63200 71000
2026-04-09 17:00 11.48 46300 90700 (1979) 7940 (2012) 37200 10200 17900 21000 22300 34700 47800 53000 63200 71000
2026-04-09 16:30 11.47 46300 90700 (1979) 7940 (2012) 37200 10200 17900 21000 22300 34700 47800 53000 63200 71000
2026-04-09 16:00 11.47 46300 90700 (1979) 7940 (2012) 37200 10200 17900 21000 22300 34700 47800 53000 63200 71000
2026-04-09 15:30 11.45 46400 90700 (1979) 7940 (2012) 37200 10200 17900 21000 22300 34700 47800 53000 63200 71000
2026-04-09 15:00 11.46 46200 90700 (1979) 7940 (2012) 37200 10200 17900 21000 22300 34700 47800 53000 63200 71000
2026-04-09 14:30 11.45 46600 90700 (1979) 7940 (2012) 37200 10200 17900 21000 22300 34700 47800 53000 63200 71000
2026-04-09 14:00 11.44 46700 90700 (1979) 7940 (2012) 37200 10200 17900 21000 22300 34700 47800 53000 63200 71000
2026-04-09 13:30 11.46 46500 90700 (1979) 7940 (2012) 37200 10200 17900 21000 22300 34700 47800 53000 63200 71000
2026-04-09 13:00 11.43 46600 90700 (1979) 7940 (2012) 37200 10200 17900 21000 22300 34700 47800 53000 63200 71000
2026-04-09 12:30 11.46 46200 90700 (1979) 7940 (2012) 37200 10200 17900 21000 22300 34700 47800 53000 63200 71000
2026-04-09 12:00 11.46 46200 90700 (1979) 7940 (2012) 37200 10200 17900 21000 22300 34700 47800 53000 63200 71000
2026-04-09 11:30 11.44 46400 90700 (1979) 7940 (2012) 37200 10200 17900 21000 22300 34700 47800 53000 63200 71000
2026-04-09 11:00 11.44 46400 90700 (1979) 7940 (2012) 37200 10200 17900 21000 22300 34700 47800 53000 63200 71000
2026-04-09 10:30 11.43 46400 90700 (1979) 7940 (2012) 37200 10200 17900 21000 22300 34700 47800 53000 63200 71000
2026-04-09 10:00 11.45 46200 90700 (1979) 7940 (2012) 37200 10200 17900 21000 22300 34700 47800 53000 63200 71000
2026-04-09 09:30 11.43 46200 90700 (1979) 7940 (2012) 37200 10200 17900 21000 22300 34700 47800 53000 63200 71000
2026-04-09 09:00 11.43 46400 90700 (1979) 7940 (2012) 37200 10200 17900 21000 22300 34700 47800 53000 63200 71000
2026-04-09 08:30 11.43 46100 90700 (1979) 7940 (2012) 37200 10200 17900 21000 22300 34700 47800 53000 63200 71000
2026-04-09 08:00 11.42 46000 90700 (1979) 7940 (2012) 37200 10200 17900 21000 22300 34700 47800 53000 63200 71000
2026-04-09 07:30 11.44 46000 90700 (1979) 7940 (2012) 37200 10200 17900 21000 22300 34700 47800 53000 63200 71000
2026-04-09 07:00 11.44 45900 90700 (1979) 7940 (2012) 37200 10200 17900 21000 22300 34700 47800 53000 63200 71000
2026-04-09 06:30 11.41 46200 90700 (1979) 7940 (2012) 37200 10200 17900 21000 22300 34700 47800 53000 63200 71000
2026-04-09 06:00 11.43 46000 90700 (1979) 7940 (2012) 37200 10200 17900 21000 22300 34700 47800 53000 63200 71000
2026-04-09 05:30 11.41 46000 90700 (1979) 7940 (2012) 37200 10200 17900 21000 22300 34700 47800 53000 63200 71000
2026-04-09 05:00 11.42 46000 90700 (1979) 7940 (2012) 37200 10200 17900 21000 22300 34700 47800 53000 63200 71000
2026-04-09 04:30 11.35 46600 90700 (1979) 7940 (2012) 37200 10200 17900 21000 22300 34700 47800 53000 63200 71000
2026-04-09 04:00 11.39 46100 90700 (1979) 7940 (2012) 37200 10200 17900 21000 22300 34700 47800 53000 63200 71000
2026-04-09 03:30 11.37 46400 90700 (1979) 7940 (2012) 37200 10200 17900 21000 22300 34700 47800 53000 63200 71000
2026-04-09 03:00 11.40 45800 90700 (1979) 7940 (2012) 37200 10200 17900 21000 22300 34700 47800 53000 63200 71000
2026-04-09 02:30 11.40 45900 90700 (1979) 7940 (2012) 37200 10200 17900 21000 22300 34700 47800 53000 63200 71000
2026-04-09 02:00 11.41 90700 (1979) 7940 (2012) 37200 10200 17900 21000 22300 34700 47800 53000 63200 71000
2026-04-09 01:30 11.39 45900 90700 (1979) 7940 (2012) 37200 10200 17900 21000 22300 34700 47800 53000 63200 71000
2026-04-09 01:00 11.40 45800 90700 (1979) 7940 (2012) 37200 10200 17900 21000 22300 34700 47800 53000 63200 71000
2026-04-09 00:30 11.39 46000 90700 (1979) 7940 (2012) 37200 10200 17900 21000 22300 34700 47800 53000 63200 71000
2026-04-09 00:00 11.36 46300 90700 (1979) 7940 (2012) 37200 10200 17900 21000 22300 34700 47800 53000 63200 71000
2026-04-08 23:30 11.39 45900 90700 (1979) 7940 (2012) 37200 10200 17900 21000 22300 34700 47800 53000 63200 71000
2026-04-08 23:00 11.38 45900 90700 (1979) 7940 (2012) 37200 10200 17900 21000 22300 34700 47800 53000 63200 71000
2026-04-08 22:30 11.37 45900 93300 (1979) 7120 (2000) 37400 11200 17900 21400 23600 34300 47200 51500 64400 72800
2026-04-08 22:00 11.36 46000 93300 (1979) 7120 (2000) 37400 11200 17900 21400 23600 34300 47200 51500 64400 72800
2026-04-08 21:30 11.34 46100 93300 (1979) 7120 (2000) 37400 11200 17900 21400 23600 34300 47200 51500 64400 72800
2026-04-08 21:00 11.36 46000 93300 (1979) 7120 (2000) 37400 11200 17900 21400 23600 34300 47200 51500 64400 72800
2026-04-08 20:30 11.33 46100 93300 (1979) 7120 (2000) 37400 11200 17900 21400 23600 34300 47200 51500 64400 72800
2026-04-08 20:00 11.34 45900 93300 (1979) 7120 (2000) 37400 11200 17900 21400 23600 34300 47200 51500 64400 72800
2026-04-08 19:30 11.34 45900 93300 (1979) 7120 (2000) 37400 11200 17900 21400 23600 34300 47200 51500 64400 72800
2026-04-08 19:00 11.32 45700 93300 (1979) 7120 (2000) 37400 11200 17900 21400 23600 34300 47200 51500 64400 72800
2026-04-08 18:30 11.32 45700 93300 (1979) 7120 (2000) 37400 11200 17900 21400 23600 34300 47200 51500 64400 72800
2026-04-08 18:00 11.32 46000 93300 (1979) 7120 (2000) 37400 11200 17900 21400 23600 34300 47200 51500 64400 72800
2026-04-08 17:30 11.31 46000 93300 (1979) 7120 (2000) 37400 11200 17900 21400 23600 34300 47200 51500 64400 72800
2026-04-08 17:00 11.31 46000 93300 (1979) 7120 (2000) 37400 11200 17900 21400 23600 34300 47200 51500 64400 72800
2026-04-08 16:30 11.33 45500 93300 (1979) 7120 (2000) 37400 11200 17900 21400 23600 34300 47200 51500 64400 72800
2026-04-08 16:00 11.31 45800 93300 (1979) 7120 (2000) 37400 11200 17900 21400 23600 34300 47200 51500 64400 72800
2026-04-08 15:30 11.30 45700 93300 (1979) 7120 (2000) 37400 11200 17900 21400 23600 34300 47200 51500 64400 72800
2026-04-08 15:00 11.31 45200 93300 (1979) 7120 (2000) 37400 11200 17900 21400 23600 34300 47200 51500 64400 72800
2026-04-08 14:30 11.31 45600 93300 (1979) 7120 (2000) 37400 11200 17900 21400 23600 34300 47200 51500 64400 72800
2026-04-08 14:00 11.29 45400 93300 (1979) 7120 (2000) 37400 11200 17900 21400 23600 34300 47200 51500 64400 72800
2026-04-08 13:30 11.33 45100 93300 (1979) 7120 (2000) 37400 11200 17900 21400 23600 34300 47200 51500 64400 72800
2026-04-08 13:00 11.31 45200 93300 (1979) 7120 (2000) 37400 11200 17900 21400 23600 34300 47200 51500 64400 72800
2026-04-08 12:30 11.31 45300 93300 (1979) 7120 (2000) 37400 11200 17900 21400 23600 34300 47200 51500 64400 72800
2026-04-08 12:00 11.30 45400 93300 (1979) 7120 (2000) 37400 11200 17900 21400 23600 34300 47200 51500 64400 72800
2026-04-08 11:30 11.28 45200 93300 (1979) 7120 (2000) 37400 11200 17900 21400 23600 34300 47200 51500 64400 72800
2026-04-08 11:00 11.29 45100 93300 (1979) 7120 (2000) 37400 11200 17900 21400 23600 34300 47200 51500 64400 72800
2026-04-08 10:30 11.28 45100 93300 (1979) 7120 (2000) 37400 11200 17900 21400 23600 34300 47200 51500 64400 72800
2026-04-08 10:00 11.26 45300 93300 (1979) 7120 (2000) 37400 11200 17900 21400 23600 34300 47200 51500 64400 72800
2026-04-08 09:30 11.27 45300 93300 (1979) 7120 (2000) 37400 11200 17900 21400 23600 34300 47200 51500 64400 72800
2026-04-08 09:00 11.26 45300 93300 (1979) 7120 (2000) 37400 11200 17900 21400 23600 34300 47200 51500 64400 72800
2026-04-08 08:30 11.25 45400 93300 (1979) 7120 (2000) 37400 11200 17900 21400 23600 34300 47200 51500 64400 72800
2026-04-08 08:00 11.23 45400 93300 (1979) 7120 (2000) 37400 11200 17900 21400 23600 34300 47200 51500 64400 72800
2026-04-08 07:30 11.23 45300 93300 (1979) 7120 (2000) 37400 11200 17900 21400 23600 34300 47200 51500 64400 72800
2026-04-08 07:00 11.21 45500 93300 (1979) 7120 (2000) 37400 11200 17900 21400 23600 34300 47200 51500 64400 72800
2026-04-08 06:30 11.23 45200 93300 (1979) 7120 (2000) 37400 11200 17900 21400 23600 34300 47200 51500 64400 72800
2026-04-08 06:00 11.22 45300 93300 (1979) 7120 (2000) 37400 11200 17900 21400 23600 34300 47200 51500 64400 72800
2026-04-08 05:30 11.22 45100 93300 (1979) 7120 (2000) 37400 11200 17900 21400 23600 34300 47200 51500 64400 72800
2026-04-08 05:00 11.21 45100 93300 (1979) 7120 (2000) 37400 11200 17900 21400 23600 34300 47200 51500 64400 72800
2026-04-08 04:30 11.20 45300 93300 (1979) 7120 (2000) 37400 11200 17900 21400 23600 34300 47200 51500 64400 72800
2026-04-08 04:00 11.18 45300 93300 (1979) 7120 (2000) 37400 11200 17900 21400 23600 34300 47200 51500 64400 72800
2026-04-08 03:30 11.19 45000 93300 (1979) 7120 (2000) 37400 11200 17900 21400 23600 34300 47200 51500 64400 72800
2026-04-08 03:00 11.17 45300 93300 (1979) 7120 (2000) 37400 11200 17900 21400 23600 34300 47200 51500 64400 72800
2026-04-08 02:30 11.17 45200 93300 (1979) 7120 (2000) 37400 11200 17900 21400 23600 34300 47200 51500 64400 72800
2026-04-08 02:00 11.17 45100 93300 (1979) 7120 (2000) 37400 11200 17900 21400 23600 34300 47200 51500 64400 72800
2026-04-08 01:30 11.16 45100 93300 (1979) 7120 (2000) 37400 11200 17900 21400 23600 34300 47200 51500 64400 72800
2026-04-08 01:00 11.16 45100 93300 (1979) 7120 (2000) 37400 11200 17900 21400 23600 34300 47200 51500 64400 72800
2026-04-08 00:30 11.14 45400 93300 (1979) 7120 (2000) 37400 11200 17900 21400 23600 34300 47200 51500 64400 72800
2026-04-08 00:00 11.14 45100 93300 (1979) 7120 (2000) 37400 11200 17900 21400 23600 34300 47200 51500 64400 72800
2026-04-07 23:30 11.11 45300 93300 (1979) 7120 (2000) 37400 11200 17900 21400 23600 34300 47200 51500 64400 72800
2026-04-07 23:00 11.09 45300 93300 (1979) 7120 (2000) 37400 11200 17900 21400 23600 34300 47200 51500 64400 72800
2026-04-07 22:30 11.10 45200 95200 (1979) 6440 (2000) 37400 11300 17100 21700 24300 34000 45300 49900 65500 72900
2026-04-07 22:00 11.09 45200 95200 (1979) 6440 (2000) 37400 11300 17100 21700 24300 34000 45300 49900 65500 72900
2026-04-07 21:30 11.08 45300 95200 (1979) 6440 (2000) 37400 11300 17100 21700 24300 34000 45300 49900 65500 72900
2026-04-07 21:00 11.09 45100 95200 (1979) 6440 (2000) 37400 11300 17100 21700 24300 34000 45300 49900 65500 72900
2026-04-07 20:30 11.09 45100 95200 (1979) 6440 (2000) 37400 11300 17100 21700 24300 34000 45300 49900 65500 72900
2026-04-07 20:00 11.07 45100 95200 (1979) 6440 (2000) 37400 11300 17100 21700 24300 34000 45300 49900 65500 72900
2026-04-07 19:30 11.08 44900 95200 (1979) 6440 (2000) 37400 11300 17100 21700 24300 34000 45300 49900 65500 72900
2026-04-07 19:00 11.06 45100 95200 (1979) 6440 (2000) 37400 11300 17100 21700 24300 34000 45300 49900 65500 72900
2026-04-07 18:30 11.06 45000 95200 (1979) 6440 (2000) 37400 11300 17100 21700 24300 34000 45300 49900 65500 72900
2026-04-07 18:00 11.06 44800 95200 (1979) 6440 (2000) 37400 11300 17100 21700 24300 34000 45300 49900 65500 72900
2026-04-07 17:30 11.05 44900 95200 (1979) 6440 (2000) 37400 11300 17100 21700 24300 34000 45300 49900 65500 72900
2026-04-07 17:00 11.06 44700 95200 (1979) 6440 (2000) 37400 11300 17100 21700 24300 34000 45300 49900 65500 72900
2026-04-07 16:30 11.04 44800 95200 (1979) 6440 (2000) 37400 11300 17100 21700 24300 34000 45300 49900 65500 72900
2026-04-07 16:00 11.03 44900 95200 (1979) 6440 (2000) 37400 11300 17100 21700 24300 34000 45300 49900 65500 72900
2026-04-07 15:30 11.05 44700 95200 (1979) 6440 (2000) 37400 11300 17100 21700 24300 34000 45300 49900 65500 72900
2026-04-07 15:00 11.04 44600 95200 (1979) 6440 (2000) 37400 11300 17100 21700 24300 34000 45300 49900 65500 72900
2026-04-07 14:30 11.02 44700 95200 (1979) 6440 (2000) 37400 11300 17100 21700 24300 34000 45300 49900 65500 72900
2026-04-07 14:00 11.02 44500 95200 (1979) 6440 (2000) 37400 11300 17100 21700 24300 34000 45300 49900 65500 72900
2026-04-07 13:30 11.00 44900 95200 (1979) 6440 (2000) 37400 11300 17100 21700 24300 34000 45300 49900 65500 72900
2026-04-07 13:00 11.02 44600 95200 (1979) 6440 (2000) 37400 11300 17100 21700 24300 34000 45300 49900 65500 72900
2026-04-07 12:30 11.01 44500 95200 (1979) 6440 (2000) 37400 11300 17100 21700 24300 34000 45300 49900 65500 72900
2026-04-07 12:00 11.00 44500 95200 (1979) 6440 (2000) 37400 11300 17100 21700 24300 34000 45300 49900 65500 72900
2026-04-07 11:30 10.99 44700 95200 (1979) 6440 (2000) 37400 11300 17100 21700 24300 34000 45300 49900 65500 72900
2026-04-07 11:00 10.96 44700 95200 (1979) 6440 (2000) 37400 11300 17100 21700 24300 34000 45300 49900 65500 72900
2026-04-07 10:30 10.97 44800 95200 (1979) 6440 (2000) 37400 11300 17100 21700 24300 34000 45300 49900 65500 72900
2026-04-07 10:00 10.97 44500 95200 (1979) 6440 (2000) 37400 11300 17100 21700 24300 34000 45300 49900 65500 72900
2026-04-07 09:30 10.95 44500 95200 (1979) 6440 (2000) 37400 11300 17100 21700 24300 34000 45300 49900 65500 72900
2026-04-07 09:00 10.93 44800 95200 (1979) 6440 (2000) 37400 11300 17100 21700 24300 34000 45300 49900 65500 72900
2026-04-07 08:30 10.93 44500 95200 (1979) 6440 (2000) 37400 11300 17100 21700 24300 34000 45300 49900 65500 72900
2026-04-07 08:00 10.93 44400 95200 (1979) 6440 (2000) 37400 11300 17100 21700 24300 34000 45300 49900 65500 72900
2026-04-07 07:30 10.92 44500 95200 (1979) 6440 (2000) 37400 11300 17100 21700 24300 34000 45300 49900 65500 72900
2026-04-07 07:00 10.88 44600 95200 (1979) 6440 (2000) 37400 11300 17100 21700 24300 34000 45300 49900 65500 72900
2026-04-07 06:30 10.90 44300 95200 (1979) 6440 (2000) 37400 11300 17100 21700 24300 34000 45300 49900 65500 72900
2026-04-07 06:00 10.90 44300 95200 (1979) 6440 (2000) 37400 11300 17100 21700 24300 34000 45300 49900 65500 72900
2026-04-07 05:30 10.85 44500 95200 (1979) 6440 (2000) 37400 11300 17100 21700 24300 34000 45300 49900 65500 72900
2026-04-07 05:00 10.88 44100 95200 (1979) 6440 (2000) 37400 11300 17100 21700 24300 34000 45300 49900 65500 72900
2026-04-07 04:30 10.86 44300 95200 (1979) 6440 (2000) 37400 11300 17100 21700 24300 34000 45300 49900 65500 72900
2026-04-07 04:00 10.84 44300 95200 (1979) 6440 (2000) 37400 11300 17100 21700 24300 34000 45300 49900 65500 72900
2026-04-07 03:30 10.85 44000 95200 (1979) 6440 (2000) 37400 11300 17100 21700 24300 34000 45300 49900 65500 72900
2026-04-07 03:00 10.83 44200 95200 (1979) 6440 (2000) 37400 11300 17100 21700 24300 34000 45300 49900 65500 72900
2026-04-07 02:30 10.83 43900 95200 (1979) 6440 (2000) 37400 11300 17100 21700 24300 34000 45300 49900 65500 72900
2026-04-07 02:00 10.82 95200 (1979) 6440 (2000) 37400 11300 17100 21700 24300 34000 45300 49900 65500 72900
2026-04-07 01:30 10.81 44100 95200 (1979) 6440 (2000) 37400 11300 17100 21700 24300 34000 45300 49900 65500 72900
2026-04-07 01:00 10.79 44300 95200 (1979) 6440 (2000) 37400 11300 17100 21700 24300 34000 45300 49900 65500 72900
2026-04-07 00:30 10.78 44000 95200 (1979) 6440 (2000) 37400 11300 17100 21700 24300 34000 45300 49900 65500 72900
2026-04-07 00:00 10.78 44000 95200 (1979) 6440 (2000) 37400 11300 17100 21700 24300 34000 45300 49900 65500 72900
2026-04-06 23:30 10.77 43800 95200 (1979) 6440 (2000) 37400 11300 17100 21700 24300 34000 45300 49900 65500 72900
2026-04-06 23:00 10.78 43700 95200 (1979) 6440 (2000) 37400 11300 17100 21700 24300 34000 45300 49900 65500 72900
2026-04-06 22:30 10.75 43900 98400 (1979) 7240 (2000) 37400 10900 16300 22000 23600 34000 44700 50600 66400 71900
2026-04-06 22:00 10.76 43700 98400 (1979) 7240 (2000) 37400 10900 16300 22000 23600 34000 44700 50600 66400 71900
2026-04-06 21:30 10.73 43800 98400 (1979) 7240 (2000) 37400 10900 16300 22000 23600 34000 44700 50600 66400 71900
2026-04-06 21:00 10.72 43900 98400 (1979) 7240 (2000) 37400 10900 16300 22000 23600 34000 44700 50600 66400 71900
2026-04-06 20:30 10.73 43400 98400 (1979) 7240 (2000) 37400 10900 16300 22000 23600 34000 44700 50600 66400 71900
2026-04-06 20:00 10.70 43700 98400 (1979) 7240 (2000) 37400 10900 16300 22000 23600 34000 44700 50600 66400 71900
2026-04-06 19:30 10.71 43500 98400 (1979) 7240 (2000) 37400 10900 16300 22000 23600 34000 44700 50600 66400 71900
2026-04-06 19:00 10.72 43400 98400 (1979) 7240 (2000) 37400 10900 16300 22000 23600 34000 44700 50600 66400 71900
2026-04-06 18:30 10.70 43500 98400 (1979) 7240 (2000) 37400 10900 16300 22000 23600 34000 44700 50600 66400 71900
2026-04-06 18:00 10.67 43600 98400 (1979) 7240 (2000) 37400 10900 16300 22000 23600 34000 44700 50600 66400 71900
2026-04-06 17:30 10.66 43600 98400 (1979) 7240 (2000) 37400 10900 16300 22000 23600 34000 44700 50600 66400 71900
2026-04-06 17:00 10.65 43600 98400 (1979) 7240 (2000) 37400 10900 16300 22000 23600 34000 44700 50600 66400 71900
2026-04-06 16:30 10.65 43300 98400 (1979) 7240 (2000) 37400 10900 16300 22000 23600 34000 44700 50600 66400 71900
2026-04-06 16:00 10.64 43300 98400 (1979) 7240 (2000) 37400 10900 16300 22000 23600 34000 44700 50600 66400 71900
2026-04-06 15:30 10.64 43100 98400 (1979) 7240 (2000) 37400 10900 16300 22000 23600 34000 44700 50600 66400 71900
2026-04-06 15:00 10.62 43200 98400 (1979) 7240 (2000) 37400 10900 16300 22000 23600 34000 44700 50600 66400 71900
2026-04-06 14:30 10.62 98400 (1979) 7240 (2000) 37400 10900 16300 22000 23600 34000 44700 50600 66400 71900
2026-04-06 14:00 10.60 43200 98400 (1979) 7240 (2000) 37400 10900 16300 22000 23600 34000 44700 50600 66400 71900
2026-04-06 13:30 10.60 42900 98400 (1979) 7240 (2000) 37400 10900 16300 22000 23600 34000 44700 50600 66400 71900
2026-04-06 13:00 10.57 43100 98400 (1979) 7240 (2000) 37400 10900 16300 22000 23600 34000 44700 50600 66400 71900
2026-04-06 12:30 10.59 42800 98400 (1979) 7240 (2000) 37400 10900 16300 22000 23600 34000 44700 50600 66400 71900
2026-04-06 12:00 10.56 43000 98400 (1979) 7240 (2000) 37400 10900 16300 22000 23600 34000 44700 50600 66400 71900
2026-04-06 11:30 10.54 43000 98400 (1979) 7240 (2000) 37400 10900 16300 22000 23600 34000 44700 50600 66400 71900
2026-04-06 11:00 10.55 42700 98400 (1979) 7240 (2000) 37400 10900 16300 22000 23600 34000 44700 50600 66400 71900
2026-04-06 10:30 10.55 42700 98400 (1979) 7240 (2000) 37400 10900 16300 22000 23600 34000 44700 50600 66400 71900
2026-04-06 10:00 10.53 42700 98400 (1979) 7240 (2000) 37400 10900 16300 22000 23600 34000 44700 50600 66400 71900
2026-04-06 09:30 10.53 42400 98400 (1979) 7240 (2000) 37400 10900 16300 22000 23600 34000 44700 50600 66400 71900
2026-04-06 09:00 10.51 42400 98400 (1979) 7240 (2000) 37400 10900 16300 22000 23600 34000 44700 50600 66400 71900
2026-04-06 08:30 10.51 42400 98400 (1979) 7240 (2000) 37400 10900 16300 22000 23600 34000 44700 50600 66400 71900
2026-04-06 08:00 10.50 42500 98400 (1979) 7240 (2000) 37400 10900 16300 22000 23600 34000 44700 50600 66400 71900
2026-04-06 07:30 10.48 42300 98400 (1979) 7240 (2000) 37400 10900 16300 22000 23600 34000 44700 50600 66400 71900
2026-04-06 07:00 10.48 42200 98400 (1979) 7240 (2000) 37400 10900 16300 22000 23600 34000 44700 50600 66400 71900
2026-04-06 06:30 10.46 42300 98400 (1979) 7240 (2000) 37400 10900 16300 22000 23600 34000 44700 50600 66400 71900
2026-04-06 06:00 10.44 42200 98400 (1979) 7240 (2000) 37400 10900 16300 22000 23600 34000 44700 50600 66400 71900
2026-04-06 05:30 10.44 42100 98400 (1979) 7240 (2000) 37400 10900 16300 22000 23600 34000 44700 50600 66400 71900
2026-04-06 05:00 10.44 42000 98400 (1979) 7240 (2000) 37400 10900 16300 22000 23600 34000 44700 50600 66400 71900
2026-04-06 04:30 10.42 41900 98400 (1979) 7240 (2000) 37400 10900 16300 22000 23600 34000 44700 50600 66400 71900
2026-04-06 04:00 10.40 42200 98400 (1979) 7240 (2000) 37400 10900 16300 22000 23600 34000 44700 50600 66400 71900
2026-04-06 03:30 10.38 42000 98400 (1979) 7240 (2000) 37400 10900 16300 22000 23600 34000 44700 50600 66400 71900
2026-04-06 03:00 10.37 41800 98400 (1979) 7240 (2000) 37400 10900 16300 22000 23600 34000 44700 50600 66400 71900
2026-04-06 02:30 10.35 41800 98400 (1979) 7240 (2000) 37400 10900 16300 22000 23600 34000 44700 50600 66400 71900
2026-04-06 02:00 10.35 41400 98400 (1979) 7240 (2000) 37400 10900 16300 22000 23600 34000 44700 50600 66400 71900
2026-04-06 01:30 10.34 41200 98400 (1979) 7240 (2000) 37400 10900 16300 22000 23600 34000 44700 50600 66400 71900
2026-04-06 01:00 10.30 41600 98400 (1979) 7240 (2000) 37400 10900 16300 22000 23600 34000 44700 50600 66400 71900
2026-04-06 00:30 10.30 41300 98400 (1979) 7240 (2000) 37400 10900 16300 22000 23600 34000 44700 50600 66400 71900
2026-04-06 00:00 10.27 41400 98400 (1979) 7240 (2000) 37400 10900 16300 22000 23600 34000 44700 50600 66400 71900
2026-04-05 23:30 10.28 41300 98400 (1979) 7240 (2000) 37400 10900 16300 22000 23600 34000 44700 50600 66400 71900
2026-04-05 23:00 10.25 41300 98400 (1979) 7240 (2000) 37400 10900 16300 22000 23600 34000 44700 50600 66400 71900
2026-04-05 22:30 10.25 41200 99600 (1979) 8020 (1981) 37300 9740 14400 20100 22900 33500 44800 51200 67900 74800
2026-04-05 22:00 10.24 99600 (1979) 8020 (1981) 37300 9740 14400 20100 22900 33500 44800 51200 67900 74800
2026-04-05 21:30 10.21 40900 99600 (1979) 8020 (1981) 37300 9740 14400 20100 22900 33500 44800 51200 67900 74800
2026-04-05 21:00 10.19 41000 99600 (1979) 8020 (1981) 37300 9740 14400 20100 22900 33500 44800 51200 67900 74800
2026-04-05 20:30 10.18 40800 99600 (1979) 8020 (1981) 37300 9740 14400 20100 22900 33500 44800 51200 67900 74800
2026-04-05 20:00 10.15 40800 99600 (1979) 8020 (1981) 37300 9740 14400 20100 22900 33500 44800 51200 67900 74800
2026-04-05 19:30 10.14 40700 99600 (1979) 8020 (1981) 37300 9740 14400 20100 22900 33500 44800 51200 67900 74800
2026-04-05 19:00 10.12 40700 99600 (1979) 8020 (1981) 37300 9740 14400 20100 22900 33500 44800 51200 67900 74800
2026-04-05 18:30 10.10 99600 (1979) 8020 (1981) 37300 9740 14400 20100 22900 33500 44800 51200 67900 74800
2026-04-05 18:00 10.09 40600 99600 (1979) 8020 (1981) 37300 9740 14400 20100 22900 33500 44800 51200 67900 74800
2026-04-05 17:30 10.07 40400 99600 (1979) 8020 (1981) 37300 9740 14400 20100 22900 33500 44800 51200 67900 74800
2026-04-05 17:00 10.05 40600 99600 (1979) 8020 (1981) 37300 9740 14400 20100 22900 33500 44800 51200 67900 74800
2026-04-05 16:30 10.04 40300 99600 (1979) 8020 (1981) 37300 9740 14400 20100 22900 33500 44800 51200 67900 74800
2026-04-05 16:00 10.02 40400 99600 (1979) 8020 (1981) 37300 9740 14400 20100 22900 33500 44800 51200 67900 74800
2026-04-05 15:30 9.99 40400 99600 (1979) 8020 (1981) 37300 9740 14400 20100 22900 33500 44800 51200 67900 74800
2026-04-05 15:00 10.01 40200 99600 (1979) 8020 (1981) 37300 9740 14400 20100 22900 33500 44800 51200 67900 74800
2026-04-05 14:30 9.96 40400 99600 (1979) 8020 (1981) 37300 9740 14400 20100 22900 33500 44800 51200 67900 74800
2026-04-05 14:00 9.96 40100 99600 (1979) 8020 (1981) 37300 9740 14400 20100 22900 33500 44800 51200 67900 74800
2026-04-05 13:30 9.93 40300 99600 (1979) 8020 (1981) 37300 9740 14400 20100 22900 33500 44800 51200 67900 74800
2026-04-05 13:00 9.93 40000 99600 (1979) 8020 (1981) 37300 9740 14400 20100 22900 33500 44800 51200 67900 74800
2026-04-05 12:30 9.90 39900 99600 (1979) 8020 (1981) 37300 9740 14400 20100 22900 33500 44800 51200 67900 74800
2026-04-05 12:00 9.87 40000 99600 (1979) 8020 (1981) 37300 9740 14400 20100 22900 33500 44800 51200 67900 74800
2026-04-05 11:30 9.85 39900 99600 (1979) 8020 (1981) 37300 9740 14400 20100 22900 33500 44800 51200 67900 74800
2026-04-05 11:00 9.86 39700 99600 (1979) 8020 (1981) 37300 9740 14400 20100 22900 33500 44800 51200 67900 74800
2026-04-05 10:30 9.84 39800 99600 (1979) 8020 (1981) 37300 9740 14400 20100 22900 33500 44800 51200 67900 74800
2026-04-05 10:00 9.81 39600 99600 (1979) 8020 (1981) 37300 9740 14400 20100 22900 33500 44800 51200 67900 74800
2026-04-05 09:30 9.80 39500 99600 (1979) 8020 (1981) 37300 9740 14400 20100 22900 33500 44800 51200 67900 74800
2026-04-05 09:00 9.79 39300 99600 (1979) 8020 (1981) 37300 9740 14400 20100 22900 33500 44800 51200 67900 74800
2026-04-05 08:30 9.76 39300 99600 (1979) 8020 (1981) 37300 9740 14400 20100 22900 33500 44800 51200 67900 74800
2026-04-05 08:00 9.74 39200 99600 (1979) 8020 (1981) 37300 9740 14400 20100 22900 33500 44800 51200 67900 74800
2026-04-05 07:30 9.74 39100 99600 (1979) 8020 (1981) 37300 9740 14400 20100 22900 33500 44800 51200 67900 74800
2026-04-05 07:00 9.71 39100 99600 (1979) 8020 (1981) 37300 9740 14400 20100 22900 33500 44800 51200 67900 74800
2026-04-05 06:30 9.70 39300 99600 (1979) 8020 (1981) 37300 9740 14400 20100 22900 33500 44800 51200 67900 74800
2026-04-05 06:00 39000 99600 (1979) 8020 (1981) 37300 9740 14400 20100 22900 33500 44800 51200 67900 74800
2026-04-05 05:30 9.68 99600 (1979) 8020 (1981) 37300 9740 14400 20100 22900 33500 44800 51200 67900 74800
2026-04-05 05:00 38800 99600 (1979) 8020 (1981) 37300 9740 14400 20100 22900 33500 44800 51200 67900 74800
2026-04-05 04:30 9.63 99600 (1979) 8020 (1981) 37300 9740 14400 20100 22900 33500 44800 51200 67900 74800
2026-04-05 04:00 9.61 99600 (1979) 8020 (1981) 37300 9740 14400 20100 22900 33500 44800 51200 67900 74800
2026-04-05 03:30 38600 99600 (1979) 8020 (1981) 37300 9740 14400 20100 22900 33500 44800 51200 67900 74800
2026-04-05 03:00 9.57 38400 99600 (1979) 8020 (1981) 37300 9740 14400 20100 22900 33500 44800 51200 67900 74800
2026-04-05 02:30 9.49 38900 99600 (1979) 8020 (1981) 37300 9740 14400 20100 22900 33500 44800 51200 67900 74800
2026-04-05 01:30 9.51 38300 99600 (1979) 8020 (1981) 37300 9740 14400 20100 22900 33500 44800 51200 67900 74800
2026-04-05 01:00 9.50 37900 99600 (1979) 8020 (1981) 37300 9740 14400 20100 22900 33500 44800 51200 67900 74800
2026-04-05 00:30 9.46 38000 99600 (1979) 8020 (1981) 37300 9740 14400 20100 22900 33500 44800 51200 67900 74800
2026-04-05 00:00 9.44 37800 99600 (1979) 8020 (1981) 37300 9740 14400 20100 22900 33500 44800 51200 67900 74800
2026-04-04 23:30 9.42 37600 99600 (1979) 8020 (1981) 37300 9740 14400 20100 22900 33500 44800 51200 67900 74800
2026-04-04 23:00 9.38 37600 99600 (1979) 8020 (1981) 37300 9740 14400 20100 22900 33500 44800 51200 67900 74800

A total of 1466 rows are displayed for years 1939 through 2024.